[[{"header":{"parameterUnit":"m.s-1","parameterCategory":1,"la1":30.6,"la2":29.2853,"lo1":-89.7004,"lo2":-87.6739,"dy":0.0162,"dx":0.0183,"nx":112,"ny":82,"refTime":"2026-04-23T12:00:00:Z","depth":0,"parameterNumber":2,"parameterNumberName":"U-component_of_WINDS"},"data":[0.0,0.0,0.0,0.0,0.0,0.0,0.0,0.0,0.0,0.0,0.0,0.0,0.0,0.0,0.0,0.0,0.0,0.0,0.0,0.0,0.0,0.0,0.0,0.0,0.0,0.0,0.0,0.0,0.0,0.0,0.0,0.0,0.0,0.0,0.0,0.0,0.0,0.0,0.0,0.0,0.0,0.0,0.0,0.0,0.0,0.0,0.0,0.0,0.0,0.0,0.0,0.0,0.0,0.0,0.0,0.0,0.0,0.0,0.0,0.0,0.0,0.0,0.0,0.0,0.0,0.0,0.0,0.0,0.0,0.0,0.0,0.0,0.0,0.0,0.0,0.0,0.0,0.0,0.0,0.0,0.0,0.0,0.0,0.0,0.0,0.0,0.0,0.0,0.0,0.0,-2.8358,-3.1629,-3.4624,-3.6661,-3.7344,-3.5003,-3.1781,-2.7759,0.0,0.0,0.0,0.0,0.0,0.0,0.0,0.0,0.0,0.0,0.0,0.0,0.0,0.0,0.0,0.0,0.0,0.0,0.0,0.0,0.0,0.0,0.0,0.0,0.0,0.0,0.0,0.0,0.0,0.0,0.0,0.0,0.0,0.0,0.0,0.0,0.0,0.0,0.0,0.0,0.0,0.0,0.0,0.0,0.0,0.0,0.0,0.0,0.0,0.0,0.0,0.0,0.0,0.0,0.0,0.0,0.0,0.0,0.0,0.0,0.0,0.0,0.0,0.0,0.0,0.0,0.0,0.0,0.0,0.0,0.0,0.0,0.0,0.0,0.0,0.0,0.0,0.0,0.0,0.0,0.0,0.0,0.0,0.0,0.0,0.0,0.0,0.0,0.0,0.0,0.0,0.0,0.0,0.0,0.0,0.0,0.0,0.0,0.0,0.0,0.0,0.0,0.0,0.0,-2.796,-3.4718,-3.651,-3.7268,-3.7401,-3.4453,-3.1137,-2.7721,0.0,0.0,0.0,0.0,0.0,0.0,0.0,0.0,0.0,0.0,0.0,0.0,0.0,0.0,0.0,0.0,0.0,0.0,0.0,0.0,0.0,0.0,0.0,0.0,0.0,0.0,0.0,0.0,0.0,0.0,0.0,0.0,0.0,0.0,0.0,0.0,0.0,0.0,0.0,0.0,0.0,0.0,0.0,0.0,0.0,0.0,0.0,0.0,0.0,0.0,0.0,0.0,0.0,0.0,0.0,0.0,0.0,0.0,0.0,0.0,0.0,0.0,0.0,0.0,0.0,0.0,0.0,0.0,0.0,0.0,0.0,0.0,0.0,0.0,0.0,0.0,0.0,0.0,0.0,0.0,0.0,0.0,0.0,0.0,0.0,0.0,0.0,0.0,0.0,0.0,0.0,0.0,0.0,0.0,0.0,0.0,0.0,0.0,0.0,0.0,0.0,0.0,0.0,-2.7972,-3.0852,-3.5695,-3.6927,-3.723,-3.6794,-3.451,-3.1488,-2.7687,-2.5497,0.0,0.0,0.0,0.0,0.0,0.0,0.0,0.0,0.0,0.0,0.0,0.0,0.0,0.0,0.0,0.0,0.0,0.0,0.0,0.0,0.0,0.0,0.0,0.0,0.0,0.0,0.0,0.0,0.0,0.0,0.0,0.0,0.0,0.0,0.0,0.0,0.0,0.0,0.0,0.0,0.0,0.0,0.0,0.0,0.0,0.0,0.0,0.0,0.0,0.0,0.0,0.0,0.0,0.0,0.0,0.0,0.0,0.0,0.0,0.0,0.0,0.0,0.0,0.0,0.0,0.0,0.0,0.0,0.0,0.0,0.0,0.0,0.0,0.0,0.0,0.0,0.0,0.0,0.0,0.0,0.0,0.0,0.0,0.0,0.0,0.0,0.0,0.0,0.0,0.0,0.0,0.0,0.0,0.0,0.0,0.0,0.0,0.0,0.0,0.0,0.0,0.0,-3.1307,-3.36,-3.596,-3.6756,-3.687,-3.6263,-3.4131,-3.1262,-2.7622,-2.5438,0.0,0.0,0.0,0.0,0.0,0.0,0.0,0.0,0.0,0.0,0.0,0.0,0.0,0.0,0.0,0.0,0.0,0.0,0.0,0.0,0.0,0.0,0.0,0.0,0.0,0.0,0.0,0.0,0.0,0.0,0.0,0.0,0.0,0.0,0.0,0.0,0.0,0.0,0.0,0.0,0.0,0.0,0.0,0.0,0.0,0.0,0.0,0.0,0.0,0.0,0.0,0.0,0.0,0.0,0.0,0.0,0.0,0.0,0.0,0.0,0.0,0.0,0.0,0.0,0.0,0.0,0.0,0.0,0.0,0.0,0.0,0.0,0.0,0.0,0.0,0.0,0.0,0.0,0.0,0.0,0.0,0.0,0.0,0.0,0.0,0.0,0.0,0.0,0.0,0.0,0.0,0.0,0.0,0.0,0.0,0.0,0.0,0.0,0.0,0.0,0.0,0.0,-3.1145,-3.4263,-3.6017,-3.6263,-3.6263,-3.6206,-3.2558,-2.9445,-2.7527,-2.4301,0.0,0.0,0.0,0.0,0.0,0.0,0.0,0.0,0.0,0.0,0.0,0.0,0.0,0.0,0.0,0.0,0.0,0.0,0.0,0.0,0.0,0.0,0.0,0.0,0.0,0.0,0.0,0.0,0.0,0.0,0.0,0.0,0.0,0.0,0.0,0.0,0.0,0.0,0.0,0.0,0.0,0.0,0.0,0.0,0.0,0.0,0.0,0.0,0.0,0.0,0.0,0.0,0.0,0.0,0.0,0.0,0.0,0.0,0.0,0.0,0.0,0.0,0.0,0.0,0.0,0.0,0.0,0.0,0.0,0.0,0.0,0.0,0.0,0.0,0.0,0.0,0.0,0.0,0.0,0.0,0.0,0.0,0.0,0.0,0.0,0.0,0.0,0.0,0.0,0.0,0.0,0.0,0.0,0.0,0.0,0.0,0.0,0.0,0.0,0.0,0.0,0.0,-3.0644,-3.3524,-3.5211,-3.631,-3.6529,-3.5476,-3.3914,-3.1381,-2.7592,0.0,0.0,0.0,0.0,0.0,0.0,0.0,0.0,0.0,0.0,0.0,0.0,0.0,0.0,0.0,0.0,0.0,0.0,0.0,0.0,0.0,0.0,0.0,0.0,0.0,0.0,0.0,0.0,0.0,0.0,0.0,0.0,0.0,0.0,0.0,0.0,0.0,0.0,0.0,0.0,0.0,0.0,0.0,0.0,0.0,0.0,0.0,0.0,0.0,0.0,0.0,0.0,0.0,0.0,0.0,0.0,0.0,0.0,0.0,0.0,0.0,0.0,0.0,0.0,0.0,0.0,0.0,0.0,0.0,0.0,0.0,0.0,0.0,0.0,0.0,0.0,0.0,0.0,0.0,0.0,0.0,0.0,0.0,0.0,0.0,0.0,0.0,0.0,0.0,0.0,0.0,0.0,0.0,0.0,0.0,0.0,0.0,0.0,0.0,0.0,0.0,0.0,-2.7209,-3.0606,-3.3354,-3.4756,-3.6159,-3.6433,-3.4992,-3.3847,-3.1487,-2.7483,0.0,0.0,0.0,0.0,0.0,0.0,0.0,0.0,0.0,0.0,0.0,0.0,0.0,0.0,0.0,0.0,0.0,0.0,0.0,0.0,0.0,0.0,0.0,0.0,0.0,0.0,0.0,0.0,0.0,0.0,0.0,0.0,0.0,0.0,0.0,0.0,0.0,0.0,0.0,0.0,0.0,0.0,0.0,0.0,0.0,0.0,0.0,0.0,0.0,0.0,0.0,0.0,0.0,0.0,0.0,0.0,0.0,0.0,0.0,0.0,0.0,0.0,0.0,0.0,0.0,0.0,0.0,0.0,0.0,0.0,0.0,0.0,0.0,0.0,0.0,0.0,0.0,0.0,0.0,0.0,0.0,0.0,0.0,0.0,0.0,0.0,0.0,0.0,0.0,0.0,0.0,0.0,0.0,0.0,0.0,0.0,0.0,0.0,0.0,0.0,0.0,0.0,-2.7285,-3.1126,-3.4017,-3.4813,-3.5685,-3.5816,-3.4884,-3.1751,-2.9041,0.0,0.0,0.0,0.0,0.0,0.0,0.0,0.0,0.0,0.0,0.0,0.0,0.0,0.0,0.0,0.0,0.0,0.0,0.0,0.0,0.0,0.0,0.0,0.0,0.0,0.0,0.0,0.0,0.0,0.0,0.0,0.0,0.0,0.0,0.0,0.0,0.0,0.0,0.0,0.0,0.0,0.0,0.0,0.0,0.0,0.0,0.0,0.0,0.0,0.0,0.0,0.0,0.0,0.0,0.0,0.0,0.0,0.0,0.0,0.0,0.0,0.0,0.0,0.0,0.0,0.0,0.0,0.0,0.0,0.0,0.0,0.0,0.0,0.0,0.0,0.0,0.0,0.0,0.0,0.0,0.0,0.0,0.0,0.0,0.0,0.0,0.0,0.0,0.0,0.0,0.0,0.0,0.0,0.0,0.0,0.0,0.0,0.0,0.0,0.0,0.0,0.0,0.0,-2.7285,-3.1126,-3.4017,-3.4813,-3.5607,-3.5716,-3.4874,-3.3197,-3.0732,-2.7324,0.0,0.0,0.0,0.0,0.0,0.0,0.0,0.0,0.0,0.0,0.0,0.0,0.0,0.0,0.0,0.0,0.0,0.0,0.0,0.0,0.0,0.0,0.0,0.0,0.0,0.0,0.0,0.0,0.0,0.0,0.0,0.0,0.0,0.0,0.0,0.0,0.0,0.0,0.0,0.0,0.0,0.0,0.0,0.0,0.0,0.0,0.0,0.0,0.0,0.0,0.0,0.0,0.0,0.0,0.0,0.0,0.0,0.0,0.0,0.0,0.0,0.0,0.0,0.0,0.0,0.0,0.0,0.0,0.0,0.0,0.0,0.0,0.0,0.0,0.0,0.0,0.0,0.0,0.0,0.0,0.0,0.0,0.0,0.0,0.0,0.0,0.0,0.0,0.0,0.0,0.0,0.0,0.0,0.0,0.0,0.0,0.0,0.0,0.0,0.0,0.0,0.0,-2.6766,-3.0918,-3.3884,-3.4377,-3.5369,-3.5646,-3.4793,-3.3489,-3.1061,-2.7186,0.0,0.0,0.0,0.0,0.0,0.0,0.0,0.0,0.0,0.0,0.0,0.0,0.0,0.0,0.0,0.0,0.0,0.0,0.0,0.0,0.0,0.0,0.0,0.0,0.0,0.0,0.0,0.0,0.0,0.0,0.0,0.0,0.0,0.0,0.0,0.0,0.0,0.0,0.0,0.0,0.0,0.0,0.0,0.0,0.0,0.0,0.0,0.0,0.0,0.0,0.0,0.0,0.0,0.0,0.0,0.0,0.0,0.0,0.0,0.0,0.0,0.0,0.0,0.0,0.0,0.0,0.0,0.0,0.0,0.0,0.0,0.0,0.0,0.0,0.0,0.0,0.0,0.0,0.0,0.0,0.0,0.0,0.0,0.0,0.0,0.0,0.0,0.0,0.0,0.0,0.0,0.0,0.0,0.0,0.0,0.0,0.0,0.0,0.0,0.0,0.0,0.0,-2.6084,-3.056,-3.3629,-3.3799,-3.5018,-3.5499,-3.4658,-3.2965,-3.0472,-2.7028,0.0,0.0,0.0,0.0,0.0,0.0,0.0,0.0,0.0,0.0,0.0,0.0,0.0,0.0,0.0,0.0,0.0,0.0,0.0,0.0,0.0,0.0,0.0,0.0,0.0,0.0,0.0,0.0,0.0,0.0,0.0,0.0,0.0,0.0,0.0,0.0,0.0,0.0,0.0,0.0,0.0,0.0,0.0,0.0,0.0,0.0,0.0,0.0,0.0,0.0,0.0,0.0,0.0,0.0,0.0,0.0,0.0,0.0,0.0,0.0,-2.9431,-2.7737,0.0,0.0,0.0,0.0,0.0,0.0,0.0,0.0,0.0,0.0,0.0,0.0,0.0,0.0,0.0,0.0,0.0,0.0,0.0,0.0,0.0,0.0,0.0,0.0,0.0,0.0,0.0,0.0,0.0,0.0,0.0,0.0,0.0,0.0,0.0,0.0,0.0,0.0,0.0,0.0,-2.6849,-3.0368,-3.31,-3.4432,-3.4671,-3.466,-3.4469,-3.2711,-3.0471,-2.7806,-2.4376,0.0,0.0,0.0,0.0,0.0,0.0,0.0,0.0,0.0,0.0,0.0,0.0,0.0,0.0,0.0,0.0,0.0,0.0,0.0,0.0,0.0,0.0,0.0,0.0,0.0,0.0,0.0,0.0,0.0,0.0,0.0,0.0,0.0,0.0,0.0,0.0,0.0,0.0,0.0,0.0,0.0,0.0,0.0,0.0,0.0,0.0,0.0,0.0,0.0,0.0,0.0,0.0,0.0,0.0,0.0,0.0,0.0,0.0,0.0,-3.3449,-3.1318,0.0,0.0,0.0,0.0,0.0,0.0,0.0,0.0,0.0,0.0,0.0,0.0,0.0,0.0,0.0,0.0,0.0,0.0,0.0,0.0,0.0,0.0,0.0,0.0,0.0,0.0,0.0,0.0,0.0,0.0,0.0,0.0,0.0,0.0,0.0,0.0,0.0,0.0,0.0,0.0,-2.7029,-3.0259,-3.276,-3.3963,-3.4274,-3.4386,-3.4386,-3.261,-3.0606,-2.8507,-2.5102,0.0,0.0,0.0,0.0,0.0,0.0,0.0,0.0,0.0,0.0,0.0,0.0,0.0,0.0,0.0,0.0,0.0,0.0,0.0,0.0,0.0,0.0,0.0,0.0,0.0,0.0,0.0,0.0,0.0,0.0,0.0,0.0,0.0,0.0,0.0,0.0,0.0,0.0,0.0,0.0,0.0,0.0,0.0,0.0,0.0,0.0,0.0,0.0,0.0,0.0,0.0,0.0,0.0,-3.9448,-4.065,-4.1825,-4.1094,-4.1605,-4.2791,-3.7807,-3.5628,-3.5363,-3.288,0.0,0.0,0.0,0.0,0.0,0.0,0.0,0.0,0.0,0.0,0.0,0.0,0.0,0.0,0.0,0.0,0.0,0.0,0.0,0.0,0.0,0.0,0.0,0.0,-2.8859,-2.889,-2.5485,0.0,0.0,0.0,0.0,0.0,0.0,0.0,0.0,0.0,0.0,0.0,-2.7404,-3.0508,-3.2748,-3.3425,-3.4009,-3.434,-3.4316,-3.2551,-3.0772,-2.915,-2.5966,-2.3077,0.0,0.0,0.0,0.0,0.0,0.0,0.0,0.0,0.0,0.0,0.0,0.0,0.0,0.0,0.0,0.0,0.0,0.0,0.0,0.0,0.0,0.0,0.0,0.0,0.0,0.0,0.0,0.0,0.0,0.0,0.0,0.0,-2.6178,-2.7994,0.0,0.0,0.0,0.0,0.0,0.0,0.0,0.0,0.0,0.0,0.0,0.0,0.0,-3.8054,-3.9066,-4.1389,-4.228,-4.1757,-4.4099,-4.4933,-4.4402,-4.4289,-4.4762,-4.5615,-4.408,0.0,-3.8007,-3.5457,0.0,0.0,0.0,0.0,0.0,0.0,0.0,0.0,0.0,0.0,0.0,0.0,0.0,0.0,0.0,0.0,0.0,0.0,0.0,0.0,0.0,0.0,-3.2177,-3.144,-3.1381,-3.1165,0.0,-2.754,-2.5214,-2.4095,-2.2815,0.0,0.0,0.0,0.0,0.0,0.0,0.0,-2.9074,-3.1628,-3.3444,-3.4177,-3.4249,-3.4161,-3.3985,-3.2284,-3.0761,-2.9663,-2.7033,-2.479,-2.3113,-2.0876,0.0,0.0,0.0,0.0,0.0,0.0,0.0,0.0,0.0,0.0,0.0,0.0,0.0,0.0,0.0,0.0,0.0,0.0,0.0,0.0,0.0,0.0,0.0,0.0,0.0,0.0,0.0,0.0,0.0,-2.6144,-2.8558,-2.9282,-3.0219,-3.0238,0.0,0.0,0.0,0.0,0.0,0.0,0.0,0.0,0.0,-4.0328,-4.065,-4.1635,-4.3417,-4.4554,-4.5388,-4.5956,-4.7055,-4.7637,-4.7681,-4.7245,-4.7491,-4.8225,-4.6885,-4.5274,-4.3334,-3.9854,-3.7163,-3.5003,0.0,0.0,0.0,0.0,-3.1388,-3.1071,-3.2722,-3.2771,-3.1896,-3.0832,0.0,0.0,0.0,0.0,0.0,0.0,0.0,0.0,0.0,0.0,-3.3039,-3.3173,-3.318,-3.3057,-3.2746,-3.1507,-2.9694,0.0,-2.6358,-2.5241,-2.2242,0.0,0.0,0.0,0.0,-2.7786,-3.002,-3.2042,-3.3512,-3.42,-3.4136,-3.3998,-3.3908,-3.2145,-3.0844,-3.0392,-2.7927,-2.5783,-2.4236,-2.2738,-2.0794,0.0,0.0,0.0,0.0,0.0,0.0,0.0,0.0,0.0,0.0,0.0,0.0,0.0,0.0,0.0,0.0,0.0,0.0,0.0,0.0,0.0,0.0,0.0,0.0,0.0,0.0,0.0,0.0,-2.8634,-3.0875,-3.0863,-3.253,-3.288,0.0,0.0,0.0,0.0,0.0,0.0,-3.9486,-4.0054,-4.1533,-4.4251,-4.4326,-4.5236,-4.7131,-4.7567,-4.8401,-4.9652,-4.9652,-4.9841,-5.0201,-4.9614,-4.9551,-4.9836,-4.8585,-4.7921,-4.7416,-4.3474,-4.053,-3.8375,-3.6701,-3.5461,-3.4703,-3.5292,-3.49,-3.4364,-3.6607,-3.6477,-3.5218,-3.4588,-3.3146,-3.1325,-2.9494,0.0,0.0,0.0,0.0,-3.0576,-3.2042,-3.2871,-3.3466,-3.4048,-3.4197,-3.4197,-3.4197,-3.4395,-3.351,0.0,-2.9712,-2.8924,-2.5456,0.0,0.0,0.0,0.0,-2.9655,-3.1144,-3.2608,-3.3682,-3.4093,-3.3985,-3.3763,-3.3473,-3.1874,-3.0798,-3.053,-2.8497,-2.6603,-2.5051,-2.4219,-2.2506,-1.9742,0.0,0.0,0.0,0.0,0.0,0.0,0.0,0.0,0.0,0.0,0.0,0.0,0.0,0.0,0.0,0.0,0.0,0.0,0.0,0.0,0.0,0.0,0.0,0.0,0.0,0.0,0.0,0.0,0.0,-3.3505,-3.5666,0.0,0.0,0.0,0.0,-3.8197,-3.9115,-4.0355,-4.2117,-4.372,-4.5047,-4.6032,-4.8306,-4.9589,-4.9722,-5.13,-5.212,-5.2196,-5.2196,-5.1831,-5.1116,-5.1078,-5.0637,-4.9912,-4.9817,-4.9343,-4.8376,-4.4971,-4.2806,-4.1511,-3.9833,-3.8803,-3.8251,-3.8288,-3.8615,-3.8809,-3.7282,-3.7211,-3.766,-3.675,-3.4966,-3.3141,-3.2889,-3.1377,0.0,0.0,-3.1906,-3.2766,-3.3814,-3.4104,-3.4141,-3.4179,-3.4197,-3.4197,-3.4197,-3.486,-3.4897,0.0,-3.2165,-3.1125,-2.939,0.0,-2.8315,-2.9158,-3.0132,-3.134,-3.2873,-3.3807,-3.4232,-3.3947,-3.3908,-3.3436,-3.2292,-3.1386,-3.048,-2.954,-2.8637,-2.7411,-2.5806,-2.5033,-2.3856,-2.2153,-1.9859,0.0,0.0,0.0,0.0,0.0,0.0,0.0,0.0,0.0,0.0,0.0,0.0,0.0,0.0,0.0,0.0,0.0,0.0,0.0,0.0,0.0,0.0,0.0,0.0,0.0,0.0,0.0,0.0,-3.6007,-3.83,0.0,-3.7173,-3.8452,-3.9665,-4.0252,-4.2052,-4.3853,-4.552,-4.7207,-4.8515,-4.9386,-5.0789,-5.1509,-5.1509,-5.2115,-5.2385,-5.2385,-5.2385,-5.2253,-5.195,-5.1438,-5.1035,-5.0713,-5.0139,-4.9741,-4.9343,-4.7618,-4.5672,-4.3686,-4.2921,-4.1693,-4.036,-4.0171,-4.008,-3.9932,-3.9211,-3.8798,-3.8349,-3.6916,-3.6051,-3.5455,-3.4882,-3.4429,-3.4041,-3.3881,-3.4146,-3.4463,-3.4259,-3.4197,-3.4197,-3.4197,-3.4197,-3.4197,-3.4197,-3.5293,-3.5937,-3.4841,-3.393,-3.2834,-3.1229,-3.074,-3.0325,-2.9572,-3.1094,-3.2512,-3.3003,-3.366,-3.4036,-3.3908,-3.362,-3.3085,-3.2181,-3.1211,-3.0062,-2.8709,-2.787,-2.6728,-2.5158,-2.4837,-2.3695,-2.1572,-2.0234,-1.877,0.0,0.0,0.0,0.0,0.0,0.0,0.0,0.0,0.0,0.0,0.0,0.0,0.0,0.0,0.0,0.0,0.0,0.0,0.0,0.0,0.0,0.0,0.0,0.0,0.0,-3.5325,-3.775,-3.8584,-4.0915,-4.1787,-4.0081,-4.1711,-4.3114,-4.3682,-4.5255,-4.6904,-4.859,-4.9746,-5.0732,-5.1585,-5.2404,-5.2854,-5.2854,-5.312,-5.3252,-5.3252,-5.3252,-5.3101,-5.2817,-5.1983,-5.1471,-5.1154,-5.0277,-4.9912,-4.9855,-4.9324,-4.7875,-4.594,-4.5012,-4.3701,-4.2246,-4.1821,-4.1468,-4.1142,-4.0472,-3.9715,-3.8798,-3.7398,-3.6942,-3.6832,-3.6288,-3.621,-3.6162,-3.568,-3.5452,-3.5254,-3.4761,-3.442,-3.4197,-3.4197,-3.4197,-3.4271,-3.4569,-3.572,-3.6625,-3.6365,-3.5621,-3.4606,-3.328,-3.2839,-3.2311,-3.118,-3.2354,-3.3357,-3.3302,-3.3589,-3.3762,-3.3662,-3.3397,-3.2757,-3.1654,-3.0918,-2.9836,-2.8303,-2.7442,-2.6407,-2.5122,-2.4837,-2.382,-2.1946,-2.0894,-1.9591,-1.8012,0.0,0.0,0.0,0.0,0.0,0.0,0.0,0.0,0.0,0.0,0.0,0.0,0.0,0.0,0.0,0.0,0.0,0.0,0.0,0.0,0.0,0.0,0.0,-3.5022,-3.7892,-4.0336,-4.1207,-4.3493,-4.499,-4.499,-4.5767,-4.6973,-4.8623,-4.8755,-4.95,-5.1149,-5.1249,-5.1628,-5.2419,-5.329,-5.3745,-5.3745,-5.4503,-5.4901,-5.4901,-5.4901,-5.4484,-5.3707,-5.2817,-5.1969,-5.1187,-5.0277,-4.9912,-4.9912,-4.9912,-4.9324,-4.822,-4.6081,-4.4794,-4.4025,-4.3209,-4.2919,-4.2646,-4.0923,-3.9878,-3.9171,-3.8325,-3.7678,-3.7247,-3.7247,-3.6714,-3.6153,-3.637,-3.5837,-3.5232,-3.5459,-3.4866,-3.4234,-3.4197,-3.4216,-3.4457,-3.5324,-3.616,-3.6965,-3.7745,-3.7262,-3.6463,-3.5677,-3.4822,-3.4234,-3.4197,-3.4036,0.0,-3.3895,-3.3726,-3.3488,-3.3235,-3.3205,-3.2451,-3.0651,-3.0496,-2.9818,-2.8231,-2.7388,-2.6603,-2.58,-2.5069,-2.4272,-2.3487,-2.1911,-2.0349,-1.8833,0.0,0.0,0.0,0.0,0.0,0.0,0.0,0.0,0.0,0.0,0.0,0.0,0.0,0.0,0.0,0.0,0.0,0.0,0.0,0.0,0.0,-3.5325,-3.7666,-3.7666,-4.0536,-4.2962,-4.3777,-4.5558,-4.6714,-4.6714,-4.7491,-4.8452,-4.9495,-5.0163,-5.0978,-5.2006,-5.2684,-5.312,-5.3347,-5.4143,-5.4579,-5.4579,-5.4787,-5.4901,-5.4901,-5.4901,-5.4787,-5.4522,-5.3063,-5.2272,-5.2002,-5.0523,-4.9912,-4.9912,-4.9912,-4.9594,-4.8953,-4.7079,-4.5711,-4.4633,-4.3578,-4.305,-4.2659,-4.1498,-4.056,-3.9769,-3.9085,-3.8514,-3.8102,-3.8307,-3.832,-3.8132,-3.7632,-3.7312,-3.688,-3.5776,-3.5324,-3.499,-3.4346,-3.468,-3.5213,-3.5454,-3.6588,-3.7575,-3.7613,-3.7423,-3.7091,-3.6474,-3.5696,-3.4934,-3.429,-3.4036,0.0,-3.3895,-3.3555,-3.328,-3.3205,-3.307,-3.2302,-3.0636,-3.0496,-2.9337,-2.6626,-2.6247,-2.58,-2.5033,-2.4254,-2.3452,-2.2642,-2.1625,-2.0626,0.0,0.0,0.0,0.0,0.0,0.0,0.0,0.0,0.0,0.0,0.0,0.0,0.0,0.0,0.0,0.0,0.0,0.0,0.0,0.0,0.0,0.0,-3.8357,-4.0907,-4.1249,-4.2962,-4.4762,-4.6297,-4.734,-4.8079,-4.8414,-4.9235,-4.9936,-5.041,-5.1225,-5.2077,-5.2911,-5.3423,-5.3859,-5.42,-5.4655,-5.4901,-5.4901,-5.4901,-5.4901,-5.4901,-5.4901,-5.4731,-5.4352,-5.3011,-5.2229,-5.1831,-5.0486,-4.9912,-4.9912,-4.9912,-4.9769,0.0,0.0,0.0,0.0,0.0,-4.3338,-4.3032,-4.2105,-4.1288,-4.0522,-3.9775,-3.9152,-3.8707,-3.8892,-3.9003,-3.9008,-3.8525,-3.8154,-3.7596,-3.6328,-3.5751,-3.538,-3.4878,-3.5138,-3.5677,-3.6365,-3.7158,-3.7789,-3.8011,-3.7963,0.0,-3.6588,-3.5717,-3.4887,-3.4076,-3.3743,-3.3606,-3.3606,-3.3294,-3.3068,-3.3068,-3.2961,-3.2382,-3.1118,-3.0689,0.0,0.0,0.0,-2.5818,-2.4748,-2.4248,0.0,0.0,0.0,0.0,0.0,0.0,0.0,0.0,-1.9796,-1.9877,0.0,0.0,0.0,0.0,0.0,0.0,0.0,0.0,0.0,0.0,0.0,0.0,0.0,0.0,0.0,0.0,-4.12,-4.4156,-4.5047,-4.5274,-4.6165,-4.8433,-4.8774,-4.9153,-4.9969,-5.0751,-5.1268,-5.1471,-5.2153,-5.293,-5.3783,-5.384,0.0,0.0,0.0,-5.4901,-5.4901,-5.4901,-5.4901,-5.4901,-5.4901,-5.4484,-5.3669,-5.2798,-5.195,-5.1154,-5.0277,-4.9912,-4.9912,-4.9912,-4.9744,-4.9358,-4.7584,-4.6561,-4.5892,-4.4313,-4.3728,-4.3584,-4.2735,0.0,0.0,-4.04,-3.9642,-3.9073,-3.9101,-3.9101,-3.9101,-3.9101,-3.8581,-3.7838,-3.7052,-3.6309,-3.5714,-3.5547,-3.564,-3.6142,-3.7466,-3.7697,-3.7857,-3.8596,-3.8544,-3.784,-3.6191,-3.5329,-3.4557,-3.3733,-3.3368,-3.3205,-3.3205,-3.3024,-3.29,-3.29,0.0,0.0,-3.176,-3.0957,-3.0154,-2.9333,-2.7835,-2.6354,-2.4873,-2.4908,-2.4575,-2.3773,-2.4462,-2.4819,-2.4837,-2.5479,-2.5461,-2.4766,-2.2624,-2.2346,0.0,0.0,0.0,0.0,0.0,0.0,0.0,0.0,0.0,0.0,0.0,0.0,0.0,0.0,0.0,-4.0165,-4.2829,-4.5198,-4.6695,-4.7523,-4.8149,-4.8642,-4.9267,-5.0012,-5.0865,-5.1111,-5.1774,-5.312,-5.3366,-5.3821,-5.4617,-5.4674,-5.475,-5.4901,-5.4901,-5.4901,-5.4901,-5.4901,-5.4901,-5.4901,0.0,0.0,-5.3669,-5.2798,-5.195,-5.1154,-5.0277,-4.9912,-4.9912,-4.9912,-4.9102,-4.778,-4.7089,-4.5941,-4.4621,-4.4073,-4.3849,-4.3799,-4.3406,-4.2343,-4.1141,-4.1017,-4.0001,-3.8892,-3.9045,-3.9101,0.0,-3.9101,-3.899,-3.8674,-3.7875,-3.7541,-3.7113,-3.5807,-3.6495,-3.7336,-3.7015,-3.7785,-3.8526,-3.8491,-3.8252,-3.7495,-3.5658,-3.5571,-3.5264,-3.3824,-3.3368,-3.3205,-3.3205,-3.3024,-3.29,-3.29,-3.29,-3.2579,-3.176,-3.0957,-2.9908,-2.8517,-2.7531,-2.6568,-2.564,-2.6211,-2.6175,-2.5372,-2.5515,-2.5586,-2.5586,-2.5729,-2.5729,-2.5586,-2.5122,-2.4748,0.0,0.0,0.0,0.0,0.0,0.0,0.0,0.0,0.0,0.0,0.0,-3.4724,-3.6904,0.0,-4.106,-4.2761,-4.516,-4.7093,-4.794,-4.8774,-4.9305,-4.9305,-4.9665,-5.0082,-5.0505,-5.1319,-5.2153,-5.2987,-5.384,-5.4484,-5.4882,-5.4901,-5.4901,-5.4901,-5.4901,-5.4901,-5.4901,-5.4901,-5.4901,-5.4901,-5.4484,-5.3859,-5.3025,-5.2191,-5.1338,-5.0523,-5.0088,-4.9912,-4.9912,-4.9912,-4.8907,-4.7384,-4.7173,-4.6059,-4.4535,-4.4365,-4.4294,-4.4279,-4.4072,-4.2899,-4.1493,-4.1445,-4.0326,-3.8979,-3.9073,-3.9101,-3.9101,-3.9101,-3.9101,-3.8915,-3.8098,-3.7894,-3.7662,-3.6721,-3.7119,-3.7711,-3.7729,-3.808,-3.8399,-3.8399,-3.8069,-3.7362,-3.6024,-3.5692,-3.506,-3.3506,-3.3132,-3.3055,-3.3055,-3.2961,-3.29,-3.29,-3.29,-3.2739,-3.2329,-3.1294,-3.0166,-2.9013,-2.8205,-2.7346,-2.6438,-2.6795,-2.6621,-2.5818,-2.6193,-2.6407,-2.6407,-2.6787,-2.7001,-2.7001,-2.7424,-2.6978,0.0,0.0,0.0,0.0,0.0,0.0,0.0,-3.1495,-3.2999,-3.5537,-3.6757,-3.8045,-4.022,-4.2006,-4.3571,-4.4933,-4.715,-4.8698,-4.8698,-4.94,-4.9912,-4.9912,-4.9912,-4.9969,-5.0139,-5.1528,-5.2461,-5.2632,-5.4048,-5.4901,-5.4901,-5.4901,-5.4901,-5.4901,-5.4901,-5.4901,-5.4901,-5.4901,-5.4901,-5.4901,-5.4086,-5.3252,-5.2366,-5.1571,-5.0713,-4.9912,-4.9912,-4.9912,-4.9893,-4.9741,-4.8774,-4.7378,-4.7226,-4.6215,-4.4808,-4.4745,-4.4751,-4.4725,-4.457,-4.338,-4.1887,-4.1726,-4.0514,-3.9101,-3.9101,-3.9101,-3.9101,-3.9101,-3.9101,-3.8952,-3.8302,-3.8108,-3.7933,-3.7399,-3.7382,-3.7577,-3.8143,-3.7988,-3.7888,-3.8249,-3.7932,-3.7363,-3.6542,-3.5756,-3.4756,-3.3346,-3.3007,-3.29,-3.29,-3.29,-3.29,-3.29,-3.29,-3.2862,-3.2746,-3.1552,-3.0495,-2.9746,-2.8938,-2.8113,-2.7277,-2.7228,-2.6925,-2.6269,-2.6907,-2.7228,-2.7228,-2.8035,-2.8427,-2.8445,-2.923,-2.8834,-3.0499,-2.9898,-2.9945,-3.2049,-3.2172,-3.3093,0.0,-3.8444,-3.8254,-4.076,-4.2002,-4.2756,-4.3113,-4.4593,-4.5843,-4.6013,-4.7542,-4.8698,-4.8698,-4.94,-4.9912,-4.9912,-4.9912,-5.0201,-5.0978,-5.1869,-5.2722,-5.3499,-5.4389,-5.4901,-5.4901,-5.4901,-5.4901,-5.4901,-5.4901,-5.4901,-5.4901,-5.4901,-5.4901,-5.4901,-5.4086,-5.3252,-5.2366,-5.1571,-5.0713,-4.9912,-4.9912,-4.9912,-4.9836,-4.9134,-4.8281,-4.7321,-4.6601,-4.5748,-4.4883,-4.487,-4.487,-4.4833,-4.4578,-4.3407,-4.1959,-4.1688,-4.0471,-3.9101,-3.9101,-3.9101,-3.9101,-3.9101,-3.9101,-3.9082,-3.899,-3.883,-3.832,-3.6869,-3.6894,-3.7058,-3.6456,-3.6642,-3.7134,-3.789,-3.7845,-3.7417,-3.6559,-3.5826,-3.5056,-3.4114,-3.3364,-3.29,-3.29,-3.29,-3.29,-3.29,-3.29,-3.2708,-3.2234,-3.1329,-3.0495,-2.9746,-2.8938,-2.8383,-2.8084,-2.8071,-2.8017,-2.7928,-2.8017,-2.8071,-2.8071,-2.8873,-2.928,-2.928,-3.0015,-2.994,-3.3881,-3.3626,-3.3627,-3.4643,-3.6511,-3.8452,-3.9832,-4.0778,-4.1663,-4.2693,-4.363,-4.4291,-4.4335,-4.5754,-4.6904,-4.6904,-4.83,-4.94,-4.94,-4.9286,-4.921,-4.921,-4.921,-4.9533,-5.0353,-5.1206,-5.2044,-5.2892,-5.3726,-5.4408,-5.4863,-5.4901,-5.4901,-5.4901,-5.4901,-5.4901,-5.4901,-5.4901,-5.4655,-5.42,-5.3347,-5.2513,-5.1665,-5.0827,-5.0239,-4.9912,-4.9912,-4.9912,-4.9836,-4.904,-4.8187,-4.7321,-4.6506,-4.5672,-4.4895,-4.4895,-4.4895,-4.4858,-4.4632,-4.3447,-4.1954,-4.1731,-4.0414,-3.895,-3.9059,-3.9017,-3.895,-3.9073,-3.9101,-3.9101,-3.9101,-3.895,-3.8482,-3.7173,-3.6908,-3.6771,-3.6038,-3.6318,-3.6835,-3.7361,-3.7608,-3.7578,-3.722,-3.613,-3.5166,-3.4811,-3.3687,-3.29,-3.29,-3.29,-3.293,-3.307,-3.3068,-3.3076,-3.3136,-3.2383,-3.1709,-3.1292,-3.0516,-2.9909,-2.9547,-2.9533,-2.9533,-2.9533,-2.9533,-2.9533,-2.9533,-2.9886,-3.0047,-3.0065,-3.0832,-3.1028,-3.5483,-3.5889,-3.6503,-3.7028,-3.9928,-4.2358,-4.1059,-4.2555,-4.4146,-4.3901,-4.4562,-4.5124,-4.494,-4.6089,-4.7131,-4.7359,-4.8623,-4.9646,-4.9874,-4.921,-4.8698,-4.8698,-4.849,-4.8661,-4.9495,-5.0561,-5.1438,-5.2025,-5.3082,-5.3954,-5.4541,-5.4787,-5.4901,-5.4901,-5.4901,-5.4901,-5.4901,-5.4674,-5.4276,-5.3688,-5.2589,-5.176,-5.1173,-5.0296,-4.9912,-4.9912,-4.9912,-4.9779,-4.9514,-4.8679,-4.7845,-4.698,-4.6165,-4.5464,-4.4895,-4.4895,-4.487,-4.4827,-4.4632,-4.3434,-4.1887,-4.1655,-4.0355,-3.8892,-3.8902,-3.8888,-3.8906,-3.8989,-3.9059,-3.9087,-3.9031,-3.8844,-3.842,-3.7346,-3.6711,-3.6223,-3.578,-3.583,-3.6087,-3.6533,-3.7068,-3.7399,-3.7345,-3.6183,-3.5238,-3.5221,-3.3883,-3.29,-3.29,-3.29,-3.2977,-3.3175,-3.3205,-3.3379,-3.3855,-3.3158,-3.2608,-3.2411,-3.1636,-3.0998,-3.0526,-3.0496,-3.0496,-3.0496,-3.0496,-3.0496,-3.0496,-3.0725,-3.0832,-3.085,-3.1653,-3.2028,-3.4122,-3.5618,-3.7791,-3.9614,-4.1882,-4.3639,-4.351,-4.4796,-4.5779,-4.4928,-4.5457,-4.5824,-4.5034,-4.5634,-4.6487,-4.7264,-4.8149,-4.9021,-4.9798,-4.921,-4.8698,-4.8698,-4.7946,-4.7776,-4.8661,-5.0239,-5.1211,-5.123,-5.2779,-5.3707,-5.3745,-5.4484,-5.4901,-5.4901,-5.4901,-5.4901,-5.4901,-5.4124,-5.3726,-5.3688,-5.204,-5.1211,-5.1173,-5.0296,-4.9912,-4.9912,-4.9912,-4.9457,-4.8679,-4.7808,-4.6961,-4.6146,-4.5274,-4.4914,-4.4895,-4.4895,-4.4827,-4.4699,-4.4537,-4.3324,-4.1754,-4.1339,-4.0244,-3.9017,-3.8556,-3.8722,-3.9045,-3.8862,-3.895,-3.9059,-3.8848,-3.8621,-3.815,-3.7073,-3.6015,-3.5291,-3.5376,-3.482,-3.4515,-3.5302,-3.6141,-3.6662,-3.647,-3.5862,-3.5359,-3.5221,-3.3883,-3.29,-3.29,-3.29,-3.2977,-3.3175,-3.3205,-3.3379,-3.3855,-3.3158,-3.2608,-3.2411,-3.1636,-3.0998,-3.0526,-3.0496,-3.0496,-3.0496,-3.0496,-3.0496,-3.0496,-3.1278,-3.1653,-3.1671,-3.2489,-3.2864,-3.6757,-3.8566,-4.0337,-4.155,-4.3612,-4.535,-4.5325,-4.5761,-4.5931,-4.5048,-4.4669,-4.4245,-4.3405,-4.4383,-4.5615,-4.6468,-4.7789,-4.8983,-4.9798,-4.921,-4.849,-4.7908,-4.7567,-4.751,-4.7808,-4.8856,-4.9993,-5.1116,-5.2229,-5.3101,-5.3669,-5.4465,-5.4901,-5.4901,-5.4901,-5.4636,-5.4105,-5.384,-5.3139,-5.204,-5.0884,-5.0334,-5.0334,-5.0044,-4.9912,-4.9912,-4.9912,-4.9438,-4.8642,-4.777,-4.6923,-4.6108,-4.5236,-4.4895,-4.4883,-4.4796,-4.4685,-4.4551,-4.4515,-4.3648,-4.2478,-4.1709,-4.0648,-3.959,-3.9021,-3.8873,-3.8921,-3.8974,-3.9045,-3.9059,-3.8848,-3.8606,-3.8134,-3.7056,-3.6393,-3.5756,-3.4869,-3.4884,-3.5008,-3.4839,-3.583,-3.6661,-3.6557,-3.5844,-3.4898,-3.3828,-3.3239,-3.29,-3.29,-3.29,-3.3057,-3.343,-3.3473,-3.3569,-3.3868,-3.3655,-3.3331,-3.2955,-3.2672,-3.2415,-3.2097,-3.2097,-3.2097,-3.2097,-3.2097,-3.2097,-3.2097,-3.2364,-3.2507,-3.2507,-3.2775,-3.29,-3.9207,-4.0901,-4.2221,-4.3427,-4.5241,-4.6579,-4.5991,-4.6025,-4.5786,-4.4308,-4.3379,-4.2545,-4.1662,-4.2147,-4.3341,-4.5407,-4.6639,-4.794,-4.9665,-4.921,-4.849,-4.794,-4.7586,-4.751,-4.7832,-4.8376,-4.9267,-5.0637,-5.1509,-5.2343,-5.3196,-5.4029,-5.4465,-5.4465,-5.4465,-5.4067,-5.3252,-5.2949,-5.2115,-5.0732,-5.0163,-4.9912,-4.9912,-4.9912,-4.9912,-4.9912,-4.9912,-4.9267,-4.8187,-4.7624,-4.6733,-4.5672,-4.5122,-4.4858,-4.4827,-4.4719,-4.4578,-4.443,-4.443,-4.3577,-4.2373,-4.1679,-4.0648,-3.9571,-3.9021,-3.8873,-3.8921,-3.8993,-3.8989,-3.8931,-3.8713,-3.8446,-3.8059,-3.7266,-3.6736,-3.6077,-3.4924,-3.4867,-3.4828,-3.4103,-3.4952,-3.5784,-3.5717,-3.5202,-3.4365,-3.3096,-3.29,-3.29,-3.29,-3.29,-3.307,-3.3563,-3.3516,-3.3587,-3.3868,-3.3829,-3.3625,-3.3235,-3.3205,-3.3099,-3.2916,-3.29,-3.29,-3.29,-3.29,-3.29,-3.29,-3.29,-3.29,-3.29,-3.29,-3.29,-4.1274,-4.2516,-4.3459,-4.5225,-4.6627,-4.7186,-4.5622,-4.5658,-4.5324,-4.286,-4.1635,-4.0734,-3.9862,-3.9153,-4.0017,-4.4061,-4.4857,-4.6108,-4.9381,-4.9229,-4.8755,-4.8698,-4.7978,-4.7776,-4.8623,-4.8698,-4.904,-4.9836,-5.0751,-5.159,-5.2347,-5.3233,-5.3707,-5.3707,-5.3669,-5.3233,-5.2347,-5.1547,-5.0713,-4.9912,-4.9912,-4.9912,-4.9912,-4.9912,-4.9912,-4.9912,-4.9855,-4.8907,-4.7397,-4.7359,-4.6373,-4.4895,-4.4895,-4.4827,-4.4712,-4.4699,-4.4524,-4.43,-4.4285,-4.3118,-4.1616,-4.1329,-4.0281,-3.9073,-3.8643,-3.8773,-3.9059,-3.8848,-3.8807,-3.8747,-3.8446,-3.8186,-3.7932,-3.7667,-3.7006,-3.6291,-3.5609,-3.4837,-3.4015,-3.3228,-3.3675,-3.4162,-3.4097,-3.4133,-3.3865,-3.3025,-3.2936,-3.2953,-3.29,-3.29,-3.307,-3.353,-3.3339,-3.3364,-3.3829,-3.3684,-3.3473,-3.3205,-3.319,-3.3099,-3.2916,-3.29,-3.29,-3.29,-3.29,-3.29,-3.29,-3.29,-3.29,-3.29,-3.29,-3.29,-4.3231,-4.4325,-4.5178,-4.629,-4.6272,-4.6031,-4.6203,-4.4874,-4.3221,-4.1916,-3.9912,-3.8111,-3.7296,-3.8007,-3.9467,-4.1768,-4.4232,-4.6601,-4.8717,-4.9362,-4.9381,-4.8774,-4.8509,-4.8471,-4.8679,-4.8698,-4.904,-4.9836,-5.1263,-5.2177,-5.2385,-5.3233,-5.3707,-5.3707,-5.3082,-5.2343,-5.1514,-5.0656,-5.0107,-4.9912,-4.9912,-4.9912,-4.9912,-4.9912,-4.9912,-4.9874,-4.9267,-4.8395,-4.734,-4.6752,-4.5862,-4.4895,-4.4895,-4.4827,-4.4699,-4.4578,-4.4426,-4.4285,-4.4131,-4.3367,-4.2389,-4.1716,-4.084,-4.0053,-3.9919,-3.9517,-3.9059,-3.8848,-3.8807,-3.8683,-3.8219,-3.8052,-3.7932,-3.7667,-3.7452,-3.7095,-3.6379,-3.5643,-3.4873,-3.4051,-3.402,-3.4114,-3.4097,-3.4544,-3.4454,-3.3096,-3.3401,-3.358,-3.2971,-3.29,-3.2993,-3.3265,-3.3235,-3.325,-3.3383,-3.3339,-3.3223,-3.2993,-3.2995,-3.2945,-3.29,-3.29,-3.29,-3.29,-3.29,-3.29,-3.29,-3.29,-3.29,-3.29,-3.29,-3.29,-4.465,-4.5345,-4.58,-4.6302,-4.5945,-4.5312,-4.4659,-4.3024,-4.0969,-3.8556,-3.6596,-3.4897,-3.3666,-3.5116,-3.7306,-3.9702,-4.2924,-4.5937,-4.8357,-4.94,-4.9741,-4.9286,-4.9229,-4.9229,-4.9229,-4.9229,-4.9419,-4.9874,-5.077,-5.1471,-5.1836,-5.2343,-5.2608,-5.2608,-5.212,-5.1471,-5.0637,-5.0126,-4.9912,-4.9912,-4.9912,-4.9912,-4.9912,-4.9912,-4.9722,-4.9362,0.0,-4.8016,-4.6828,-4.6392,-4.5691,-4.4895,-4.4895,-4.477,-4.4605,-4.4528,-4.4354,-4.405,-4.3218,-4.2872,-4.2723,-4.2259,-4.133,-4.0416,-4.0416,-3.9731,-3.8931,-3.8818,-3.8637,-3.8382,-3.8086,-3.7915,-3.7792,-3.7631,-3.7595,-3.7381,-3.663,-3.5844,-3.4968,-3.3858,-3.3595,-3.3562,-3.3562,-3.3919,-3.4026,-3.3491,-3.3508,-3.3526,-3.3437,-3.3114,-3.2977,-3.3175,-3.3114,-3.3099,-3.319,-3.3114,-3.3024,-3.2916,-3.29,-3.29,-3.29,-3.29,-3.29,-3.29,-3.29,-3.29,-3.29,-3.29,-3.3078,-3.3435,-3.3435,-3.3661,-4.5902,-4.6058,-4.6,-4.6116,-4.5712,-4.4691,-4.2368,-4.0691,-3.8516,-3.4489,-3.282,-3.164,-3.0159,-3.1886,-3.4624,-3.7988,-4.1332,-4.4706,-4.8073,-4.9229,-4.9779,-4.9893,-4.9912,-4.9912,-4.9912,-4.9912,-4.9912,-4.9912,-4.9912,-5.0277,-5.1154,-5.1192,-5.1149,-5.1035,-5.1035,-5.0656,-4.9912,-4.9912,-4.9912,-4.9912,-4.9912,-4.9912,-4.9912,-4.9912,-4.9457,-4.8698,-4.8585,-4.7637,-4.6184,-4.607,-4.5577,-4.4895,-4.4895,-4.4738,-4.4501,-4.4501,-4.4296,-4.3801,-4.2389,-4.237,-4.2927,-4.2705,-4.1702,-4.055,-4.0521,-3.9782,-3.8921,-3.875,-3.835,-3.7984,-3.7949,-3.7757,-3.7595,-3.7595,-3.7595,-3.7416,-3.6702,-3.5935,-3.49,-3.3364,-3.3061,-3.3025,-3.2918,-3.2989,-3.3257,-3.3847,-3.3508,-3.3366,-3.3883,-3.333,-3.2961,-3.3144,-3.3008,-3.2961,-3.3144,-3.2993,-3.29,-3.29,-3.29,-3.29,-3.29,-3.29,-3.29,-3.29,-3.29,-3.2953,-3.3061,-3.3061,-3.3455,-3.4258,-3.4258,-3.4729,-4.7715,-4.7424,-4.7038,-4.7773,-4.5805,-4.3387,-4.2227,-3.8996,-3.5633,-3.3437,-3.107,-2.9485,-2.984,-3.1393,-3.3714,-3.7078,-4.0442,-4.3796,-4.715,-4.8376,-4.9153,-4.9817,-4.9912,-4.9912,-4.9912,-4.9912,-4.9912,-4.9912,-4.9912,-5.0277,-5.1154,-5.1192,-5.0865,-5.0144,-5.0126,-5.005,-4.9912,-4.9912,-4.9912,-4.9912,-4.9912,-4.9912,-4.9912,-4.9912,-4.9457,-4.8661,-4.794,0.0,-4.6146,-4.5426,-4.5047,-4.4895,-4.4895,-4.4738,-4.4501,-4.4501,-4.4296,-4.3968,-4.367,-4.367,-4.3578,-4.224,-4.1609,-4.1356,-4.1123,-4.0474,-3.9559,-3.8451,-3.8069,-3.7949,-3.7739,-3.7631,-3.7595,-3.7595,-3.7595,-3.7559,-3.7434,-3.6756,-3.5739,-3.4187,-3.3901,-3.3669,-3.3007,-3.3437,-3.3705,-3.3186,-3.4062,-3.4383,-3.3257,-3.2989,-3.2916,-3.2963,-3.2932,-3.2916,-3.2963,-3.2916,-3.29,-3.29,-3.29,-3.29,-3.29,-3.29,-3.29,-3.29,-3.29,-3.3239,-3.3901,-3.3901,-3.4276,-3.5025,-3.5025,-3.523,-4.7599,-4.7424,-4.7096,-4.7057,-4.5162,-4.2711,-4.0488,-3.6961,-3.3378,-3.0643,-2.9048,-2.7963,-2.7449,-2.9772,-3.2312,-3.3903,-3.7334,-4.0972,-4.4326,-4.5899,-4.7372,-4.9078,-4.9646,-4.9912,-4.9912,-4.9912,-4.9912,-4.9912,-4.9912,-5.0069,-5.0505,-5.0523,-5.0334,-4.9912,-4.9912,-4.9912,-4.9912,-4.9912,-4.9912,-4.9912,-4.9912,-4.9912,-4.9893,-4.9476,-4.8831,-4.7978,-4.7131,-4.6297,-4.5483,-4.5066,-4.4895,-4.4883,-4.4821,-4.4672,-4.4501,-4.443,-4.4237,-4.3949,-4.3522,-4.3555,-4.361,-4.2408,-4.2097,-4.2102,-4.1409,-4.0533,-3.9534,-3.8337,-3.7897,-3.7775,-3.7631,-3.7595,-3.7595,-3.7595,-3.7595,-3.7488,-3.7077,-3.6667,-3.606,-3.49,-3.4365,-3.399,-3.358,-3.3491,-3.3491,-3.3508,-3.4151,-3.4508,-3.4133,-3.4097,-3.3776,-3.2989,-3.29,-3.29,-3.29,-3.29,-3.29,-3.29,-3.29,-3.29,-3.29,-3.29,-3.3096,-3.3508,-3.3508,-3.3901,-3.4669,-3.4669,-3.5079,-3.5828,-3.5828,-3.6283,-4.727,-4.7231,-4.698,-4.6484,-4.4543,-4.1951,-3.8806,-3.5155,-3.1493,-2.8275,-2.7292,-2.6681,-2.5479,-2.8085,-3.0644,-3.1336,-3.4491,-3.8167,-4.187,-4.3853,-4.5843,-4.8395,-4.9419,-4.9912,-4.9912,-4.9912,-4.9912,-4.9912,-4.9912,-4.9912,-4.9912,-4.9912,-4.9912,-4.9912,-4.9912,-4.9912,-4.9912,-4.9912,-4.9912,-4.9912,-4.9912,-4.9817,-4.9627,-4.9002,-4.813,-4.7112,-4.6468,-4.571,-4.4895,-4.4895,-4.4895,-4.4883,-4.4745,-4.4619,-4.4487,-4.4344,-4.4177,-4.3912,-4.328,-4.331,-4.3503,-4.2859,-4.2643,-4.243,-4.1342,-4.0323,-3.9304,-3.8217,-3.7775,-3.7595,-3.7595,-3.7595,-3.7595,-3.7595,-3.7595,-3.7434,-3.6774,-3.6649,-3.6417,-3.5614,-3.4989,-3.4543,-3.4383,-3.3669,-3.3366,-3.4008,-3.4115,-3.4295,-3.4883,-3.5097,-3.474,-3.3525,-3.3257,-3.3168,-3.3168,-3.3168,-3.3168,-3.3168,-3.3311,-3.34,-3.34,-3.34,-3.3687,-3.4329,-3.4347,-3.4722,-3.5471,-3.5471,-3.5882,-3.6649,-3.672,-3.7303,-4.785,-4.7695,-4.727,-4.7985,-4.4562,-4.052,-3.8556,-3.4186,-2.9998,-2.8013,-2.6344,-2.5415,-2.597,-2.705,-2.8813,-3.18,-3.3884,-3.6822,-4.17,-4.3853,-4.5843,-4.8395,-4.9419,-4.9912,-4.9912,-4.9912,-4.9912,-4.9912,-4.9912,-4.9912,-4.9912,-4.9912,-4.9912,-4.9912,-4.9912,-4.9912,-4.9912,-4.9912,-4.9912,-4.9912,-4.9912,-4.9514,-4.8812,-4.8736,-4.7826,-4.6297,-4.6222,-4.571,0.0,-4.4895,-4.4895,-4.4883,-4.4745,-4.4619,-4.4487,-4.4344,-4.4177,-4.3986,-4.3912,-4.3772,-4.3595,-4.3522,-4.2854,-4.1863,-4.0799,-3.9895,-3.9012,-3.7936,-3.7613,-3.7595,-3.7595,-3.7595,-3.7595,-3.7595,-3.7595,-3.7577,-3.7506,-3.7488,-3.7256,-3.6453,-3.6238,-3.5953,-3.5222,-3.449,-3.4008,-3.4097,-3.4115,-3.4133,-3.4204,-3.4793,-3.515,-3.499,-3.4401,-3.399,-3.399,-3.399,-3.399,-3.399,-3.4633,-3.4989,-3.4989,-3.4989,-3.5008,-3.5114,-3.5114,-3.5489,-3.6292,-3.6292,-3.6702,-3.7506,-3.7737,-3.7911,-4.6225,-4.6908,-4.6815,-4.6148,-4.3246,-3.9946,-3.7609,-3.3109,-2.9078,-2.7797,-2.6195,-2.5098,-2.542,-2.616,-2.7316,-2.9155,-3.0416,-3.2568,-3.6594,-3.902,-4.1711,-4.5274,-4.7283,-4.8793,-4.9798,-4.9912,-4.9912,-4.9912,-4.9912,-4.9912,-4.9912,-4.9912,-4.9912,-4.9912,-4.9912,-4.9912,-4.9912,-4.9912,-4.9912,-4.9893,-4.9419,-4.9021,-4.8679,-4.7656,-4.6828,-4.6165,-4.5653,-4.5217,0.0,-4.4895,-4.4846,-4.4776,-4.4632,-4.4496,-4.4358,-4.4192,-4.4067,-4.4005,-4.4005,-4.3714,-4.3356,-4.3356,-4.2178,-4.0688,-4.0474,-3.9842,-3.8976,-3.79,-3.7595,-3.7595,-3.7595,-3.7595,-3.7595,-3.7595,-3.7595,-3.7595,-3.7595,-3.7595,-3.7506,-3.7166,-3.672,-3.6292,-3.5989,-3.5293,-3.4615,-3.4169,-3.449,-3.4758,-3.4758,-3.5435,-3.6114,-3.6577,-3.5525,-3.4758,-3.4758,-3.4758,-3.4758,-3.4758,-3.5026,-3.5186,-3.5186,-3.5186,-3.5435,-3.5917,-3.5917,-3.6328,-3.7131,-3.7131,-3.7291,-3.7595,-3.7703,-3.7863,-4.4369,-4.5433,-4.5595,-4.4638,-4.2032,-3.9057,-3.6566,-3.2298,-2.8536,-2.7305,-2.5932,-2.4936,-2.4943,-2.5411,-2.6088,-2.6975,-2.801,-2.9878,-3.3221,-3.5836,-3.8774,-4.2526,-4.4933,-4.6961,-4.8642,-4.9476,-4.9912,-4.9912,-4.9912,-4.9912,-4.9912,-4.9912,-4.9912,-4.9912,-4.9912,-4.9912,-4.9912,-4.9912,-4.9885,-4.9824,-4.901,-4.8472,-4.8148,-4.6724,-4.5956,-4.5723,-4.5123,-4.487,0.0,-4.4846,-4.4802,-4.4685,-4.4496,-4.4387,-4.4285,-4.4067,-4.4005,-4.3989,-4.3908,-4.358,-4.3178,-4.3069,-4.1609,-3.9953,-4.0181,-3.9535,-3.8582,-3.781,-3.7595,-3.7595,-3.7595,-3.7595,-3.7595,-3.7595,-3.7595,-3.7595,-3.7595,-3.7595,-3.7595,-3.7595,-3.7149,-3.6738,-3.6738,-3.6096,-3.5382,-3.4865,-3.5025,-3.5186,-3.5186,-3.5703,-3.6345,-3.7166,-3.6238,-3.556,-3.556,-3.556,-3.556,-3.556,-3.5792,-3.5917,-3.5917,-3.5917,-3.6185,-3.6738,-3.6738,-3.7041,-3.7595,-3.7595,-3.7595,-3.7595,-3.7685,-3.7828,-4.2628,-4.3324,-4.351,-4.4218,-4.1246,-3.7579,-3.5501,-3.1781,-2.8271,-2.6395,-2.5366,-2.4795,-2.4805,-2.4856,-2.5189,-2.6077,-2.7612,-2.9878,-3.3221,-3.5836,-3.8338,-4.0923,-4.2716,-4.4402,-4.607,-4.8471,-4.9912,-4.9912,-4.9912,0.0,-4.9912,-4.9912,-4.9912,-4.9912,-4.9912,-4.9912,-4.9912,-4.9912,-4.983,-4.9692,-4.882,-4.7923,-4.6993,-4.6177,-4.5418,-4.4712,-4.4789,-4.4833,0.0,-4.4764,-4.4712,-4.4672,-4.4416,-4.43,-4.4285,-4.4067,-4.4005,-4.3955,-4.3697,-4.3426,-4.3142,-4.2807,-4.1419,-3.9895,-3.9914,-3.8826,-3.7613,-3.7595,-3.7595,-3.7595,-3.7595,-3.7595,-3.7595,-3.7595,-3.7595,-3.7595,-3.7595,-3.7595,-3.7595,-3.7595,-3.7595,-3.7595,-3.7595,-3.6916,-3.6381,-3.6381,-3.5703,-3.5186,-3.5186,-3.5204,-3.5525,-3.6328,-3.6399,-3.6381,-3.6381,-3.6381,-3.6381,-3.6381,-3.7131,-3.7577,-3.7577,-3.7577,-3.7577,-3.7595,-3.7595,-3.7595,-3.7595,-3.7595,-3.7595,-3.7613,-3.7862,-3.8001,-3.8386,-3.9297,-3.9581,-3.9165,-3.7064,-3.4606,-3.2755,-2.9925,-2.7388,-2.6242,-2.5324,-2.4749,-2.4787,-2.4813,-2.5687,-2.8304,-2.9161,-3.0692,-3.4055,-3.6699,-3.922,-4.1719,-4.552,-4.8136,-4.8679,-4.9438,-4.9912,-4.9912,-4.9912,-4.9912,-4.9912,-4.9912,-4.9912,-4.9912,-4.9912,-4.9857,-4.9759,-4.9174,-4.882,-4.8645,-4.723,-4.6412,-4.6092,-4.5336,-4.4891,-4.4712,-4.4757,-4.4833,0.0,-4.4764,-4.4646,-4.4556,-4.4373,-4.4226,-4.4101,-4.402,-4.3876,-4.3714,-4.3631,-4.3267,-4.2845,-4.2713,-4.1437,-3.9895,-3.9895,-3.8826,-3.7595,-3.7595,-3.7595,-3.7595,-3.7595,-3.7595,-3.7595,-3.7595,-3.7595,-3.7595,-3.7595,-3.7595,-3.7595,-3.7595,-3.7595,-3.7595,-3.7595,-3.7398,-3.7041,-3.647,-3.6185,-3.6024,-3.6024,-3.6024,-3.6328,-3.7131,-3.722,-3.722,-3.722,-3.722,-3.722,-3.722,-3.747,-3.7595,-3.7595,-3.7595,-3.7595,-3.7595,-3.7595,-3.7595,-3.7595,-3.7595,-3.7595,-3.7595,-3.7685,-3.7739,-3.4812,-3.624,-3.6906,-3.6274,-3.4437,-3.2402,-3.091,-2.8544,-2.6441,-2.561,-2.5011,-2.4653,-2.4711,-2.4757,-2.5476,-2.7633,-2.8523,-2.9918,-3.2625,-3.5476,-3.8527,-4.1996,-4.6013,-4.8623,-4.8945,-4.9533,-4.9912,-4.9912,-4.9627,-4.9457,-4.9457,-4.9134,-4.8964,-4.8964,-4.9286,-4.937,-4.9216,-4.8367,-4.7853,-4.7631,-4.6281,-4.5615,-4.5522,-4.479,-4.4496,-4.4592,-4.468,-4.4789,0.0,-4.4549,-4.4458,-4.4473,-4.4162,-4.402,-4.3989,-4.3876,-4.3747,-4.3562,-4.3338,-4.3014,-4.2638,-4.2233,-4.0909,-3.9432,-3.9129,-3.8362,-3.7595,-3.7595,-3.7595,-3.7595,-3.7595,-3.7595,-3.7595,-3.7595,-3.7595,-3.7595,-3.7595,-3.7595,-3.7595,-3.7595,-3.7595,-3.7595,-3.7595,-3.7595,-3.7434,-3.6916,-3.6845,-3.6738,-3.6435,-3.6399,-3.6577,-3.7077,-3.7149,-3.7274,-3.7577,-3.7595,-3.7595,-3.7595,-3.7595,-3.7595,-3.7595,-3.7595,-3.7595,-3.7595,-3.7595,-3.7595,-3.7595,-3.7595,-3.7595,-3.7595,-3.7595,-3.7595,0.0,-3.3751,-3.4905,-3.4767,-3.2863,-3.072,-2.9651,-2.7545,0.0,-2.4684,-2.4488,-2.4568,-2.474,-2.4738,-2.4828,-2.5243,-2.6635,-2.8269,-3.0088,-3.3288,-3.7258,-4.2174,-4.4895,-4.6676,-4.7491,-4.8945,-4.9817,-4.9817,-4.9059,-4.8623,-4.8623,-4.7845,-4.7397,-4.7397,-4.8117,-4.8448,-4.8296,-4.749,-4.692,-4.6582,-4.5776,-4.5329,-4.5191,-4.4507,-4.4255,0.0,-4.4524,0.0,0.0,-4.4198,-4.4177,-4.4397,-4.3793,-4.373,-4.3908,-4.3646,-4.3563,-4.346,-4.2884,-4.2692,-4.249,-4.1388,-4.0021,-3.8647,-3.7845,-3.7595,-3.7595,-3.7595,-3.7595,-3.7595,-3.7595,-3.7595,-3.7595,-3.7595,-3.7595,-3.7595,-3.7595,-3.7595,-3.7595,-3.7595,-3.7595,-3.7595,-3.7595,-3.7595,-3.7595,-3.7595,-3.7595,-3.7345,-3.6577,-3.6488,-3.6488,-3.6488,-3.6488,-3.6774,-3.7541,-3.7595,-3.7595,-3.7595,-3.7595,-3.7595,-3.7595,-3.7595,-3.7595,-3.7595,-3.7595,-3.7595,-3.7595,-3.7595,-3.7595,-3.7595,-3.7595,-3.7595,-2.7611,0.0,-2.9411,-2.9284,-2.8719,-2.7911,0.0,-2.6196,-2.5493,-2.4675,-2.4508,-2.4897,-2.6199,-2.5431,-2.5891,-2.9758,-3.0255,-3.1185,-3.4159,-3.8069,-4.2033,-4.5786,-4.734,-4.8433,-4.9229,-4.9115,-4.8983,-4.8983,-4.8187,-4.77,-4.77,-4.751,-4.7397,-4.7397,-4.6838,-4.6811,-4.7314,-4.6386,-4.581,-4.5611,-4.4755,-4.4349,-4.4302,-4.4228,-4.4244,-4.4329,-4.4411,0.0,-4.4537,-4.4057,-4.3884,-4.3918,-4.3478,-4.3339,-4.3392,-4.3322,-4.3142,-4.2884,-4.2751,-4.2573,-4.2139,-4.0665,-3.9556,-3.8647,-3.7845,-3.7595,-3.7595,-3.7595,-3.7595,-3.7595,-3.7595,-3.7595,-3.7595,-3.7595,-3.7595,-3.7595,-3.7595,-3.7595,-3.7595,-3.7595,-3.7595,-3.7595,-3.7595,-3.7595,-3.7595,-3.7595,-3.7595,-3.7541,-3.7345,-3.7327,-3.7327,-3.7327,-3.7327,-3.7398,-3.7577,-3.7595,-3.7595,-3.7595,-3.7595,-3.7595,-3.7595,-3.7595,-3.7595,-3.7595,-3.7595,-3.7595,-3.7595,-3.7595,-3.7595,-3.7595,-3.7595,-3.7595,-2.5492,-2.6731,-2.8037,-2.7972,-2.7555,-2.7018,-2.651,-2.5742,-2.5039,-2.4592,-2.45,-2.4899,-2.6163,-2.6013,-2.6719,-2.9859,-3.0677,-3.2371,-3.6564,-4.0155,-4.3457,-4.6487,-4.7534,-4.8202,0.0,-4.8297,-4.8018,-4.8058,-4.7308,-4.6847,-4.6847,-4.6468,-4.6241,-4.6241,-4.5612,-4.5632,-4.6392,-4.5439,-4.4878,-4.4692,-4.4228,-4.4005,-4.4005,-4.407,-4.4165,-4.4259,0.0,0.0,-4.4196,-4.3772,-4.3625,-4.3575,-4.3142,-4.305,-4.3178,-4.3013,-4.2863,-4.2692,-4.2573,-4.2179,-4.1538,-4.0287,-3.9395,-3.8647,-3.7845,-3.7595,-3.7595,-3.7595,-3.7595,-3.7595,-3.7595,-3.7595,-3.7595,-3.7595,-3.7595,-3.7595,-3.7595,-3.7595,-3.7595,-3.7595,-3.7595,-3.7595,-3.7595,-3.7595,-3.7595,-3.7595,-3.7595,-3.7595,-3.7595,-3.7595,-3.7595,-3.7595,-3.7595,-3.7595,-3.7595,-3.7595,-3.7595,-3.7595,-3.7595,-3.7595,-3.7595,-3.7595,-3.7595,-3.7595,-3.7595,-3.7595,-3.7595,-3.7595,-3.7595,-3.7613,-3.7969,-3.8148,-2.4912,-2.6706,-2.8428,-2.8078,-2.7522,-2.7045,-2.6915,-2.5733,-2.4685,-2.4685,-2.4685,-2.4964,-2.5912,-2.6665,-2.7568,-2.8818,-3.053,-3.3395,-3.8181,-4.0823,-4.3214,-4.583,-4.6633,0.0,-4.7251,-4.7097,-4.7022,-4.7089,-4.6398,-4.5982,-4.5994,-4.5268,-4.487,-4.4883,-4.4619,-4.4806,-4.5495,-4.468,-4.4162,-4.4005,-4.4005,-4.4005,-4.4005,-4.4005,-4.407,-4.4184,0.0,0.0,-4.3836,-4.3439,-4.3301,-4.3248,-4.2808,-4.2806,-4.3031,-4.2731,-4.2634,-4.2613,-4.2371,-4.177,-4.0967,-4.0144,-3.9395,-3.8647,-3.7845,-3.7595,-3.7595,-3.7595,-3.7595,-3.7595,-3.7595,-3.7595,-3.7595,-3.7595,-3.7595,-3.7595,-3.7595,-3.7595,-3.7595,-3.7595,-3.7595,-3.7595,-3.7595,-3.7595,-3.7595,-3.7595,-3.7595,-3.7595,-3.7595,-3.7595,-3.7595,-3.7595,-3.7595,-3.7595,-3.7595,-3.7595,-3.7595,-3.7595,-3.7595,-3.7595,-3.7595,-3.7595,-3.7595,-3.7595,-3.7595,-3.7595,-3.7595,-3.7595,-3.7666,-3.7809,-3.8487,-3.886,-2.6218,-2.7335,-2.768,-2.5639,-2.6041,-2.6749,-2.6061,-2.5717,-2.5522,-2.5522,-2.5522,-2.5968,-2.7464,-2.7845,-2.8886,-3.1786,-3.4347,-3.7006,-4.0021,-4.138,-4.3004,-4.555,-4.5895,-4.621,-4.6972,-4.6431,-4.6053,-4.6102,-4.5432,-4.5041,-4.5103,-4.4877,-4.4764,-4.4808,-4.4496,-4.4414,-4.4599,-4.4233,-4.4036,-4.4005,-4.4005,-4.4005,-4.4005,-4.4005,-4.4005,-4.402,0.0,-4.3679,-4.3594,-4.3051,-4.2808,-4.277,-4.2474,-4.2391,-4.243,-4.2371,-4.2351,-4.2369,-4.2308,-4.177,-4.0967,-4.0144,-3.9395,-3.8647,-3.7845,-3.7595,-3.7595,-3.7595,-3.7595,-3.7595,-3.7595,-3.7595,-3.7595,-3.7595,-3.7595,-3.7595,-3.7595,-3.7595,-3.7595,-3.7595,-3.7595,-3.7595,-3.7595,-3.7595,-3.7595,-3.7595,-3.7595,-3.7595,-3.7595,-3.7595,-3.7595,-3.7595,-3.7595,-3.7595,-3.7595,-3.7595,-3.7595,-3.7595,-3.7595,-3.7595,-3.7595,-3.7595,-3.7595,-3.7595,-3.7595,-3.7595,-3.7595,-3.7595,-3.7951,-3.8629,-3.8754,-3.9128,-2.4723,-2.5504,-2.6098,-2.5856,-2.7352,-2.869,-2.7873,-2.7697,-2.7697,-2.7697,-2.7697,-2.8059,-2.9229,-2.9805,-3.118,-3.4469,-3.6763,-3.8898,-4.1036,-4.2069,-4.3216,-4.4894,0.0,-4.5109,-4.556,-4.5227,-4.5012,-4.5082,-4.4853,-4.4725,-4.4802,-4.4712,-4.4685,-4.4732,-4.4454,-4.4314,-4.4358,-4.4113,-4.4005,-4.4005,-4.4005,-4.4005,-4.4005,-4.4005,-4.4005,-4.3989,0.0,-4.3529,-4.3339,-4.2902,-4.2614,-4.2454,-4.2348,-4.2308,-4.2308,-4.2308,-4.2308,-4.2308,-4.2308,-4.2055,-4.1538,-4.0287,-3.9663,-3.9182,-3.7951,-3.7595,-3.7595,-3.7595,-3.7595,-3.7595,-3.7595,-3.7595,-3.7595,-3.7595,-3.7595,-3.7595,-3.7595,-3.7595,-3.7595,-3.7595,-3.7595,-3.7595,-3.7595,-3.7595,-3.7595,-3.7595,-3.7595,-3.7595,-3.7595,-3.7595,-3.7595,-3.7595,-3.7595,-3.7595,-3.7595,-3.7595,-3.7595,-3.7595,-3.7595,-3.7595,-3.7595,-3.7595,-3.7595,-3.7595,-3.7595,-3.7809,-3.8255,-3.8255,-3.8647,-3.9395,-3.9843,-4.0217,-2.3731,-2.4259,-2.5113,-2.6553,-2.8319,-2.9768,-2.9935,-2.9657,-2.9564,-3.0121,-3.0233,-3.0363,-3.079,-3.1868,-3.3615,-3.6513,-3.8547,-4.0309,-4.1829,-4.2786,-4.3596,-4.4341,-4.4314,-4.4237,-4.431,-4.43,-4.43,-4.4368,-4.4496,-4.4605,-4.4699,-4.4605,-4.4592,-4.4672,-4.4383,-4.424,-4.4289,-4.4082,-4.4005,-4.4005,-4.3819,-4.3819,-4.3986,-4.3801,-4.3819,-4.3989,-4.3647,-4.3391,-4.316,-4.2768,-4.2474,-4.2308,-4.2308,-4.2308,-4.2308,-4.2308,-4.2308,-4.2308,-4.2308,-4.2308,-4.2076,-4.0646,-4.0037,-3.9645,-3.829,-3.7755,-3.7595,-3.7595,-3.7595,-3.7595,-3.7595,-3.7595,-3.7595,-3.7595,-3.7595,-3.7595,-3.7595,-3.7595,-3.7595,-3.7595,-3.7595,-3.7595,-3.7595,-3.7595,-3.7595,-3.7595,-3.7595,-3.7595,-3.7595,-3.7595,-3.7595,-3.7595,-3.7595,-3.7595,-3.7595,-3.7595,-3.7595,-3.7595,-3.7595,-3.7595,-3.7595,-3.7595,-3.7595,-3.7595,-3.7791,-3.8183,-3.8808,-3.8967,-3.9431,-4.0199,-4.0806,-4.1199,-2.5308,-2.5578,-2.5819,-2.6684,-2.7037,-2.7947,-3.0957,-3.0474,-3.0028,-3.2277,-3.2741,-3.2537,-3.1849,-3.3652,-3.5807,-3.7522,-3.9858,-4.1746,-4.2675,-4.3468,-4.4011,-4.4214,-4.4101,-4.402,-4.4036,-4.4135,-4.4244,-4.43,-4.443,-4.4551,-4.4699,-4.4524,-4.4468,-4.4605,-4.4233,-4.4085,-4.4199,-4.407,-4.4005,-4.3986,-4.3243,-4.328,-4.3968,-4.3225,-4.328,-4.3974,-4.3443,-4.3233,-4.3142,-4.2571,-4.2328,-4.2308,-4.2308,-4.2308,-4.2308,-4.2308,-4.2308,-4.2308,-4.2308,-4.2308,-4.2165,-4.1288,-4.0521,-3.9734,-3.8949,-3.8183,-3.7595,-3.7595,-3.7595,-3.7595,-3.7595,-3.7595,-3.7595,-3.7595,-3.7595,-3.7595,-3.7595,-3.7595,-3.7595,-3.7595,-3.7595,-3.7595,-3.7595,-3.7595,-3.7595,-3.7595,-3.7595,-3.7595,-3.7595,-3.7595,-3.7595,-3.7595,-3.7595,-3.7595,-3.7595,-3.7595,-3.7595,-3.7595,-3.7595,-3.7595,-3.7595,-3.7595,-3.7595,-3.7595,-3.8326,-3.8754,-3.8808,-3.9484,-4.0216,-4.102,-4.1074,-4.1502,-2.3331,-2.4156,-2.5392,-2.7204,-2.804,-2.9043,-3.1292,-3.2518,-3.3596,-3.5008,-3.5293,-3.5064,-3.4246,-3.5287,-3.6606,-3.7708,-3.9974,-4.1883,-4.2713,-4.35,-4.402,-4.407,-4.402,-4.4005,-4.4005,-4.4055,-4.4085,-4.4116,-4.424,-4.4134,-4.3671,-4.3539,-4.3268,-4.2875,-4.2634,-4.2534,-4.2579,-4.2534,-4.25,-4.25,-4.2705,-4.2705,-4.25,-4.2184,-4.2128,-4.2232,-4.1855,-4.1613,-4.147,-4.152,-4.1538,-4.1591,-4.2091,-4.2308,-4.2308,-4.2308,-4.2308,-4.2308,-4.2308,-4.2308,-4.2183,-4.1359,-4.0556,-3.9752,-3.9003,-3.8237,-3.7595,-3.7595,-3.7595,-3.7595,-3.7595,-3.7595,-3.7595,-3.7595,-3.7595,-3.7595,-3.7595,-3.7595,-3.7595,-3.7595,-3.7595,-3.7595,-3.7595,-3.7595,-3.7595,-3.7595,-3.8023,-3.8344,-3.8344,-3.8754,-3.904,-3.904,-3.904,-3.904,-3.904,-3.904,-3.904,-3.904,-3.813,-3.7827,-3.8326,-3.8344,-3.8558,-3.9022,-3.9343,-3.9736,-4.0235,-4.0521,-4.1056,-4.1841,-4.1841,-4.2002,-2.2516,-2.3609,-2.5336,-2.7241,-2.8951,-3.0586,-3.2184,-3.3893,-3.564,-3.7498,-3.7665,-3.7206,-3.642,-3.6718,-3.7336,-3.8154,-3.9918,-4.1497,-4.2314,-4.289,-4.3243,-4.3243,-4.3243,-4.3243,-4.3243,-4.3243,-4.3243,-4.3243,-4.3338,-4.3185,-4.2656,-4.2565,-4.229,-4.1829,-4.1659,-4.159,-4.159,-4.159,-4.146,-4.1219,-4.1776,-4.1887,-4.159,-4.133,-4.1211,-4.1183,-4.0906,-4.0651,-4.0419,-4.0639,-4.0877,-4.1145,-4.1698,-4.2073,-4.2308,-4.2308,-4.2308,-4.2308,-4.2308,-4.2308,-4.2218,-4.1645,-4.077,-3.9805,-3.9288,-3.8415,-3.7595,-3.7595,-3.7595,-3.7595,-3.7595,-3.7595,-3.7595,-3.7595,-3.7595,-3.7595,-3.7595,-3.7809,-3.7969,-3.7969,-3.8165,-3.8326,-3.8326,-3.8326,-3.8326,-3.8326,-3.879,-3.9146,-3.9146,-3.9591,-3.9895,-3.9895,-3.9895,-3.9895,-3.9895,-3.9895,-3.9895,-3.9895,-3.8915,-3.8576,-3.911,-3.9146,-3.9377,-3.9877,-4.0164,-4.0556,-4.1092,-4.1341,-4.1752,-4.2308,-4.2308,-4.2308,-2.3638,-2.4426,-2.5912,-2.6721,-2.9396,-3.2258,-3.3863,-3.4284,-3.5491,-3.9561,-3.9677,-3.8841,-3.8042,-3.7894,-3.8154,-3.8952,-3.9825,-4.0694,-4.1479,-4.159,-4.159,-4.159,-4.159,-4.159,-4.159,-4.159,-4.159,-4.159,-4.1659,-4.1712,-4.1777,-4.1726,-4.1712,-4.1759,-4.164,-4.1571,-4.1571,-4.1571,-4.1181,-4.0383,-4.0383,-4.0791,-4.1553,-4.0736,-4.0674,-4.1164,-4.0888,-4.0615,-4.0347,-4.0012,-4.036,-4.1092,-4.1092,-4.1573,-4.2308,-4.2308,-4.2308,-4.2308,-4.2308,-4.2308,-4.2308,-4.2308,-4.1199,-3.9895,-3.9877,-3.8826,-3.7595,-3.7595,-3.7613,-3.7613,-3.7613,-3.7631,-3.7631,-3.7613,-3.7613,-3.7613,-3.7631,-3.8255,-3.8826,-3.8826,-3.9395,-3.9895,-3.9895,-3.9895,-3.9895,-3.9895,-3.9895,-3.9912,-3.9912,-3.9912,-3.9912,-3.9912,-3.9912,-3.9912,-3.9912,-3.9912,-3.9912,-3.9912,-3.9912,-3.9912,-3.9895,-3.9895,-3.9912,-3.9912,-4.0717,-4.1109,-4.1109,-4.1895,-4.2308,-4.2308,-4.2308,-4.2308,-2.2646,-2.3999,-2.6191,-2.8152,-3.1087,-3.4067,-3.6296,-3.6829,-3.7336,-3.912,-3.8822,-3.8172,-3.7931,-3.7894,-3.7968,-3.8209,-3.9454,-4.0476,-4.0717,-4.1237,-4.159,-4.159,-4.159,-4.159,-4.159,-4.159,-4.159,-4.159,-4.1619,-4.1388,-4.0826,-4.0793,-4.0514,-3.9914,-3.9854,-3.9844,-3.9844,-3.9844,-3.9714,-3.9491,-3.9491,-3.9602,-3.9825,-3.9584,-3.9401,-3.9223,-3.9142,-3.8843,-3.8473,-3.8935,-3.9556,-4.0271,-4.0271,-4.0753,-4.1448,-4.1448,-4.1805,-4.2308,-4.2308,-4.2308,-4.2218,-4.1627,-4.0753,-3.9788,-3.927,-3.8415,-3.7595,-3.7595,-3.8005,-3.8433,-3.8433,-3.8826,-3.9093,-3.8576,-3.8433,-3.8594,-3.9111,-3.9414,-3.9556,-3.9556,-3.9734,-3.9895,-3.9895,-3.9895,-3.9895,-3.9895,-4.0396,-4.0949,-4.152,-4.1591,-4.1591,-4.1591,-4.1591,-4.1591,-4.1591,-4.1591,-4.1591,-4.1591,-4.1591,-4.1324,-4.077,-4.0753,-4.1002,-4.1573,-4.1805,-4.193,-4.193,-4.2183,-4.2308,-4.2308,-4.2308,-4.2308,-2.3898,-2.5773,-2.8152,-3.0307,-3.2797,-3.5349,-3.7819,-3.8637,-3.8915,-3.9064,-3.899,-3.8785,-3.8432,-3.8377,-3.8377,-3.8377,-3.9212,-3.9881,-3.9881,-4.029,-4.0606,-4.0606,-4.0606,-4.0606,-4.0606,-4.0606,-4.0606,-4.0606,-4.0606,-4.0401,-3.99,-3.9881,-3.964,-3.912,-3.9101,-3.9101,-3.9101,-3.9101,-3.9101,-3.9101,-3.9101,-3.9059,-3.8974,-3.8974,-3.877,-3.8382,-3.817,-3.7897,-3.7648,-3.8112,-3.8772,-3.9449,-3.9449,-3.993,-4.0628,-4.0628,-4.0931,-4.1341,-4.1341,-4.1341,-4.127,-4.0788,-4.011,-3.9377,-3.8914,-3.8237,-3.7595,-3.7595,-3.8183,-3.8808,-3.8808,-3.9342,-3.9788,-3.9342,-3.9235,-3.9342,-3.9788,-4.0164,-4.0396,-4.0396,-4.0646,-4.086,-4.086,-4.086,-4.086,-4.086,-4.127,-4.1752,-4.2254,-4.2308,-4.2308,-4.2308,-4.2308,-4.2308,-4.2308,-4.2308,-4.2308,-4.2308,-4.2308,-4.2073,-4.1591,-4.1573,-4.1787,-4.2308,-4.2308,-4.2308,-4.2308,-4.2308,-4.2308,-4.2308,-4.2308,-4.2308,-2.6256,-2.8486,-3.0809,-3.2648,-3.4488,-3.6402,-3.8599,-3.9714,-4.0062,-3.925,-3.9733,-4.003,-3.925,-3.9101,-3.9101,-3.9101,-3.9101,-3.9101,-3.9101,-3.9101,-3.9101,-3.9101,-3.9101,-3.9101,-3.9101,-3.9101,-3.9101,-3.9101,-3.9101,-3.9101,-3.9101,-3.9101,-3.9101,-3.9101,-3.9101,-3.9101,-3.9101,-3.9101,-3.9101,-3.9101,-3.9101,-3.8989,-3.8807,-3.8807,-3.8637,-3.8334,-3.781,-3.7595,-3.7595,-3.7595,-3.8023,-3.8701,-3.8701,-3.9165,-3.9788,-3.9788,-3.9841,-3.9895,-3.9895,-3.9895,-3.9877,-3.9805,-3.9342,-3.879,-3.8719,-3.8183,-3.7595,-3.7595,-3.8219,-3.8896,-3.8896,-3.9502,-4.0109,-4.0109,-4.0055,-4.0019,-4.0091,-4.0699,-4.1217,-4.1217,-4.1787,-4.2308,-4.2308,-4.2308,-4.2308,-4.2308,-4.2308,-4.2308,-4.2308,-4.2308,-4.2308,-4.2308,-4.2308,-4.2308,-4.2308,-4.2308,-4.2308,-4.2308,-4.2308,-4.2308,-4.2308,-4.2308,-4.2308,-4.2308,-4.2308,-4.2308,-4.2308,-4.2308,-4.2308,-4.2308,-4.2308,-4.2343,-2.4732,-2.6795,-2.9489,-3.3045,-3.6147,-3.8451,-3.8971,-3.925,-3.9324,-3.9138,-3.925,-3.9324,-3.912,-3.9101,-3.9101,-3.9101,-3.9101,-3.9101,-3.9101,-3.9101,-3.9101,-3.9101,-3.9101,-3.9101,-3.9101,-3.9101,-3.9101,-3.9101,-3.9101,-3.9101,-3.9101,-3.9101,-3.9101,-3.9101,-3.9101,-3.9101,-3.9101,-3.9101,-3.9101,0.0,-3.9101,-3.8989,-3.8807,-3.8807,-3.8544,-3.8069,-3.7739,-3.7595,-3.7595,-3.7595,-3.7702,-3.7863,-3.7863,-3.8344,-3.9039,-3.9039,-3.9395,-3.9895,-3.9895,-3.9895,-3.9788,-3.9217,-3.8914,-3.8683,-3.8041,-3.7738,-3.7595,-3.7595,-3.8594,-3.9645,-3.9645,-4.0717,-4.177,-4.177,-4.1306,-4.1002,-4.1645,-4.1912,-4.2037,-4.2037,-4.2183,-4.2308,-4.2308,-4.2308,-4.2308,-4.2308,-4.2308,-4.2308,-4.2308,-4.2308,-4.2308,-4.2308,-4.2308,-4.2308,-4.2308,-4.2308,-4.2308,-4.2308,-4.2308,-4.2308,-4.2308,-4.2308,-4.2308,-4.2308,-4.2308,-4.2308,-4.2308,-4.2308,-4.2308,-4.2308,-4.2308,-4.2626,-2.4621,-2.713,-3.0196,-3.3912,-3.6686,-3.8525,-3.8525,-3.8822,-3.9101,-3.9101,-3.9101,-3.9101,-3.9101,-3.9101,-3.9101,-3.9101,-3.9101,-3.9101,-3.9101,-3.9101,-3.9101,-3.9101,-3.9101,-3.9101,-3.9101,-3.9101,-3.9101,-3.9101,-3.9101,-3.9101,-3.9101,-3.9101,-3.9101,-3.9101,-3.9101,-3.9101,-3.9101,-3.9101,-3.9101,-3.9101,-3.9101,-3.8931,-3.8606,-3.8481,-3.8203,-3.781,-3.7649,-3.7595,-3.7595,-3.7595,-3.7595,-3.7595,-3.7595,-3.7863,-3.8219,-3.8219,-3.8469,-3.879,-3.879,-3.879,-3.8736,-3.8344,-3.8219,-3.8148,-3.7738,-3.7595,-3.7684,-3.8058,-3.9022,-3.9984,-4.0378,-4.1377,-4.2308,-4.2308,-4.1966,-4.1787,-4.2218,-4.2308,-4.2308,-4.2308,-4.2308,-4.2308,-4.2308,-4.2308,-4.2308,-4.2308,-4.2308,-4.2308,-4.2308,-4.2308,-4.2308,-4.2308,-4.2308,-4.2308,-4.2308,-4.2308,-4.2308,-4.2308,-4.2308,-4.2308,-4.2308,-4.2308,-4.2308,-4.2308,-4.2308,-4.2308,-4.2308,-4.2308,-4.2308,-4.2308,-4.2697,-4.3108,-2.464,-2.7984,-3.1533,-3.4525,-3.6495,-3.7689,-3.7689,-3.8321,-3.8897,-3.8897,-3.9008,-3.9101,-3.9101,-3.9101,-3.9101,-3.9101,-3.9101,-3.9101,-3.9101,-3.9101,-3.9101,-3.9101,-3.9101,-3.9101,-3.9101,-3.9101,-3.9101,-3.9101,-3.9101,-3.9101,-3.9101,-3.9101,-3.9101,-3.9101,-3.9101,-3.9101,-3.9101,-3.9101,-3.9101,-3.9101,-3.9031,-3.8785,-3.8382,-3.8069,-3.781,-3.7595,-3.7595,-3.7595,-3.7595,-3.7595,-3.7595,-3.7595,-3.7595,-3.7595,-3.7595,-3.7595,-3.7595,-3.7595,-3.7595,-3.7595,-3.7595,-3.7595,-3.7595,-3.7595,-3.7595,-3.7702,-3.7952,-3.8611,-3.9432,-4.0271,-4.0931,-4.1698,-4.2308,-4.2308,-4.2308,-4.2308,-4.2308,-4.2308,-4.2308,-4.2308,-4.2308,-4.2308,-4.2308,-4.2308,-4.2308,-4.2308,-4.2308,-4.2308,-4.2308,-4.2308,-4.2308,-4.2308,-4.2308,-4.2308,-4.2308,-4.2308,-4.2308,-4.2308,-4.2308,-4.2308,-4.2308,-4.2308,-4.2308,-4.2308,-4.2308,-4.2308,-4.2308,-4.2308,-4.2358,-4.2519,-4.3197,-4.3622,-2.3073,-2.751,-3.2072,-3.393,-3.5627,-3.6866,-3.6866,-3.7466,-3.8061,-3.8061,-3.8599,-3.9101,-3.9101,-3.9101,-3.9101,-3.9101,-3.9101,-3.9101,-3.9101,-3.9101,-3.9101,-3.9101,-3.9101,-3.9101,-3.9101,-3.9101,-3.9101,-3.9101,-3.9101,-3.9101,-3.9101,-3.9101,-3.9101,-3.9101,-3.9101,-3.9101,-3.9101,-3.9101,-3.9101,-3.9101,-3.8695,-3.8462,-3.8382,-3.788,-3.7631,-3.7595,-3.7595,-3.7595,-3.7595,-3.7595,-3.7595,-3.7595,-3.7595,-3.7595,-3.7595,-3.7595,-3.7595,-3.7595,-3.7595,-3.7595,-3.7595,-3.7595,-3.7595,-3.7595,-3.7595,-3.8076,-3.8665,-3.8772,-3.9843,-4.0967,-4.1074,-4.1698,-4.2308,-4.2308,-4.2308,-4.2308,-4.2308,-4.2308,-4.2308,-4.2308,-4.2308,-4.2308,-4.2308,-4.2308,-4.2308,-4.2308,-4.2308,-4.2308,-4.2308,-4.2308,-4.2308,-4.2308,-4.2308,-4.2308,-4.2308,-4.2308,-4.2308,-4.2308,-4.2308,-4.2308,-4.2308,-4.2308,-4.2308,-4.2308,-4.2308,-4.2308,-4.2308,-4.2308,-4.2662,-4.3358,-4.3465,-4.4232,-2.4464,-2.7454,-3.0344,-3.2878,-3.442,-3.5436,-3.5919,-3.6662,-3.7225,-3.7225,-3.7503,-3.7894,-3.8339,-3.8432,-3.8284,-3.7819,-3.7764,-3.7764,-3.7764,-3.7764,-3.7764,-3.7764,-3.7764,-3.7764,-3.7764,-3.7764,-3.7764,-3.7764,-3.7764,-3.7764,-3.7764,-3.7764,-3.7949,-3.8414,-3.8432,-3.8637,-3.9101,-3.9101,-3.9045,-3.8935,-3.8572,-3.8318,-3.817,-3.7775,-3.7595,-3.7595,-3.7595,-3.7595,-3.7595,-3.7595,-3.7595,-3.7595,-3.7595,-3.7595,-3.7595,-3.7595,-3.7595,-3.7595,-3.7595,-3.7595,-3.7595,-3.7595,-3.7898,-3.8272,-3.8272,-3.8808,-3.9502,-3.9968,-4.0574,-4.1199,-4.1645,-4.2019,-4.2308,-4.2308,-4.2308,-4.2308,-4.2308,-4.2308,-4.2308,-4.2308,-4.2308,-4.2308,-4.2308,-4.2308,-4.2308,-4.2308,-4.2308,-4.2308,-4.2308,-4.2308,-4.2308,-4.2308,-4.2308,-4.2308,-4.2308,-4.2715,-4.2965,-4.2965,-4.3358,-4.359,-4.359,-4.359,-4.359,-4.359,-4.3179,-4.2965,-4.2965,-4.3393,-4.3786,-4.4121,-4.4589,-4.516,-2.4705,-2.6405,-2.7929,-3.0995,-3.2674,-3.3807,-3.4674,-3.5826,-3.6643,-3.6439,-3.6705,-3.7058,-3.7257,-3.7448,-3.7392,-3.6811,-3.6699,-3.6699,-3.6699,-3.6699,-3.6699,-3.6699,-3.6699,-3.6699,-3.6699,-3.6699,-3.6699,-3.6699,-3.6699,-3.6699,-3.6699,-3.6904,-3.7294,-3.7875,-3.8098,-3.8488,-3.9082,-3.9101,-3.8989,-3.8807,-3.8544,-3.8252,-3.7984,-3.7721,-3.7595,-3.7595,-3.7595,-3.7595,-3.7595,-3.7595,-3.7595,-3.7595,-3.7595,-3.7595,-3.7595,-3.7595,-3.7595,-3.7595,-3.7595,-3.7595,-3.7631,-3.7845,-3.8308,-3.8825,-3.9003,-3.9611,-4.0342,-4.0931,-4.1252,-4.1538,-4.2126,-4.2308,-4.2308,-4.2308,-4.2308,-4.2308,-4.2308,-4.2308,-4.2308,-4.2308,-4.2308,-4.2308,-4.2308,-4.2308,-4.2308,-4.2308,-4.2308,-4.2308,-4.2308,-4.2308,-4.2397,-4.2573,-4.259,-4.268,-4.2858,-4.3429,-4.3765,-4.3765,-4.43,-4.4603,-4.4603,-4.4603,-4.4603,-4.4603,-4.4246,-4.3961,-4.3765,-4.4317,-4.4692,-4.4906,-4.5517,-4.5909,-2.1773,-2.3442,-2.528,-2.7743,-3.0158,-3.2147,-3.2946,-3.499,-3.6495,-3.5714,-3.6779,-3.7373,-3.59,-3.6253,-3.6742,-3.6718,-3.6699,-3.6699,-3.6699,-3.6699,-3.6699,-3.6699,-3.6699,-3.6699,-3.6699,-3.6699,-3.6699,-3.6699,-3.6699,-3.6699,-3.6699,-3.7411,-3.7856,-3.7894,-3.8637,-3.9064,-3.9101,-3.9101,-3.8989,-3.8807,-3.8544,-3.8252,-3.7984,-3.7721,-3.7595,-3.7595,-3.7595,-3.7595,-3.7595,-3.7595,-3.7595,-3.7595,-3.7595,-3.7595,-3.7595,-3.7595,-3.7595,-3.7595,-3.7595,-3.7595,-3.7738,-3.8487,-3.8772,-3.8914,-3.9627,-4.0414,-4.1056,-4.1092,-4.1645,-4.2254,-4.2308,-4.2308,-4.2308,-4.2308,-4.2308,-4.2308,-4.2308,-4.2308,-4.2308,-4.2308,-4.2308,-4.2308,-4.2308,-4.2308,-4.2308,-4.2308,-4.2308,-4.2308,-4.2308,-4.2308,-4.259,-4.3375,-4.3426,-4.3711,-4.4407,-4.4514,-4.4531,-4.4531,-4.4567,-4.4603,-4.4603,-4.4603,-4.4603,-4.4603,-4.532,-4.5302,-4.4531,-4.4567,-4.4999,-4.5749,-4.5784,-4.6212,-2.1551,-2.245,-2.3498,-2.594,-2.8003,-2.9657,-3.0493,-3.2574,-3.4395,-3.4606,-3.5566,-3.6346,-3.629,-3.6086,-3.5751,-3.5194,-3.5089,-3.5089,-3.5089,-3.5089,-3.5051,-3.4911,-3.5013,-3.5039,-3.4911,-3.4897,-3.5119,-3.5623,-3.5519,-3.5712,-3.6417,-3.6713,-3.7188,-3.7875,-3.8172,-3.8581,-3.9082,-3.896,-3.877,-3.8544,-3.8269,-3.8001,-3.7739,-3.7631,-3.7595,-3.7613,-3.7792,-3.7757,-3.7595,-3.7595,-3.7595,-3.7595,-3.7595,-3.7595,-3.7595,-3.7595,-3.7595,-3.7595,-3.7595,-3.7933,-3.8415,-3.8719,-3.9468,-4.0324,-4.0592,-4.1234,-4.1859,-4.1859,-4.2073,-4.2308,-4.2308,-4.2308,-4.2308,-4.2308,-4.2308,-4.2308,-4.2308,-4.2308,-4.2308,-4.2308,-4.2308,-4.2308,-4.2308,-4.2308,-4.2308,-4.2308,-4.2733,-4.3072,-4.3072,-4.3483,-4.3893,-4.4175,-4.421,-4.43,-4.4567,-4.5066,-4.5374,-4.5374,-4.5856,-4.6141,-4.6141,-4.6141,-4.6141,-4.6141,-4.6409,-4.6177,-4.5374,-4.5891,-4.6284,-4.6569,-4.6569,-4.6712,-2.0901,-2.1384,-2.219,-2.4677,-2.6089,-2.739,-2.9359,-3.1255,-3.2834,-3.3621,-3.4711,-3.5566,-3.5813,-3.5659,-3.5398,-3.5101,-3.5033,-3.5033,-3.5033,-3.5033,-3.4958,-3.4731,-3.4824,-3.4824,-3.4578,-3.4582,-3.4789,-3.5339,-3.5195,0.0,-3.6127,-3.6435,-3.7084,-3.8174,-3.8275,-3.8535,-3.8989,-3.8862,-3.8621,-3.8269,-3.8086,-3.7845,-3.7595,-3.7595,-3.7595,-3.7613,-3.7792,-3.7828,-3.7739,-3.7739,-3.7739,-3.7721,-3.7631,-3.7595,-3.7595,-3.7595,-3.7595,-3.7595,-3.7595,-3.813,-3.8825,-3.9074,-4.0057,-4.1145,-4.1413,-4.1877,-4.2308,-4.2308,-4.2308,-4.2308,-4.2308,-4.2308,-4.2308,-4.2308,-4.2308,-4.2308,-4.2308,-4.2308,-4.2308,-4.2308,-4.2308,-4.2308,-4.2308,-4.2519,-4.2697,-4.2697,-4.3375,-4.3854,-4.3854,-4.43,-4.4692,-4.4959,-4.4995,-4.5124,-4.5392,-4.5659,-4.5927,-4.6195,-4.6444,-4.6712,-4.698,-4.6998,-4.6998,-4.6998,-4.6998,-4.673,-4.6195,-4.673,-4.6998,-4.6998,-4.6998,-4.6855,0.0,0.0,0.0,-2.3748,-2.4388,-2.5466,-2.9434,-3.1013,-3.1868,-3.2723,-3.4228,-3.5157,-3.4383,-3.4952,-3.5789,-3.6569,-3.6699,-3.6699,-3.6699,-3.6699,-3.6607,-3.6306,-3.6311,-3.6193,-3.5909,-3.5894,-3.5912,-3.593,-3.5915,-3.5933,-3.5967,-3.6711,-3.7653,-3.8755,-3.8974,-3.8989,-3.8807,-3.8773,-3.8528,-3.8001,-3.7984,-3.7845,-3.7577,-3.7595,-3.7595,-3.7577,-3.7595,-3.7757,-3.8001,-3.7984,-3.7984,-3.7966,-3.7703,-3.7595,-3.7595,-3.7595,-3.7595,-3.7595,-3.7595,-3.813,-3.8949,-3.9663,-4.0467,-4.1288,-4.2055,-4.2308,-4.2308,-4.2308,-4.2308,-4.2308,-4.2308,-4.2308,-4.2308,-4.2308,-4.2308,-4.2308,-4.2308,-4.2325,-4.2343,-4.2308,-4.2325,-4.2343,-4.2343,-4.3001,-4.3515,-4.3515,-4.4157,-4.4621,-4.4603,-4.4621,-4.4924,-4.5731,-4.5802,-4.6123,-4.689,-4.6248,-4.6123,-4.6908,-4.623,-4.6159,-4.6926,-4.6962,-4.6944,-4.6926,-4.6944,-4.6962,-4.6962,-4.698,-4.6998,-4.6998,-4.6962,-4.6534,-1.9536,0.0,0.0,0.0,0.0,0.0,-2.4121,-2.5931,-2.7966,-2.9973,-3.1682,-3.3299,-3.486,-3.5807,-3.6439,-3.6649,-3.6699,-3.6699,-3.6699,-3.6699,-3.6554,-3.6124,-3.6211,-3.6135,-3.5729,-3.5682,-3.5917,0.0,-3.6385,-3.6602,-3.738,-3.7812,-3.8272,-3.8773,-3.8664,-3.8649,-3.8807,-3.8415,-3.8153,-3.8001,-3.7792,-3.7363,-3.6738,-3.7345,-3.7291,-3.6774,-3.7541,-3.7932,-3.7984,-3.7792,-3.781,-3.7966,-3.7703,-3.7595,-3.7595,-3.7595,-3.7595,-3.7595,-3.7595,-3.8469,-3.9627,-3.9823,-4.0842,-4.2002,-4.2236,-4.2308,-4.2308,-4.2308,-4.2308,-4.2308,-4.2308,-4.2308,-4.2308,-4.2308,-4.2308,-4.2308,-4.2308,-4.2751,-4.3001,-4.2394,-4.2769,-4.3179,-4.3179,-4.3782,-4.43,-4.43,-4.4942,-4.5267,-4.4656,-4.5124,-4.5552,-4.5784,-4.5802,-4.5891,-4.6105,-4.5927,-4.5891,-4.6123,-4.5927,-4.5909,-4.6123,-4.6123,-4.5856,-4.5285,-4.5838,-4.6123,-4.6123,-4.6712,-4.6998,-4.7002,-4.6391,-4.5713,-2.0196,-2.0259,-2.0626,-2.1012,0.0,0.0,-2.3229,-2.4398,-2.5894,0.0,-3.0158,-3.1738,-3.3187,-3.4395,-3.5256,-3.559,-3.5974,-3.6328,-3.6662,-3.6699,-3.6638,-3.6492,-3.6555,-3.6577,-3.6443,-3.6428,-3.6625,-3.7092,-3.6988,-3.7166,-3.7792,-3.8186,-3.8415,-3.8462,-3.8525,-3.8525,-3.8462,-3.8153,-3.7932,-3.7827,-3.7667,-3.7363,-3.6916,-3.7398,-3.7345,-3.6934,-3.7559,-3.7915,-3.7984,-3.7721,-3.7757,-3.7966,-3.7703,-3.7595,-3.7595,-3.7595,-3.7595,-3.7595,-3.7595,-3.8611,-3.9895,-3.9895,-4.0985,-4.2308,-4.2308,-4.2308,-4.2308,-4.2308,-4.2308,-4.2308,-4.2308,-4.2308,-4.2308,-4.2308,-4.2308,-4.2376,-4.2733,-4.3179,-4.3375,-4.2894,-4.3429,-4.3961,-4.3961,-4.4585,-4.5084,-4.5084,-4.5784,-4.6123,-4.5659,-4.6016,-4.6302,-4.6302,-4.6302,-4.6302,-4.6302,-4.5695,-4.5588,-4.6266,-4.5374,-4.5285,-4.6266,-4.5659,-4.5249,-4.5084,-4.5231,-4.5302,-4.5302,-4.6444,-4.6819,-4.6462,-4.5356,-4.4607,-2.1401,-2.1594,-2.2396,-2.2943,-2.2126,0.0,-2.4435,-2.4611,-2.4825,0.0,-2.869,-2.9842,-3.001,-3.1366,-3.2704,-3.3398,-3.4395,-3.5473,-3.6551,-3.6673,-3.6754,-3.6982,-3.6981,-3.7049,-3.7363,-3.7363,-3.7345,-3.7345,-3.7345,-3.7345,-3.7345,-3.7871,-3.8092,-3.7874,-3.8394,-3.8446,-3.8001,-3.7966,-3.7845,-3.7595,-3.7595,-3.7559,-3.747,-3.7559,-3.7559,-3.747,-3.7559,-3.7739,-3.7932,-3.7703,-3.7757,-3.7966,-3.7703,-3.7595,-3.7595,-3.7595,-3.7595,-3.7613,-3.7702,-3.8683,-3.9912,-3.9984,-4.1056,-4.2308,-4.2308,-4.2308,-4.2308,-4.2308,-4.2308,-4.2308,-4.2308,-4.2308,-4.2308,-4.2308,-4.2308,-4.2519,-4.334,-4.3551,-4.364,-4.375,-4.4264,-4.4728,-4.4728,-4.541,-4.5927,-4.5927,-4.6534,-4.6962,-4.6873,-4.6855,-4.6855,-4.6855,-4.6783,-4.673,-4.673,-4.5356,-4.5124,-4.6641,-4.4785,-4.4571,-4.6641,-4.5374,-4.4874,-4.541,-4.4803,-4.4514,-4.4603,-4.6034,-4.632,-4.5517,-4.4143,-4.3444,-2.2889,-2.3231,-2.359,-2.25,-2.3015,0.0,-2.125,-2.167,-2.2617,0.0,-2.3972,-2.5049,-2.6405,-2.7966,-2.9118,-2.9266,-3.1106,-3.3503,-3.6309,-3.6554,-3.6459,-3.6456,-3.6115,-3.5923,-3.5989,-3.5788,-3.5685,-3.5685,-3.5685,-3.5685,-3.5685,-3.6379,-3.6875,-3.7044,-3.7538,-3.788,-3.8001,-3.7792,-3.7649,-3.7595,-3.7595,-3.7274,-3.6649,-3.7309,-3.7256,-3.6667,-3.7327,-3.7631,-3.7667,-3.7613,-3.7757,-3.7966,-3.7703,-3.7595,-3.7595,-3.7595,-3.7595,-3.7702,-3.8344,-3.9165,-4.0002,-4.0663,-4.152,-4.2308,-4.2308,-4.2308,-4.2308,-4.2308,-4.2308,-4.2308,-4.2308,-4.2308,-4.2308,-4.2308,-4.2308,-4.2519,-4.334,-4.3961,-4.4567,-4.5231,-4.5481,-4.557,-4.557,-4.623,-4.6766,-4.6766,-4.689,-4.6766,-4.6123,-4.6034,-4.6034,-4.6034,-4.5463,-4.5066,-4.5066,-4.4228,-4.4086,-4.4995,-4.4638,-4.4585,-4.5049,-4.4763,-4.4089,-4.2983,-4.3465,-4.3996,-4.4603,-4.4906,-4.4696,-4.3946,-4.3622,-4.3161,-2.4137,-2.4311,-2.4774,-2.4038,-2.4175,0.0,0.0,-2.2022,-2.2349,-2.3591,-2.3508,-2.3712,-2.5383,-2.6349,-2.7037,-2.7445,-2.9248,-3.1032,-3.224,-3.3734,-3.4805,-3.5073,-3.4768,-3.4663,-3.4972,-3.5124,-3.5186,-3.5186,-3.5186,-3.5186,-3.5186,-3.5715,-3.5998,-3.5998,-3.677,-3.72,-3.72,-3.7471,-3.7595,-3.7595,-3.7595,-3.7398,-3.7006,-3.7416,-3.7381,-3.7006,-3.7434,-3.7595,-3.7595,-3.7595,-3.7685,-3.7792,-3.7649,-3.7595,-3.7595,-3.7595,-3.7595,-3.772,-3.8522,-3.927,-4.0019,-4.0842,-4.1645,-4.2308,-4.2308,-4.2308,-4.2308,-4.2308,-4.2308,-4.2308,-4.2308,-4.2308,-4.2308,-4.2308,-4.2308,-4.2608,-4.3782,-4.4335,-4.4942,-4.6159,-4.6391,-4.6391,-4.6391,-4.673,-4.6998,-4.6998,-4.6998,-4.6837,-4.6444,-4.6391,-4.6391,-4.6391,-4.6034,-4.5641,-4.5231,-4.4874,-4.4803,-4.5195,-4.4478,-4.4389,-4.5178,-4.4071,-4.309,-4.2325,-4.2697,-4.3072,-4.3447,-4.3447,-4.3483,-4.3479,-4.309,-4.268,-2.5864,-2.5985,-2.6625,-2.607,-2.5689,-2.5187,0.0,0.0,0.0,0.0,0.0,0.0,0.0,0.0,0.0,-2.5847,0.0,0.0,0.0,-2.9954,0.0,-3.2661,-3.2761,-3.2947,-3.3457,-3.3709,-3.4099,-3.4722,-3.4347,-3.4294,-3.474,-3.5117,-3.5205,-3.5007,-3.5961,-3.6463,-3.6399,-3.7023,-3.7452,-3.7595,-3.7595,-3.7595,-3.7595,-3.7595,-3.7595,-3.7595,-3.7595,-3.7595,-3.7595,-3.7595,-3.7595,-3.7595,-3.7595,-3.7595,-3.7595,-3.7595,-3.7595,-3.772,-3.8522,-3.927,-4.0019,-4.0842,-4.1645,-4.2308,-4.2308,-4.2308,-4.2308,-4.2308,-4.2308,-4.2308,-4.2308,-4.2308,-4.2308,-4.2308,-4.2308,-4.2715,-4.4264,-4.4603,-4.5088,-4.6676,-4.6998,-4.6998,-4.6998,-4.6998,-4.6998,-4.6998,-4.6998,-4.6926,-4.6783,-4.6766,-4.6766,-4.6766,-4.6623,-4.6266,-4.5624,-4.5445,-4.5374,-4.5374,-4.4196,-4.4071,-4.532,-4.3375,-4.2308,-4.2308,-4.2308,-4.2308,-4.2308,-4.2308,-4.2626,-4.3251,-4.259,-4.2308,-2.9075,-2.9762,-3.0246,-2.7453,-2.7798,-2.7687,-2.3285,0.0,-2.3878,-2.2672,0.0,0.0,0.0,0.0,0.0,0.0,0.0,0.0,-2.502,-2.6461,-2.7832,-2.8496,-2.9459,-3.008,-3.0216,-2.9474,-3.0139,-3.2953,-3.1225,-3.0975,-3.3061,-3.3862,-3.4273,-3.424,-3.4971,-3.572,-3.6381,-3.6488,-3.6881,-3.7595,-3.7595,-3.7595,-3.7595,-3.7595,-3.7595,-3.7595,-3.7595,-3.7595,-3.7595,-3.7595,-3.7595,-3.7595,-3.7595,-3.7595,-3.7595,-3.7595,-3.7595,-3.772,-3.8522,-3.927,-4.0019,-4.0842,-4.1645,-4.2308,-4.2308,-4.2308,-4.2308,-4.2308,-4.2308,-4.2308,-4.2308,-4.2308,-4.2308,-4.2308,-4.2308,-4.2715,-4.4264,-4.4603,-4.5088,-4.6676,-4.6998,-4.6998,-4.6998,-4.6998,-4.6998,-4.6998,-4.6998,-4.673,-4.6034,-4.5945,-4.5945,-4.5945,-4.5302,-4.4835,-4.4728,-4.4143,-4.3768,-4.3768,-4.3607,-4.359,-4.3747,-4.2822,-4.2308,-4.2308,-4.2308,-4.2308,-4.2308,-4.2308,-4.2361,-4.243,-4.2343,-4.2308,-2.8743,-2.9281,-2.9728,-2.7968,-2.8073,-2.7805,-2.4826,0.0,-2.3814,0.0,0.0,0.0,0.0,0.0,0.0,0.0,-2.3267,0.0,0.0,0.0,-2.5217,0.0,0.0,0.0,-2.8832,-2.8483,-2.9123,-3.1332,-2.9779,-2.9744,-3.2079,-3.2509,-3.292,-3.3384,-3.4169,-3.4722,-3.5061,-3.5489,-3.6114,-3.6899,-3.6899,-3.7149,-3.7595,-3.7595,-3.7595,-3.7595,-3.7595,-3.7595,-3.7595,-3.7595,-3.7595,-3.7595,-3.7595,-3.7595,-3.7595,-3.7595,-3.7595,-3.772,-3.8522,-3.927,-4.0109,-4.1377,-4.2019,-4.2308,-4.2308,-4.2308,-4.2308,-4.2308,-4.2308,-4.2308,-4.2308,-4.2308,-4.2308,-4.2308,-4.2662,-4.3304,-4.4353,-4.4981,-4.5641,-4.6766,-4.6998,-4.6998,-4.6998,-4.6998,-4.6998,-4.6998,-4.6998,-4.6712,-4.5909,-4.5802,-4.5802,-4.5802,-4.5088,-4.4603,-4.4603,-4.4317,-4.3961,-4.3515,-4.3497,-4.3497,-4.3497,-4.2733,-4.2715,-4.3625,-4.3215,-4.3215,-4.3643,-4.3643,-4.3643,-4.3625,-4.3197,-4.3001,-2.9118,0.0,0.0,0.0,0.0,0.0,0.0,0.0,0.0,0.0,0.0,0.0,0.0,0.0,-2.2248,-2.1994,0.0,-2.2245,0.0,-2.1615,0.0,0.0,0.0,0.0,0.0,-2.6708,-2.7192,-2.9387,0.0,-2.8124,-3.0921,-3.126,-3.1742,-3.2543,-3.3348,-3.3883,-3.4115,-3.4847,-3.5614,-3.6399,-3.6613,-3.7041,-3.7595,-3.7595,-3.7595,-3.7595,-3.7595,-3.7595,-3.7595,-3.7595,-3.7595,-3.7595,-3.7595,-3.7595,-3.7595,-3.7595,-3.7595,-3.7684,-3.8272,-3.9111,-4.0182,-4.177,-4.2308,-4.2308,-4.2308,-4.2308,-4.2308,-4.2308,-4.2308,-4.2308,-4.2308,-4.2308,-4.2361,-4.2573,-4.309,-4.3747,-4.471,-4.5392,-4.6034,-4.6837,-4.6998,-4.6926,-4.6712,-4.6659,-4.6659,-4.6659,-4.648,-4.6052,-4.5267,-4.5178,-4.5178,-4.5178,-4.4638,-4.43,-4.43,-4.43,-4.4068,-4.3515,-4.3675,-4.38,-4.38,-4.3251,-4.3465,-4.4567,-4.4068,-4.405,-4.4603,-4.4603,-4.4603,-4.4585,-4.405,-4.38,0.0,0.0,0.0,-2.8688,0.0,0.0,0.0,0.0,-2.6349,0.0,0.0,0.0,0.0,-2.3776,-2.2864,-2.1961,-2.1825,0.0,0.0,0.0,0.0,0.0,0.0,0.0,0.0,-2.276,-2.301,0.0,-2.495,0.0,-2.928,-3.0154,-3.0921,-3.1706,-3.2525,-3.3294,-3.4097,-3.4847,-3.5614,-3.6399,-3.7202,-3.7577,-3.7595,-3.7595,-3.7595,-3.7595,-3.7595,-3.7595,-3.7595,-3.7595,-3.7595,-3.7595,-3.7595,-3.7595,-3.7595,-3.7595,-3.7595,-3.7595,-3.7631,-3.8629,-4.0182,-4.177,-4.2308,-4.2308,-4.2308,-4.2308,-4.2308,-4.2308,-4.2308,-4.2308,-4.2308,-4.2308,-4.2483,-4.3286,-4.3479,-4.3929,-4.5427,-4.5784,-4.6034,-4.6837,-4.6998,-4.6748,-4.5963,-4.5838,-4.5838,-4.5838,-4.5195,-4.4407,-4.3658,-4.3568,-4.3568,-4.3568,-4.3533,-4.3533,-4.3533,-4.3533,-4.3515,-4.3497,-4.4157,-4.4549,-4.4549,-4.4531,-4.4549,-4.4603,-4.4567,-4.4567,-4.4603,-4.4603,-4.4603,-4.4603,-4.4567,-4.4549,0.0,0.0,-3.1879,-2.91,0.0,0.0,0.0,0.0,0.0,0.0,0.0,0.0,0.0,-2.3795,-2.3068,-2.2654,-2.1706,-2.0815,0.0,0.0,0.0,0.0,0.0,-2.19,0.0,0.0,0.0,0.0,-2.4748,0.0,0.0,-2.9801,-3.0868,-3.1671,-3.2489,-3.3025,-3.3311,-3.3544,-3.4329,-3.5614,-3.5882,-3.656,-3.7595,-3.7595,-3.7595,-3.7595,-3.7595,-3.7595,-3.7595,-3.7595,-3.7595,-3.7595,-3.7595,-3.7595,-3.7595,-3.7595,-3.7595,-3.7755,-3.8772,-3.9807,-4.0877,-4.1948,-4.2308,-4.2308,-4.2308,-4.2308,-4.2308,-4.2308,-4.2308,-4.2308,-4.2308,-4.2308,-4.2483,-4.3322,-4.3854,-4.4535,-4.557,-4.6212,-4.6659,-4.6944,-4.6569,-4.6123,-4.5856,-4.4963,-4.4446,-4.4924,-4.4763,-4.4317,-4.3586,-4.3497,-4.3497,-4.3497,-4.3497,-4.3693,-4.4175,-4.4228,-4.4228,-4.4228,-4.446,-4.4835,-4.5374,-4.487,-4.5084,-4.6159,-4.5677,-4.5659,-4.6195,-4.6195,-4.6195,-4.6195,-4.6195,-4.5909,-3.0866,-3.1462,0.0,-2.9685,-2.9386,0.0,-2.654,0.0,-2.6881,0.0,0.0,0.0,0.0,-2.4523,-2.3437,-2.3261,-2.1962,-2.0749,0.0,-1.9659,0.0,0.0,-2.0034,-2.0634,-2.0998,-2.0792,-2.1529,-2.3677,-2.3338,-2.4302,0.0,0.0,-3.0172,-3.1242,-3.2329,-3.29,-3.29,-3.3186,-3.383,-3.4812,-3.5364,-3.6167,-3.7166,-3.747,-3.7595,-3.7595,-3.7595,-3.7595,-3.7595,-3.7595,-3.7595,-3.7595,-3.7595,-3.7595,-3.7595,-3.7595,-3.7791,-3.8201,-3.9468,-4.0431,-4.1234,-4.2037,-4.2308,-4.2308,-4.2308,-4.2308,-4.2308,-4.2308,-4.2308,-4.2308,-4.2308,-4.2501,-4.2912,-4.3693,-4.446,-4.5267,-4.6052,-4.6623,-4.6908,-4.6623,-4.6159,-4.5624,-4.5088,-4.4178,-4.3658,-4.4139,-4.3982,-4.3607,-4.3126,-4.3322,-4.3497,-4.3497,-4.3729,-4.4068,-4.4549,-4.4852,-4.5013,-4.5013,-4.5302,-4.5695,-4.6212,-4.5731,-4.5945,-4.6962,-4.648,-4.648,-4.6998,-4.6998,-4.6998,-4.6998,-4.6888,-4.6598]},{"header":{"parameterUnit":"m.s-1","parameterCategory":1,"la1":30.6,"la2":29.2853,"lo1":-89.7004,"lo2":-87.6739,"dy":0.0162,"dx":0.0183,"nx":112,"ny":82,"refTime":"2026-04-23T12:00:00:Z","depth":0,"parameterNumber":3,"parameterNumberName":"V-component_of_WINDS"},"data":[0.0,0.0,0.0,0.0,0.0,0.0,0.0,0.0,0.0,0.0,0.0,0.0,0.0,0.0,0.0,0.0,0.0,0.0,0.0,0.0,0.0,0.0,0.0,0.0,0.0,0.0,0.0,0.0,0.0,0.0,0.0,0.0,0.0,0.0,0.0,0.0,0.0,0.0,0.0,0.0,0.0,0.0,0.0,0.0,0.0,0.0,0.0,0.0,0.0,0.0,0.0,0.0,0.0,0.0,0.0,0.0,0.0,0.0,0.0,0.0,0.0,0.0,0.0,0.0,0.0,0.0,0.0,0.0,0.0,0.0,0.0,0.0,0.0,0.0,0.0,0.0,0.0,0.0,0.0,0.0,0.0,0.0,0.0,0.0,0.0,0.0,0.0,0.0,0.0,0.0,0.7038,0.7886,0.8633,0.9098,0.9268,0.8727,0.7924,0.6857,0.0,0.0,0.0,0.0,0.0,0.0,0.0,0.0,0.0,0.0,0.0,0.0,0.0,0.0,0.0,0.0,0.0,0.0,0.0,0.0,0.0,0.0,0.0,0.0,0.0,0.0,0.0,0.0,0.0,0.0,0.0,0.0,0.0,0.0,0.0,0.0,0.0,0.0,0.0,0.0,0.0,0.0,0.0,0.0,0.0,0.0,0.0,0.0,0.0,0.0,0.0,0.0,0.0,0.0,0.0,0.0,0.0,0.0,0.0,0.0,0.0,0.0,0.0,0.0,0.0,0.0,0.0,0.0,0.0,0.0,0.0,0.0,0.0,0.0,0.0,0.0,0.0,0.0,0.0,0.0,0.0,0.0,0.0,0.0,0.0,0.0,0.0,0.0,0.0,0.0,0.0,0.0,0.0,0.0,0.0,0.0,0.0,0.0,0.0,0.0,0.0,0.0,0.0,0.0,0.6939,0.8656,0.9061,0.9249,0.9282,0.859,0.7763,0.6848,0.0,0.0,0.0,0.0,0.0,0.0,0.0,0.0,0.0,0.0,0.0,0.0,0.0,0.0,0.0,0.0,0.0,0.0,0.0,0.0,0.0,0.0,0.0,0.0,0.0,0.0,0.0,0.0,0.0,0.0,0.0,0.0,0.0,0.0,0.0,0.0,0.0,0.0,0.0,0.0,0.0,0.0,0.0,0.0,0.0,0.0,0.0,0.0,0.0,0.0,0.0,0.0,0.0,0.0,0.0,0.0,0.0,0.0,0.0,0.0,0.0,0.0,0.0,0.0,0.0,0.0,0.0,0.0,0.0,0.0,0.0,0.0,0.0,0.0,0.0,0.0,0.0,0.0,0.0,0.0,0.0,0.0,0.0,0.0,0.0,0.0,0.0,0.0,0.0,0.0,0.0,0.0,0.0,0.0,0.0,0.0,0.0,0.0,0.0,0.0,0.0,0.0,0.0,0.6974,0.7692,0.8858,0.9164,0.9239,0.9131,0.8604,0.7887,0.7064,0.6564,0.0,0.0,0.0,0.0,0.0,0.0,0.0,0.0,0.0,0.0,0.0,0.0,0.0,0.0,0.0,0.0,0.0,0.0,0.0,0.0,0.0,0.0,0.0,0.0,0.0,0.0,0.0,0.0,0.0,0.0,0.0,0.0,0.0,0.0,0.0,0.0,0.0,0.0,0.0,0.0,0.0,0.0,0.0,0.0,0.0,0.0,0.0,0.0,0.0,0.0,0.0,0.0,0.0,0.0,0.0,0.0,0.0,0.0,0.0,0.0,0.0,0.0,0.0,0.0,0.0,0.0,0.0,0.0,0.0,0.0,0.0,0.0,0.0,0.0,0.0,0.0,0.0,0.0,0.0,0.0,0.0,0.0,0.0,0.0,0.0,0.0,0.0,0.0,0.0,0.0,0.0,0.0,0.0,0.0,0.0,0.0,0.0,0.0,0.0,0.0,0.0,0.0,0.7806,0.8377,0.8924,0.9122,0.915,0.8999,0.851,0.7903,0.724,0.6786,0.0,0.0,0.0,0.0,0.0,0.0,0.0,0.0,0.0,0.0,0.0,0.0,0.0,0.0,0.0,0.0,0.0,0.0,0.0,0.0,0.0,0.0,0.0,0.0,0.0,0.0,0.0,0.0,0.0,0.0,0.0,0.0,0.0,0.0,0.0,0.0,0.0,0.0,0.0,0.0,0.0,0.0,0.0,0.0,0.0,0.0,0.0,0.0,0.0,0.0,0.0,0.0,0.0,0.0,0.0,0.0,0.0,0.0,0.0,0.0,0.0,0.0,0.0,0.0,0.0,0.0,0.0,0.0,0.0,0.0,0.0,0.0,0.0,0.0,0.0,0.0,0.0,0.0,0.0,0.0,0.0,0.0,0.0,0.0,0.0,0.0,0.0,0.0,0.0,0.0,0.0,0.0,0.0,0.0,0.0,0.0,0.0,0.0,0.0,0.0,0.0,0.0,0.7729,0.8543,0.8938,0.8999,0.8999,0.8985,0.8118,0.7444,0.7215,0.6654,0.0,0.0,0.0,0.0,0.0,0.0,0.0,0.0,0.0,0.0,0.0,0.0,0.0,0.0,0.0,0.0,0.0,0.0,0.0,0.0,0.0,0.0,0.0,0.0,0.0,0.0,0.0,0.0,0.0,0.0,0.0,0.0,0.0,0.0,0.0,0.0,0.0,0.0,0.0,0.0,0.0,0.0,0.0,0.0,0.0,0.0,0.0,0.0,0.0,0.0,0.0,0.0,0.0,0.0,0.0,0.0,0.0,0.0,0.0,0.0,0.0,0.0,0.0,0.0,0.0,0.0,0.0,0.0,0.0,0.0,0.0,0.0,0.0,0.0,0.0,0.0,0.0,0.0,0.0,0.0,0.0,0.0,0.0,0.0,0.0,0.0,0.0,0.0,0.0,0.0,0.0,0.0,0.0,0.0,0.0,0.0,0.0,0.0,0.0,0.0,0.0,0.0,0.764,0.8359,0.8779,0.9053,0.9065,0.8845,0.8652,0.8225,0.7426,0.0,0.0,0.0,0.0,0.0,0.0,0.0,0.0,0.0,0.0,0.0,0.0,0.0,0.0,0.0,0.0,0.0,0.0,0.0,0.0,0.0,0.0,0.0,0.0,0.0,0.0,0.0,0.0,0.0,0.0,0.0,0.0,0.0,0.0,0.0,0.0,0.0,0.0,0.0,0.0,0.0,0.0,0.0,0.0,0.0,0.0,0.0,0.0,0.0,0.0,0.0,0.0,0.0,0.0,0.0,0.0,0.0,0.0,0.0,0.0,0.0,0.0,0.0,0.0,0.0,0.0,0.0,0.0,0.0,0.0,0.0,0.0,0.0,0.0,0.0,0.0,0.0,0.0,0.0,0.0,0.0,0.0,0.0,0.0,0.0,0.0,0.0,0.0,0.0,0.0,0.0,0.0,0.0,0.0,0.0,0.0,0.0,0.0,0.0,0.0,0.0,0.0,0.6721,0.7631,0.8316,0.8666,0.9015,0.9126,0.8928,0.8832,0.8511,0.7751,0.0,0.0,0.0,0.0,0.0,0.0,0.0,0.0,0.0,0.0,0.0,0.0,0.0,0.0,0.0,0.0,0.0,0.0,0.0,0.0,0.0,0.0,0.0,0.0,0.0,0.0,0.0,0.0,0.0,0.0,0.0,0.0,0.0,0.0,0.0,0.0,0.0,0.0,0.0,0.0,0.0,0.0,0.0,0.0,0.0,0.0,0.0,0.0,0.0,0.0,0.0,0.0,0.0,0.0,0.0,0.0,0.0,0.0,0.0,0.0,0.0,0.0,0.0,0.0,0.0,0.0,0.0,0.0,0.0,0.0,0.0,0.0,0.0,0.0,0.0,0.0,0.0,0.0,0.0,0.0,0.0,0.0,0.0,0.0,0.0,0.0,0.0,0.0,0.0,0.0,0.0,0.0,0.0,0.0,0.0,0.0,0.0,0.0,0.0,0.0,0.0,0.0,0.674,0.7725,0.8481,0.868,0.8897,0.9096,0.9266,0.8508,0.8054,0.0,0.0,0.0,0.0,0.0,0.0,0.0,0.0,0.0,0.0,0.0,0.0,0.0,0.0,0.0,0.0,0.0,0.0,0.0,0.0,0.0,0.0,0.0,0.0,0.0,0.0,0.0,0.0,0.0,0.0,0.0,0.0,0.0,0.0,0.0,0.0,0.0,0.0,0.0,0.0,0.0,0.0,0.0,0.0,0.0,0.0,0.0,0.0,0.0,0.0,0.0,0.0,0.0,0.0,0.0,0.0,0.0,0.0,0.0,0.0,0.0,0.0,0.0,0.0,0.0,0.0,0.0,0.0,0.0,0.0,0.0,0.0,0.0,0.0,0.0,0.0,0.0,0.0,0.0,0.0,0.0,0.0,0.0,0.0,0.0,0.0,0.0,0.0,0.0,0.0,0.0,0.0,0.0,0.0,0.0,0.0,0.0,0.0,0.0,0.0,0.0,0.0,0.0,0.674,0.7725,0.8481,0.868,0.9126,0.9403,0.9304,0.9363,0.903,0.8158,0.0,0.0,0.0,0.0,0.0,0.0,0.0,0.0,0.0,0.0,0.0,0.0,0.0,0.0,0.0,0.0,0.0,0.0,0.0,0.0,0.0,0.0,0.0,0.0,0.0,0.0,0.0,0.0,0.0,0.0,0.0,0.0,0.0,0.0,0.0,0.0,0.0,0.0,0.0,0.0,0.0,0.0,0.0,0.0,0.0,0.0,0.0,0.0,0.0,0.0,0.0,0.0,0.0,0.0,0.0,0.0,0.0,0.0,0.0,0.0,0.0,0.0,0.0,0.0,0.0,0.0,0.0,0.0,0.0,0.0,0.0,0.0,0.0,0.0,0.0,0.0,0.0,0.0,0.0,0.0,0.0,0.0,0.0,0.0,0.0,0.0,0.0,0.0,0.0,0.0,0.0,0.0,0.0,0.0,0.0,0.0,0.0,0.0,0.0,0.0,0.0,0.0,0.6643,0.7673,0.8448,0.8571,0.9188,0.9593,0.9527,0.9761,0.9496,0.8604,0.0,0.0,0.0,0.0,0.0,0.0,0.0,0.0,0.0,0.0,0.0,0.0,0.0,0.0,0.0,0.0,0.0,0.0,0.0,0.0,0.0,0.0,0.0,0.0,0.0,0.0,0.0,0.0,0.0,0.0,0.0,0.0,0.0,0.0,0.0,0.0,0.0,0.0,0.0,0.0,0.0,0.0,0.0,0.0,0.0,0.0,0.0,0.0,0.0,0.0,0.0,0.0,0.0,0.0,0.0,0.0,0.0,0.0,0.0,0.0,0.0,0.0,0.0,0.0,0.0,0.0,0.0,0.0,0.0,0.0,0.0,0.0,0.0,0.0,0.0,0.0,0.0,0.0,0.0,0.0,0.0,0.0,0.0,0.0,0.0,0.0,0.0,0.0,0.0,0.0,0.0,0.0,0.0,0.0,0.0,0.0,0.0,0.0,0.0,0.0,0.0,0.0,0.6473,0.7655,0.8424,0.8466,0.9219,0.9761,0.9938,0.9882,0.9681,0.9273,0.0,0.0,0.0,0.0,0.0,0.0,0.0,0.0,0.0,0.0,0.0,0.0,0.0,0.0,0.0,0.0,0.0,0.0,0.0,0.0,0.0,0.0,0.0,0.0,0.0,0.0,0.0,0.0,0.0,0.0,0.0,0.0,0.0,0.0,0.0,0.0,0.0,0.0,0.0,0.0,0.0,0.0,0.0,0.0,0.0,0.0,0.0,0.0,0.0,0.0,0.0,0.0,0.0,0.0,0.0,0.0,0.0,0.0,0.0,0.0,0.7338,0.6948,0.0,0.0,0.0,0.0,0.0,0.0,0.0,0.0,0.0,0.0,0.0,0.0,0.0,0.0,0.0,0.0,0.0,0.0,0.0,0.0,0.0,0.0,0.0,0.0,0.0,0.0,0.0,0.0,0.0,0.0,0.0,0.0,0.0,0.0,0.0,0.0,0.0,0.0,0.0,0.0,0.6632,0.7854,0.8753,0.9065,0.9819,1.0349,1.0374,1.0628,1.0492,0.971,0.9144,0.0,0.0,0.0,0.0,0.0,0.0,0.0,0.0,0.0,0.0,0.0,0.0,0.0,0.0,0.0,0.0,0.0,0.0,0.0,0.0,0.0,0.0,0.0,0.0,0.0,0.0,0.0,0.0,0.0,0.0,0.0,0.0,0.0,0.0,0.0,0.0,0.0,0.0,0.0,0.0,0.0,0.0,0.0,0.0,0.0,0.0,0.0,0.0,0.0,0.0,0.0,0.0,0.0,0.0,0.0,0.0,0.0,0.0,0.0,0.834,0.7845,0.0,0.0,0.0,0.0,0.0,0.0,0.0,0.0,0.0,0.0,0.0,0.0,0.0,0.0,0.0,0.0,0.0,0.0,0.0,0.0,0.0,0.0,0.0,0.0,0.0,0.0,0.0,0.0,0.0,0.0,0.0,0.0,0.0,0.0,0.0,0.0,0.0,0.0,0.0,0.0,0.6959,0.8037,0.8893,0.9379,1.0071,1.0513,1.0513,1.0872,1.0876,1.0305,0.9762,0.0,0.0,0.0,0.0,0.0,0.0,0.0,0.0,0.0,0.0,0.0,0.0,0.0,0.0,0.0,0.0,0.0,0.0,0.0,0.0,0.0,0.0,0.0,0.0,0.0,0.0,0.0,0.0,0.0,0.0,0.0,0.0,0.0,0.0,0.0,0.0,0.0,0.0,0.0,0.0,0.0,0.0,0.0,0.0,0.0,0.0,0.0,0.0,0.0,0.0,0.0,0.0,0.0,0.979,1.0135,1.0428,1.0293,1.0422,1.0669,0.9426,0.8883,0.8817,0.8198,0.0,0.0,0.0,0.0,0.0,0.0,0.0,0.0,0.0,0.0,0.0,0.0,0.0,0.0,0.0,0.0,0.0,0.0,0.0,0.0,0.0,0.0,0.0,0.0,0.9273,0.9178,0.7489,0.0,0.0,0.0,0.0,0.0,0.0,0.0,0.0,0.0,0.0,0.0,0.7375,0.8317,0.9082,0.9703,1.0276,1.0663,1.0738,1.1049,1.1162,1.1044,1.0392,0.9766,0.0,0.0,0.0,0.0,0.0,0.0,0.0,0.0,0.0,0.0,0.0,0.0,0.0,0.0,0.0,0.0,0.0,0.0,0.0,0.0,0.0,0.0,0.0,0.0,0.0,0.0,0.0,0.0,0.0,0.0,0.0,0.0,0.674,0.7045,0.0,0.0,0.0,0.0,0.0,0.0,0.0,0.0,0.0,0.0,0.0,0.0,0.0,0.9488,0.9786,1.0319,1.0542,1.046,1.0995,1.1203,1.1071,1.1042,1.1161,1.1373,1.099,0.0,0.9432,0.8841,0.0,0.0,0.0,0.0,0.0,0.0,0.0,0.0,0.0,0.0,0.0,0.0,0.0,0.0,0.0,0.0,0.0,0.0,0.0,0.0,0.0,0.0,1.0377,0.9988,1.0045,1.0014,0.0,0.8716,0.8041,0.7626,0.7139,0.0,0.0,0.0,0.0,0.0,0.0,0.0,0.7858,0.8883,0.9708,1.0327,1.0757,1.1223,1.1744,1.175,1.1808,1.1984,1.1544,1.0972,1.0321,0.9295,0.0,0.0,0.0,0.0,0.0,0.0,0.0,0.0,0.0,0.0,0.0,0.0,0.0,0.0,0.0,0.0,0.0,0.0,0.0,0.0,0.0,0.0,0.0,0.0,0.0,0.0,0.0,0.0,0.0,0.6792,0.7286,0.7369,0.7569,0.7574,0.0,0.0,0.0,0.0,0.0,0.0,0.0,0.0,0.0,1.0055,1.0135,1.0381,1.0825,1.1109,1.1316,1.1458,1.1732,1.1822,1.1888,1.1779,1.1841,1.1968,1.169,1.1288,1.0754,0.9937,0.9266,0.8727,0.0,0.0,0.0,0.0,1.0274,1.154,1.1628,1.2009,1.2284,1.1566,0.0,0.0,0.0,0.0,0.0,0.0,0.0,0.0,0.0,0.0,1.0695,1.0659,1.0701,1.0701,1.0521,1.0161,0.9612,0.0,0.8437,0.8019,0.688,0.0,0.0,0.0,0.0,0.7608,0.875,0.9491,1.0166,1.0783,1.1298,1.1706,1.1966,1.2179,1.2345,1.2472,1.2035,1.1479,1.0822,1.0153,0.9285,0.0,0.0,0.0,0.0,0.0,0.0,0.0,0.0,0.0,0.0,0.0,0.0,0.0,0.0,0.0,0.0,0.0,0.0,0.0,0.0,0.0,0.0,0.0,0.0,0.0,0.0,0.0,0.0,0.7305,0.7841,0.7731,0.8148,0.8198,0.0,0.0,0.0,0.0,0.0,0.0,0.9799,0.994,1.0307,1.1033,1.1052,1.1279,1.1751,1.186,1.2068,1.238,1.238,1.2427,1.2517,1.237,1.2297,1.2368,1.2057,1.1893,1.1822,1.0839,1.0293,0.9969,0.9577,1.0043,1.0942,1.1085,1.2145,1.3536,1.3687,1.4139,1.4498,1.3712,1.3057,1.2458,1.1879,0.0,0.0,0.0,0.0,1.0119,1.0411,1.0641,1.0833,1.1063,1.1111,1.1111,1.1111,1.1134,1.0888,0.0,0.9618,0.9328,0.8118,0.0,0.0,0.0,0.0,0.8608,0.9559,1.0047,1.0539,1.1242,1.1744,1.2081,1.2307,1.2556,1.2718,1.2802,1.2391,1.1845,1.1153,1.0814,1.005,0.8816,0.0,0.0,0.0,0.0,0.0,0.0,0.0,0.0,0.0,0.0,0.0,0.0,0.0,0.0,0.0,0.0,0.0,0.0,0.0,0.0,0.0,0.0,0.0,0.0,0.0,0.0,0.0,0.0,0.0,0.8354,0.8892,0.0,0.0,0.0,0.0,0.9479,0.9752,1.0108,1.055,1.0901,1.1231,1.1477,1.2044,1.2307,1.234,1.2791,1.3055,1.3074,1.3074,1.2923,1.2804,1.2794,1.2625,1.2387,1.2363,1.2245,1.2006,1.1212,1.132,1.1903,1.1516,1.2421,1.397,1.3983,1.4726,1.5729,1.5538,1.5556,1.5647,1.5694,1.4797,1.3643,1.3792,1.2797,0.0,0.0,1.1299,1.1443,1.115,1.1081,1.1093,1.1105,1.1111,1.1111,1.1111,1.1285,1.1297,0.0,1.0412,1.0075,0.9408,0.0,0.8724,0.8706,0.8854,0.9246,1.005,1.0336,1.0875,1.1855,1.1966,1.2294,1.3088,1.288,1.282,1.3075,1.275,1.224,1.1523,1.1146,1.0621,0.9834,0.8842,0.0,0.0,0.0,0.0,0.0,0.0,0.0,0.0,0.0,0.0,0.0,0.0,0.0,0.0,0.0,0.0,0.0,0.0,0.0,0.0,0.0,0.0,0.0,0.0,0.0,0.0,0.0,0.0,0.8978,0.9549,0.0,0.9225,0.9587,0.9889,1.0036,1.0485,1.0934,1.135,1.177,1.2096,1.2313,1.2663,1.2843,1.2843,1.2994,1.3122,1.3122,1.3122,1.3089,1.3013,1.2885,1.2724,1.2644,1.2443,1.2344,1.2245,1.1817,1.1705,1.1808,1.2156,1.2996,1.4045,1.4522,1.5435,1.6439,1.6543,1.6519,1.6426,1.6195,1.5442,1.4641,1.4493,1.3475,1.2348,1.204,1.1757,1.1489,1.1173,1.1111,1.1111,1.1111,1.1111,1.1111,1.1111,1.1467,1.1633,1.1279,1.0984,1.0629,1.0071,0.9803,0.9561,0.9288,0.9655,1.0095,1.0485,1.1059,1.1595,1.1966,1.2696,1.3158,1.3206,1.3248,1.315,1.2782,1.2409,1.19,1.1201,1.1058,1.055,0.9604,0.9009,0.8357,0.0,0.0,0.0,0.0,0.0,0.0,0.0,0.0,0.0,0.0,0.0,0.0,0.0,0.0,0.0,0.0,0.0,0.0,0.0,0.0,0.0,0.0,0.0,0.0,0.0,0.8807,0.9412,0.962,1.0201,1.0419,0.9993,1.04,1.0749,1.0891,1.1283,1.1694,1.2115,1.2403,1.2649,1.2862,1.3127,1.3178,1.3178,1.3244,1.3277,1.3277,1.3277,1.324,1.3169,1.2961,1.2833,1.2813,1.2535,1.2387,1.2372,1.2241,1.2159,1.2149,1.3013,1.4094,1.5272,1.5636,1.623,1.6937,1.7023,1.6858,1.6519,1.6164,1.5491,1.4834,1.4615,1.3854,1.3028,1.2635,1.2164,1.171,1.1336,1.1184,1.1111,1.1111,1.1111,1.1135,1.1232,1.1606,1.1856,1.1772,1.1531,1.1244,1.0773,1.0551,1.0343,1.0094,1.059,1.104,1.1143,1.1812,1.2372,1.2586,1.3324,1.3652,1.3355,1.3484,1.3323,1.2638,1.2218,1.1757,1.1185,1.1058,1.0605,0.9771,0.9302,0.8723,0.7996,0.0,0.0,0.0,0.0,0.0,0.0,0.0,0.0,0.0,0.0,0.0,0.0,0.0,0.0,0.0,0.0,0.0,0.0,0.0,0.0,0.0,0.0,0.0,0.8732,0.9491,1.0104,1.0322,1.0844,1.1217,1.1217,1.1411,1.1657,1.2067,1.21,1.2342,1.2753,1.2837,1.2932,1.3069,1.3287,1.34,1.34,1.3589,1.3688,1.3688,1.3688,1.3584,1.3391,1.3169,1.3017,1.2762,1.2535,1.2387,1.2387,1.2387,1.2641,1.3146,1.4143,1.5862,1.7676,1.7403,1.7286,1.7284,1.7108,1.6569,1.5926,1.5777,1.5032,1.4204,1.4204,1.3956,1.3562,1.2969,1.2603,1.2261,1.165,1.1329,1.1123,1.1111,1.1117,1.1196,1.1435,1.1706,1.2011,1.2264,1.2107,1.1848,1.1549,1.1273,1.1123,1.1111,1.1595,0.0,1.2003,1.2526,1.3149,1.3724,1.3796,1.3775,1.3607,1.3618,1.3315,1.2606,1.2194,1.1845,1.1487,1.1161,1.0838,1.0488,0.9755,0.9086,0.8409,0.0,0.0,0.0,0.0,0.0,0.0,0.0,0.0,0.0,0.0,0.0,0.0,0.0,0.0,0.0,0.0,0.0,0.0,0.0,0.0,0.0,0.8807,0.9348,0.9348,1.0107,1.0712,1.0915,1.1359,1.1647,1.1647,1.1841,1.2024,1.2283,1.2507,1.271,1.3027,1.3136,1.3244,1.3301,1.3499,1.3608,1.3608,1.366,1.3688,1.3688,1.3688,1.366,1.3594,1.323,1.3093,1.2965,1.2597,1.2387,1.2387,1.2387,1.2999,1.3864,1.3946,1.4797,1.608,1.6402,1.6958,1.7561,1.7455,1.7217,1.6881,1.634,1.5414,1.4483,1.399,1.3429,1.2898,1.2546,1.2394,1.2206,1.1624,1.1435,1.1327,1.116,1.1268,1.1399,1.1477,1.1844,1.2345,1.2905,1.2977,1.2681,1.1939,1.1555,1.1309,1.1141,1.1595,0.0,1.2003,1.2922,1.3615,1.3796,1.4165,1.4171,1.364,1.3618,1.31,1.189,1.1686,1.1487,1.1146,1.083,1.0472,1.0081,0.9628,0.9183,0.0,0.0,0.0,0.0,0.0,0.0,0.0,0.0,0.0,0.0,0.0,0.0,0.0,0.0,0.0,0.0,0.0,0.0,0.0,0.0,0.0,0.0,0.9563,1.0152,1.0237,1.0712,1.1161,1.1543,1.1803,1.1987,1.2015,1.2276,1.245,1.2569,1.2772,1.2984,1.3192,1.332,1.3429,1.3514,1.3627,1.3688,1.3688,1.3688,1.3688,1.3688,1.3688,1.3646,1.3551,1.3278,1.3022,1.2923,1.2587,1.2387,1.2387,1.2387,1.2871,0.0,0.0,0.0,0.0,0.0,1.6096,1.6626,1.6639,1.6316,1.586,1.5518,1.4687,1.3802,1.3392,1.3003,1.2674,1.2518,1.2397,1.2216,1.176,1.1573,1.1453,1.1291,1.1375,1.1549,1.1772,1.2298,1.2874,1.3367,1.3677,0.0,1.2822,1.2473,1.2183,1.19,1.2365,1.2732,1.2732,1.3579,1.4122,1.4122,1.4418,1.4375,1.3854,1.3664,0.0,0.0,0.0,1.1495,1.1018,1.0796,0.0,0.0,0.0,0.0,0.0,0.0,0.0,0.0,0.884,0.885,0.0,0.0,0.0,0.0,0.0,0.0,0.0,0.0,0.0,0.0,0.0,0.0,0.0,0.0,0.0,0.0,1.0272,1.1009,1.1231,1.1288,1.151,1.202,1.2104,1.2198,1.2401,1.2654,1.2842,1.2833,1.3003,1.3197,1.341,1.3424,0.0,0.0,0.0,1.3688,1.3688,1.3688,1.3688,1.3688,1.3688,1.3584,1.3381,1.3164,1.3013,1.2813,1.2535,1.2387,1.2387,1.2387,1.2575,1.2822,1.3252,1.4179,1.5188,1.5042,1.5003,1.5061,1.5238,0.0,0.0,1.4108,1.3553,1.279,1.2705,1.2705,1.2705,1.2705,1.2536,1.2294,1.1994,1.1754,1.1561,1.1507,1.1537,1.17,1.2174,1.2842,1.3452,1.3762,1.4363,1.462,1.4119,1.3694,1.3308,1.2949,1.3397,1.3796,1.3796,1.4274,1.4605,1.4605,0.0,0.0,1.414,1.3783,1.3425,1.306,1.2393,1.1733,1.1074,1.109,1.0974,1.0615,1.0891,1.105,1.1058,1.1344,1.1336,1.1026,1.0073,0.9978,0.0,0.0,0.0,0.0,0.0,0.0,0.0,0.0,0.0,0.0,0.0,0.0,0.0,0.0,0.0,1.0061,1.0679,1.1269,1.1642,1.1794,1.1949,1.2071,1.2227,1.2469,1.2682,1.2743,1.2909,1.3244,1.3306,1.3419,1.3618,1.3632,1.3651,1.3688,1.3688,1.3688,1.3688,1.3688,1.3688,1.3688,0.0,0.0,1.3381,1.3164,1.3013,1.2813,1.2535,1.2387,1.2387,1.2387,1.2243,1.2135,1.328,1.3663,1.3642,1.4214,1.4459,1.4549,1.5158,1.4942,1.4417,1.4475,1.4067,1.3392,1.2875,1.2705,0.0,1.2705,1.2668,1.2566,1.2306,1.2198,1.2059,1.1591,1.1814,1.2131,1.1982,1.2826,1.3785,1.4391,1.5068,1.5483,1.5366,1.4462,1.3537,1.2984,1.3397,1.3796,1.3796,1.4274,1.4605,1.4605,1.4605,1.4462,1.414,1.3783,1.3355,1.2734,1.2258,1.1829,1.1416,1.167,1.1654,1.1296,1.136,1.1392,1.1392,1.1455,1.1455,1.1392,1.1185,1.1018,0.0,0.0,0.0,0.0,0.0,0.0,0.0,0.0,0.0,0.0,0.0,0.963,0.9802,0.0,1.0428,1.0711,1.126,1.1742,1.1897,1.2104,1.2236,1.2236,1.2325,1.2429,1.2592,1.2795,1.3003,1.3211,1.3424,1.3584,1.3684,1.3688,1.3688,1.3688,1.3688,1.3688,1.3688,1.3688,1.3688,1.3688,1.3584,1.3429,1.3221,1.3013,1.28,1.2597,1.2488,1.2387,1.2387,1.2387,1.2137,1.1869,1.253,1.2611,1.2403,1.2931,1.3173,1.3221,1.3896,1.3784,1.3432,1.3767,1.3542,1.3137,1.279,1.2705,1.2705,1.2705,1.2705,1.2644,1.2379,1.2312,1.2328,1.2376,1.26,1.2801,1.2807,1.3813,1.4692,1.4692,1.5526,1.6149,1.5992,1.5288,1.4523,1.3836,1.4021,1.4201,1.4201,1.4418,1.4605,1.4605,1.4605,1.4534,1.4351,1.3648,1.296,1.2427,1.2081,1.1855,1.1736,1.1895,1.1853,1.1495,1.1662,1.1757,1.1757,1.1961,1.2057,1.2057,1.221,1.2011,0.0,0.0,0.0,0.0,0.0,0.0,0.0,0.9479,0.9697,1.0274,1.041,1.0372,1.0402,1.0668,1.1015,1.1203,1.1756,1.2085,1.2085,1.226,1.2387,1.2387,1.2387,1.2401,1.2443,1.2847,1.3141,1.3184,1.3476,1.3688,1.3688,1.3688,1.3688,1.3688,1.3688,1.3688,1.3688,1.3688,1.3688,1.3688,1.3485,1.3277,1.3117,1.2918,1.2644,1.2387,1.2387,1.2387,1.2382,1.2344,1.2104,1.1813,1.1775,1.163,1.1536,1.178,1.1834,1.1932,1.257,1.2541,1.2358,1.2956,1.2969,1.2705,1.2705,1.2705,1.2705,1.2705,1.2705,1.2656,1.2445,1.2474,1.2692,1.3106,1.333,1.3538,1.3695,1.4725,1.5452,1.497,1.5858,1.6537,1.6269,1.5873,1.5429,1.4803,1.4653,1.4605,1.4605,1.4605,1.4605,1.4605,1.4605,1.4545,1.4324,1.3393,1.2632,1.2245,1.195,1.1897,1.2109,1.2123,1.1988,1.173,1.198,1.2123,1.2123,1.2519,1.2694,1.2702,1.3052,1.2838,0.8494,0.8397,0.8375,0.9114,0.9111,0.9372,0.0,1.0978,1.0789,1.14,1.1451,1.1356,1.115,1.1273,1.143,1.1472,1.1799,1.2085,1.2085,1.226,1.2387,1.2387,1.2387,1.2517,1.271,1.2932,1.3145,1.3339,1.3561,1.3688,1.3688,1.3688,1.3688,1.3688,1.3688,1.3688,1.3688,1.3688,1.3688,1.3688,1.3485,1.3277,1.3117,1.2918,1.2644,1.2387,1.2387,1.2387,1.2368,1.2194,1.1982,1.1798,1.1619,1.1406,1.1243,1.1292,1.1292,1.1438,1.2467,1.2447,1.218,1.3144,1.3101,1.2705,1.2705,1.2705,1.2705,1.2705,1.2705,1.2699,1.2668,1.3087,1.3429,1.2965,1.3474,1.404,1.3812,1.4572,1.5334,1.555,1.6064,1.6366,1.623,1.5764,1.5379,1.5144,1.4811,1.4605,1.4605,1.4605,1.4605,1.4605,1.4605,1.4264,1.3434,1.3017,1.2632,1.2245,1.195,1.2011,1.2504,1.2535,1.2511,1.2471,1.2511,1.2535,1.2535,1.2893,1.3036,1.3036,1.3403,1.333,0.9237,0.9207,0.9128,0.9485,0.9911,1.0438,1.1093,1.1261,1.1359,1.1589,1.164,1.1506,1.126,1.1461,1.1694,1.1694,1.1987,1.226,1.226,1.2231,1.2212,1.2212,1.2212,1.2292,1.2554,1.2767,1.3036,1.3188,1.3395,1.3566,1.3679,1.3688,1.3688,1.3688,1.3688,1.3688,1.3688,1.3688,1.3627,1.3514,1.3301,1.3093,1.2942,1.2673,1.2526,1.2387,1.2387,1.2387,1.2368,1.217,1.1958,1.1798,1.1595,1.1387,1.1194,1.1194,1.1194,1.134,1.2273,1.2305,1.2129,1.3008,1.3278,1.3222,1.2833,1.296,1.3222,1.279,1.2705,1.2705,1.2705,1.3222,1.3675,1.3622,1.4214,1.467,1.4241,1.4905,1.5493,1.5142,1.5771,1.6388,1.6329,1.5897,1.5565,1.5499,1.4998,1.4605,1.4605,1.4605,1.4489,1.4165,1.4122,1.37,1.2595,1.2269,1.2172,1.2326,1.2059,1.2312,1.3155,1.3188,1.3188,1.3188,1.3188,1.3188,1.3188,1.3306,1.3378,1.3386,1.3727,1.3815,0.9135,0.9282,0.9483,0.9404,1.028,1.1103,1.105,1.1353,1.1674,1.1609,1.1628,1.1565,1.1257,1.1491,1.1751,1.1808,1.2067,1.2321,1.2377,1.2212,1.2085,1.2085,1.2034,1.2076,1.2283,1.2606,1.2885,1.3032,1.3235,1.3452,1.3599,1.366,1.3688,1.3688,1.3688,1.3688,1.3688,1.3632,1.3532,1.3386,1.3112,1.2965,1.2818,1.254,1.2387,1.2387,1.2387,1.2354,1.2288,1.2081,1.1874,1.1713,1.151,1.1335,1.1194,1.1194,1.1292,1.1541,1.2273,1.2352,1.2358,1.3184,1.3454,1.3392,1.33,1.3343,1.3349,1.3045,1.2833,1.2747,1.2918,1.347,1.4079,1.4382,1.4925,1.5236,1.4775,1.5163,1.5457,1.4946,1.5544,1.6213,1.6335,1.5921,1.5643,1.5682,1.5086,1.4605,1.4605,1.4605,1.4382,1.3869,1.3796,1.3317,1.2114,1.1742,1.1828,1.236,1.2144,1.2485,1.3551,1.3618,1.3618,1.3618,1.3618,1.3618,1.3618,1.368,1.3727,1.3735,1.4093,1.426,0.7878,0.8428,0.9247,0.8918,0.9862,1.0982,1.1252,1.1585,1.1839,1.1619,1.1756,1.1744,1.1281,1.1378,1.159,1.1784,1.1949,1.2165,1.2358,1.2212,1.2085,1.2085,1.1954,1.1912,1.2076,1.2526,1.2828,1.2832,1.3159,1.3391,1.34,1.3584,1.3688,1.3688,1.3688,1.3688,1.3688,1.3495,1.3395,1.3386,1.2975,1.2828,1.2818,1.254,1.2387,1.2387,1.2387,1.2274,1.2081,1.1864,1.1709,1.1505,1.1288,1.1198,1.1194,1.1194,1.1541,1.2029,1.2613,1.2731,1.2865,1.4083,1.3661,1.296,1.4272,1.376,1.2875,1.3476,1.3222,1.2833,1.3519,1.4153,1.474,1.5072,1.5427,1.562,1.5428,1.514,1.5008,1.5304,1.5528,1.5751,1.6142,1.5779,1.5466,1.5682,1.5086,1.4605,1.4605,1.4605,1.4382,1.3869,1.3796,1.3317,1.2114,1.1742,1.1828,1.236,1.2144,1.2485,1.3551,1.3618,1.3618,1.3618,1.3618,1.3618,1.3618,1.3926,1.4093,1.4101,1.4423,1.4589,0.8359,0.8771,0.9174,0.9211,1.0269,1.1307,1.1406,1.1516,1.1558,1.1388,1.1293,1.1134,1.0872,1.1066,1.1373,1.1586,1.186,1.2156,1.2358,1.2212,1.2034,1.1945,1.186,1.1846,1.1864,1.2181,1.2465,1.2804,1.3022,1.324,1.3381,1.358,1.3688,1.3688,1.3688,1.3622,1.349,1.3424,1.3249,1.2975,1.2687,1.255,1.255,1.2419,1.2387,1.2387,1.2387,1.2269,1.2071,1.1855,1.1699,1.1496,1.1279,1.1194,1.1243,1.1585,1.2078,1.2565,1.2764,1.2877,1.3037,1.3653,1.3749,1.3584,1.3436,1.3385,1.3307,1.3088,1.2875,1.2833,1.3519,1.4195,1.4782,1.5113,1.5636,1.5826,1.5026,1.4942,1.495,1.4699,1.5163,1.5703,1.5943,1.5772,1.5447,1.5017,1.4756,1.4605,1.4605,1.4605,1.4245,1.3295,1.3185,1.2886,1.2077,1.1918,1.2297,1.3273,1.3242,1.3509,1.4248,1.4248,1.4248,1.4248,1.4248,1.4248,1.4248,1.4367,1.4431,1.4431,1.455,1.4605,0.8021,0.8414,0.8782,0.8737,0.9978,1.1129,1.0988,1.1262,1.1416,1.1047,1.0816,1.0608,1.0436,1.0508,1.0806,1.1321,1.1628,1.1897,1.2325,1.2212,1.2034,1.1897,1.1865,1.1846,1.1926,1.2006,1.2227,1.2625,1.2843,1.3051,1.3263,1.3471,1.358,1.358,1.358,1.348,1.3277,1.3202,1.2994,1.2649,1.2507,1.2387,1.2387,1.2387,1.2387,1.2387,1.2387,1.2227,1.1958,1.1874,1.1652,1.1387,1.125,1.134,1.1541,1.1878,1.2467,1.3055,1.3055,1.3115,1.3309,1.3744,1.3749,1.3577,1.3436,1.3385,1.3307,1.3094,1.3045,1.3215,1.3899,1.4566,1.5184,1.5627,1.5973,1.5968,1.5095,1.498,1.4873,1.4432,1.4881,1.542,1.5623,1.5581,1.53,1.4692,1.4605,1.4605,1.4605,1.4605,1.4165,1.301,1.3076,1.2893,1.2077,1.2187,1.2739,1.3724,1.3796,1.4049,1.4569,1.4605,1.4605,1.4605,1.4605,1.4605,1.4605,1.4605,1.4605,1.4605,1.4605,1.4605,0.6953,0.7449,0.8055,0.772,0.9063,1.0407,1.0062,1.0698,1.1248,1.0637,1.0381,1.0203,0.9985,0.9762,0.9931,1.0986,1.1184,1.1496,1.2255,1.2217,1.21,1.2085,1.1907,1.1912,1.2067,1.2085,1.217,1.2368,1.2654,1.2923,1.3112,1.3273,1.3391,1.3391,1.3381,1.3273,1.3112,1.2852,1.2644,1.2387,1.2387,1.2387,1.2387,1.2387,1.2387,1.2387,1.2372,1.2137,1.1817,1.1808,1.1562,1.1194,1.1194,1.1541,1.198,1.2029,1.2662,1.3491,1.3539,1.3543,1.3622,1.4231,1.3674,1.2979,1.4208,1.373,1.2833,1.3519,1.3695,1.3864,1.4566,1.5235,1.5858,1.6525,1.6476,1.6063,1.5529,1.5148,1.4834,1.4491,1.4686,1.4987,1.5181,1.5197,1.5078,1.466,1.4621,1.4629,1.4605,1.4605,1.4165,1.3039,1.347,1.3353,1.2187,1.2636,1.3185,1.3796,1.3833,1.4049,1.4569,1.4605,1.4605,1.4605,1.4605,1.4605,1.4605,1.4605,1.4605,1.4605,1.4605,1.4605,0.7089,0.7417,0.7763,0.7746,0.8524,0.9261,0.9295,0.9641,0.9879,0.9629,0.9536,0.9502,0.9299,0.9432,0.9794,1.0414,1.1028,1.1619,1.209,1.225,1.2255,1.2104,1.2038,1.2029,1.2081,1.2085,1.217,1.2368,1.2781,1.307,1.3122,1.3273,1.3391,1.3391,1.3235,1.3051,1.2904,1.263,1.2493,1.2387,1.2387,1.2387,1.2387,1.2387,1.2387,1.2377,1.2227,1.201,1.1803,1.1657,1.1435,1.1194,1.1194,1.1541,1.2029,1.2467,1.3001,1.3539,1.3968,1.3986,1.3773,1.3756,1.3418,1.3062,1.3405,1.3127,1.2833,1.3519,1.3695,1.3984,1.5151,1.5567,1.5858,1.6525,1.6626,1.6419,1.5913,1.5498,1.5163,1.485,1.4969,1.5144,1.5181,1.5425,1.534,1.4692,1.4871,1.4951,1.4637,1.4605,1.4346,1.3651,1.3724,1.3688,1.3361,1.347,1.3804,1.4346,1.4389,1.4453,1.4605,1.4605,1.4605,1.4605,1.4605,1.4605,1.4605,1.4605,1.4605,1.4605,1.4605,1.4605,0.6872,0.6979,0.7101,0.7178,0.7792,0.8347,0.8227,0.8558,0.8755,0.8548,0.8449,0.8418,0.8355,0.8755,0.9258,0.9899,1.0702,1.1453,1.2001,1.226,1.2344,1.2231,1.2217,1.2217,1.2217,1.2217,1.2264,1.2377,1.2658,1.2833,1.2984,1.3051,1.3117,1.3117,1.3055,1.2833,1.2625,1.2498,1.2387,1.2387,1.2387,1.2387,1.2387,1.2387,1.234,1.225,0.0,1.1916,1.1676,1.1567,1.1392,1.1194,1.1194,1.1683,1.237,1.2716,1.3244,1.3836,1.3938,1.393,1.3882,1.3731,1.3429,1.3083,1.3083,1.3101,1.3215,1.3603,1.411,1.4734,1.5484,1.5899,1.6237,1.6607,1.6689,1.6594,1.6118,1.5772,1.5386,1.4854,1.487,1.4943,1.4943,1.5102,1.5149,1.4911,1.4919,1.4927,1.4887,1.47,1.4382,1.3869,1.4013,1.4049,1.3833,1.4013,1.4274,1.4569,1.4605,1.4605,1.4605,1.4605,1.4605,1.4605,1.4605,1.4605,1.4605,1.4605,1.4684,1.4843,1.4843,1.4767,0.6553,0.6422,0.6414,0.643,0.7036,0.7479,0.7042,0.745,0.7793,0.7488,0.7351,0.7341,0.7485,0.7987,0.8633,0.9428,1.0305,1.1146,1.193,1.2217,1.2354,1.2382,1.2387,1.2387,1.2387,1.2387,1.2387,1.2387,1.2387,1.2535,1.2813,1.2823,1.2753,1.2724,1.2724,1.263,1.2387,1.2387,1.2387,1.2387,1.2387,1.2387,1.2387,1.2387,1.2274,1.2085,1.2057,1.1822,1.1515,1.1487,1.1364,1.1194,1.1194,1.1883,1.2813,1.2813,1.3437,1.4232,1.3773,1.3767,1.3948,1.3876,1.355,1.3175,1.3264,1.3504,1.3783,1.3913,1.4817,1.5733,1.5816,1.627,1.6689,1.6689,1.6689,1.661,1.6341,1.5999,1.5539,1.4811,1.4676,1.466,1.4613,1.4645,1.4764,1.507,1.4919,1.4855,1.5086,1.4839,1.4418,1.3941,1.431,1.4418,1.3941,1.4346,1.4605,1.4605,1.4605,1.4605,1.4605,1.4605,1.4605,1.4605,1.4605,1.4629,1.4676,1.4676,1.4895,1.5253,1.5253,1.5055,0.6706,0.6665,0.6611,0.6714,0.6539,0.6339,0.617,0.6482,0.6765,0.6499,0.6852,0.7283,0.7474,0.7864,0.8406,0.9202,1.0083,1.092,1.1756,1.2006,1.2198,1.2363,1.2387,1.2387,1.2387,1.2387,1.2387,1.2387,1.2387,1.2535,1.2813,1.2823,1.2682,1.2502,1.2498,1.2479,1.2387,1.2387,1.2387,1.2387,1.2387,1.2387,1.2387,1.2387,1.2274,1.2076,1.1897,0.0,1.1505,1.1326,1.1231,1.1194,1.1194,1.1883,1.2813,1.2813,1.3437,1.4286,1.4189,1.4189,1.4159,1.3725,1.3519,1.3537,1.411,1.4134,1.4203,1.5098,1.5526,1.5816,1.636,1.6607,1.6689,1.6689,1.6689,1.6673,1.6618,1.6365,1.5912,1.5221,1.5094,1.499,1.4653,1.4887,1.5006,1.4732,1.5165,1.5308,1.4764,1.4645,1.4569,1.4461,1.4533,1.4569,1.4461,1.4569,1.4605,1.4605,1.4605,1.4605,1.4605,1.4605,1.4605,1.4605,1.4605,1.4756,1.5094,1.5094,1.5261,1.5594,1.5594,1.5273,0.669,0.6665,0.6619,0.6613,0.6347,0.6098,0.6051,0.5978,0.5961,0.613,0.6407,0.6681,0.6812,0.7423,0.8056,0.8453,0.9308,1.0216,1.1052,1.1444,1.1756,1.218,1.2321,1.2387,1.2387,1.2387,1.2387,1.2387,1.2387,1.2484,1.2592,1.2597,1.255,1.2387,1.2387,1.2387,1.2387,1.2387,1.2387,1.2387,1.2387,1.2387,1.2382,1.2278,1.2118,1.1907,1.1751,1.1543,1.134,1.1236,1.1194,1.1243,1.1487,1.2127,1.2813,1.3055,1.363,1.428,1.4141,1.4415,1.4804,1.4396,1.4034,1.3832,1.4359,1.4553,1.4781,1.5489,1.594,1.6278,1.6607,1.6689,1.6689,1.6689,1.6689,1.6642,1.6459,1.6325,1.6055,1.5539,1.53,1.5133,1.4951,1.4911,1.4911,1.4919,1.5205,1.5364,1.5197,1.5181,1.5038,1.4645,1.4605,1.4605,1.4605,1.4605,1.4605,1.4605,1.4605,1.4605,1.4605,1.4605,1.4692,1.4919,1.4919,1.5094,1.5481,1.5481,1.5618,1.5952,1.5952,1.5495,0.6643,0.6638,0.6603,0.6481,0.626,0.6036,0.619,0.5765,0.5518,0.601,0.6113,0.616,0.6235,0.7002,0.764,0.7849,0.86,0.9516,1.0488,1.0934,1.143,1.201,1.2264,1.2387,1.2387,1.2387,1.2387,1.2387,1.2387,1.2387,1.2387,1.2387,1.2387,1.2387,1.2387,1.2387,1.2387,1.2387,1.2387,1.2387,1.2387,1.2363,1.2316,1.2161,1.1944,1.1746,1.1586,1.1397,1.1194,1.1194,1.1194,1.1243,1.178,1.2322,1.2861,1.3346,1.3823,1.4268,1.4063,1.4596,1.5352,1.5124,1.4735,1.4455,1.4843,1.5126,1.5383,1.5781,1.6278,1.6689,1.6689,1.6689,1.6689,1.6689,1.6689,1.6618,1.6373,1.6317,1.6214,1.5856,1.5578,1.538,1.5308,1.499,1.4855,1.5141,1.5189,1.5314,1.5577,1.5672,1.5467,1.4882,1.4764,1.4724,1.4724,1.4724,1.4724,1.4724,1.4787,1.4827,1.4827,1.4827,1.4998,1.5284,1.5292,1.5459,1.5793,1.5793,1.5975,1.6317,1.6157,1.569,0.6725,0.6703,0.6643,0.6744,0.6263,0.583,0.615,0.5874,0.5661,0.6018,0.6143,0.6248,0.6445,0.6713,0.7151,0.7929,0.8448,0.9181,1.0445,1.0934,1.143,1.201,1.2264,1.2387,1.2387,1.2387,1.2387,1.2387,1.2387,1.2387,1.2387,1.2387,1.2387,1.2387,1.2387,1.2387,1.2387,1.2387,1.2387,1.2387,1.2387,1.2288,1.2114,1.2095,1.1869,1.1543,1.1524,1.1397,0.0,1.1194,1.1194,1.1243,1.178,1.2322,1.2861,1.3346,1.3823,1.4292,1.4268,1.4752,1.5384,1.5358,1.5545,1.5913,1.6381,1.6271,1.6109,1.6495,1.6648,1.6689,1.6689,1.6689,1.6689,1.6689,1.6689,1.6681,1.665,1.6642,1.6539,1.623,1.6134,1.6007,1.5728,1.5356,1.5141,1.5181,1.5189,1.5197,1.5229,1.5491,1.565,1.5624,1.5316,1.5133,1.5133,1.5133,1.5133,1.5133,1.5419,1.5578,1.5578,1.5578,1.5632,1.5634,1.5634,1.5801,1.6158,1.6158,1.6341,1.665,1.6018,1.5703,0.6497,0.6958,0.731,0.7154,0.6995,0.6954,0.714,0.6548,0.6081,0.6449,0.6349,0.6229,0.6309,0.6492,0.6779,0.7235,0.7584,0.8158,0.9124,0.9729,1.04,1.1288,1.1789,1.2109,1.2358,1.2387,1.2387,1.2387,1.2387,1.2387,1.2387,1.2387,1.2387,1.2387,1.2387,1.2387,1.2387,1.2387,1.2387,1.2382,1.2264,1.2165,1.2081,1.1827,1.1676,1.151,1.1383,1.1274,0.0,1.1194,1.1389,1.1736,1.2273,1.2759,1.3298,1.3775,1.4106,1.4298,1.4298,1.5105,1.6103,1.6103,1.6561,1.7062,1.6765,1.6401,1.6194,1.6578,1.6689,1.6689,1.6689,1.6689,1.6689,1.6689,1.6689,1.6689,1.6689,1.6689,1.665,1.6547,1.6349,1.6158,1.6023,1.5713,1.5411,1.5213,1.5356,1.5521,1.5521,1.5777,1.6079,1.6285,1.5817,1.5521,1.5521,1.5521,1.5521,1.5521,1.564,1.5712,1.5712,1.5712,1.5777,1.5991,1.5991,1.6174,1.6483,1.6483,1.6554,1.6689,1.6443,1.6072,0.6236,0.679,0.7273,0.732,0.727,0.7371,0.7772,0.7086,0.6457,0.6903,0.6676,0.6391,0.6364,0.6424,0.6535,0.6694,0.6984,0.7484,0.8283,0.8935,0.9667,1.0603,1.1203,1.1709,1.2071,1.2278,1.2387,1.2387,1.2387,1.2387,1.2387,1.2387,1.2387,1.2387,1.2387,1.2387,1.2387,1.2387,1.2495,1.2654,1.2447,1.2423,1.2508,1.2084,1.1778,1.1665,1.1407,1.1292,0.0,1.1389,1.1639,1.2078,1.2759,1.3201,1.3539,1.4106,1.4298,1.4346,1.4532,1.5486,1.6629,1.6857,1.7341,1.7684,1.7159,1.668,1.6327,1.6637,1.6689,1.6689,1.6689,1.6689,1.6689,1.6689,1.6689,1.6689,1.6689,1.6689,1.6689,1.6689,1.6491,1.6357,1.6357,1.6071,1.5753,1.5523,1.5594,1.5712,1.5712,1.5896,1.6182,1.6499,1.6134,1.5833,1.5833,1.5833,1.5833,1.5833,1.5936,1.5991,1.5991,1.5991,1.6111,1.6357,1.6357,1.6444,1.6689,1.6689,1.6689,1.6689,1.6484,1.6154,0.5991,0.6089,0.6309,0.7102,0.6764,0.6542,0.7708,0.7337,0.682,0.7289,0.7124,0.6847,0.6734,0.6544,0.6426,0.6502,0.6884,0.7484,0.8283,0.8935,0.9559,1.0251,1.065,1.1071,1.1487,1.2029,1.2387,1.2387,1.2387,0.0,1.2387,1.2387,1.2387,1.2387,1.2387,1.2387,1.2387,1.2387,1.2713,1.3315,1.3024,1.3122,1.3475,1.2915,1.2436,1.198,1.1688,1.1438,0.0,1.1785,1.198,1.2127,1.3104,1.3491,1.3539,1.4106,1.4298,1.4388,1.5153,1.5913,1.6723,1.7458,1.7741,1.7814,1.7771,1.7286,1.6697,1.6689,1.6689,1.6689,1.6689,1.6689,1.6689,1.6689,1.6689,1.6689,1.6689,1.6689,1.6689,1.6689,1.6689,1.6689,1.6689,1.6436,1.6198,1.6198,1.5896,1.5712,1.5712,1.572,1.5817,1.6174,1.6206,1.6198,1.6198,1.6198,1.6198,1.6198,1.6532,1.6681,1.6681,1.6681,1.6681,1.6689,1.6689,1.6689,1.6689,1.6689,1.6689,1.6697,1.6023,1.5692,0.5438,0.5961,0.6535,0.6994,0.7288,0.7593,0.8053,0.7774,0.7435,0.7401,0.7202,0.7009,0.6874,0.6707,0.6763,0.7254,0.7372,0.7688,0.8491,0.9108,0.9733,1.045,1.135,1.2002,1.2081,1.2269,1.2387,1.2387,1.2387,1.2387,1.2387,1.2387,1.2387,1.2387,1.2387,1.2604,1.2985,1.2832,1.3024,1.3662,1.3209,1.309,1.3217,1.2733,1.2291,1.198,1.1731,1.1438,0.0,1.1785,1.2224,1.2619,1.3249,1.3732,1.4064,1.425,1.4627,1.5105,1.5343,1.6285,1.7365,1.7638,1.7749,1.7814,1.7814,1.7286,1.6689,1.6689,1.6689,1.6689,1.6689,1.6689,1.6689,1.6689,1.6689,1.6689,1.6689,1.6689,1.6689,1.6689,1.6689,1.6689,1.6689,1.6602,1.6444,1.6238,1.6111,1.6039,1.6039,1.6039,1.6174,1.6532,1.6523,1.6523,1.6523,1.6523,1.6523,1.6523,1.6634,1.6689,1.6689,1.6689,1.6689,1.6689,1.6689,1.6689,1.6689,1.6689,1.6689,1.6689,1.6484,1.636,0.5047,0.5659,0.6425,0.6846,0.7359,0.7854,0.8174,0.8017,0.7769,0.7616,0.7438,0.7273,0.7144,0.6982,0.6946,0.7275,0.7343,0.7563,0.8172,0.8845,0.9606,1.0471,1.1472,1.2067,1.2147,1.2292,1.2387,1.2387,1.2316,1.2274,1.2274,1.2194,1.2151,1.2151,1.2231,1.2538,1.313,1.2903,1.3158,1.394,1.3545,1.3458,1.3701,1.3214,1.2759,1.2419,1.2024,1.1688,0.0,1.2355,1.2748,1.291,1.3871,1.425,1.4346,1.4627,1.501,1.548,1.6096,1.6889,1.7716,1.7873,1.7788,1.7556,1.7421,1.708,1.6689,1.6689,1.6689,1.6689,1.6689,1.6689,1.6689,1.6689,1.6689,1.6689,1.6689,1.6689,1.6689,1.6689,1.6689,1.6689,1.6689,1.6689,1.6618,1.6436,1.6404,1.6357,1.6222,1.6206,1.6285,1.6508,1.6491,1.6547,1.6681,1.6689,1.6689,1.6689,1.6689,1.6689,1.6689,1.6689,1.6689,1.6689,1.6689,1.6689,1.6689,1.6689,1.6689,1.6689,1.6689,1.6689,0.0,0.527,0.5959,0.6719,0.706,0.7411,0.8118,0.8029,0.0,0.7901,0.7809,0.7687,0.7593,0.7328,0.709,0.6912,0.7075,0.7311,0.7607,0.8338,0.9289,1.0564,1.1194,1.1638,1.1841,1.2147,1.2363,1.2363,1.2175,1.2067,1.2067,1.1874,1.1817,1.1817,1.1997,1.236,1.2941,1.278,1.3233,1.4242,1.394,1.4129,1.4629,1.414,1.3636,0.0,1.2662,0.0,0.0,1.3355,1.3559,1.3098,1.4813,1.5057,1.4532,1.5242,1.5534,1.5764,1.7217,1.7738,1.7817,1.8157,1.7819,1.7207,1.68,1.6689,1.6689,1.6689,1.6689,1.6689,1.6689,1.6689,1.6689,1.6689,1.6689,1.6689,1.6689,1.6689,1.6689,1.6689,1.6689,1.6689,1.6689,1.6689,1.6689,1.6689,1.6689,1.6578,1.6285,1.6246,1.6246,1.6246,1.6246,1.6373,1.6665,1.6689,1.6689,1.6689,1.6689,1.6689,1.6689,1.6689,1.6689,1.6689,1.6689,1.6689,1.6689,1.6689,1.6689,1.6689,1.6689,1.6689,0.5555,0.0,0.5917,0.6693,0.7127,0.7446,0.0,0.804,0.813,0.7928,0.7875,0.794,0.8229,0.7805,0.77,0.8603,0.8426,0.8356,0.8953,0.9668,1.048,1.1416,1.1803,1.202,1.2217,1.2189,1.2156,1.2156,1.1958,1.1893,1.1893,1.1846,1.1817,1.1817,1.2113,1.2598,1.3344,1.3465,1.3896,1.46,1.4326,1.425,1.4395,1.4051,1.3738,1.3394,1.305,0.0,1.2613,1.3944,1.4418,1.4376,1.5771,1.6204,1.6062,1.6251,1.6669,1.7217,1.7544,1.8071,1.8487,1.8052,1.7663,1.7207,1.68,1.6689,1.6689,1.6689,1.6689,1.6689,1.6689,1.6689,1.6689,1.6689,1.6689,1.6689,1.6689,1.6689,1.6689,1.6689,1.6689,1.6689,1.6689,1.6689,1.6689,1.6689,1.6689,1.6665,1.6578,1.657,1.657,1.657,1.657,1.6602,1.6681,1.6689,1.6689,1.6689,1.6689,1.6689,1.6689,1.6689,1.6689,1.6689,1.6689,1.6689,1.6689,1.6689,1.6689,1.6689,1.6689,1.6689,0.6504,0.6541,0.6537,0.6974,0.7415,0.7811,0.7947,0.8055,0.8075,0.7931,0.7901,0.8,0.8343,0.8171,0.8201,0.8951,0.8941,0.9053,0.9712,1.0338,1.0986,1.159,1.2072,1.2298,0.0,1.2322,1.2307,1.2149,1.185,1.168,1.168,1.1586,1.1529,1.1529,1.2168,1.2762,1.3303,1.3568,1.3935,1.4521,1.437,1.4298,1.4298,1.416,1.3925,1.369,0.0,0.0,1.3565,1.4752,1.5181,1.5324,1.6615,1.6904,1.6629,1.6998,1.7372,1.7738,1.8071,1.8395,1.8494,1.799,1.7591,1.7207,1.68,1.6689,1.6689,1.6689,1.6689,1.6689,1.6689,1.6689,1.6689,1.6689,1.6689,1.6689,1.6689,1.6689,1.6689,1.6689,1.6689,1.6689,1.6689,1.6689,1.6689,1.6689,1.6689,1.6689,1.6689,1.6689,1.6689,1.6689,1.6689,1.6689,1.6689,1.6689,1.6689,1.6689,1.6689,1.6689,1.6689,1.6689,1.6689,1.6689,1.6689,1.6689,1.6689,1.6689,1.6689,1.6697,1.6905,1.6984,0.7498,0.7626,0.7551,0.7425,0.7827,0.8269,0.8229,0.8083,0.7961,0.7961,0.7961,0.8051,0.8357,0.8504,0.8692,0.8948,0.9297,0.9734,1.032,1.0795,1.1226,1.1639,1.2278,0.0,1.2385,1.251,1.249,1.2233,1.1784,1.1518,1.1468,1.1392,1.1292,1.1243,1.2322,1.2954,1.3099,1.3447,1.3871,1.4298,1.4298,1.4298,1.4298,1.4298,1.416,1.3931,0.0,0.0,1.4561,1.565,1.6082,1.6224,1.7404,1.7512,1.7005,1.7645,1.7878,1.7978,1.8589,1.8597,1.824,1.7926,1.7591,1.7207,1.68,1.6689,1.6689,1.6689,1.6689,1.6689,1.6689,1.6689,1.6689,1.6689,1.6689,1.6689,1.6689,1.6689,1.6689,1.6689,1.6689,1.6689,1.6689,1.6689,1.6689,1.6689,1.6689,1.6689,1.6689,1.6689,1.6689,1.6689,1.6689,1.6689,1.6689,1.6689,1.6689,1.6689,1.6689,1.6689,1.6689,1.6689,1.6689,1.6689,1.6689,1.6689,1.6689,1.6689,1.6721,1.6784,1.7135,1.7352,0.8235,0.8652,0.8661,0.7992,0.8211,0.8562,0.8342,0.8263,0.8231,0.8231,0.8231,0.8375,0.889,0.898,0.9316,1.0251,1.0706,1.1093,1.1429,1.1719,1.2078,1.2472,1.2836,1.3087,1.3192,1.2876,1.2556,1.2299,1.1855,1.1491,1.1246,1.1658,1.1785,1.1536,1.2759,1.3314,1.3105,1.3841,1.4202,1.4298,1.4298,1.4298,1.4298,1.4298,1.4298,1.425,0.0,1.5146,1.533,1.6796,1.7404,1.7498,1.8303,1.8542,1.8504,1.8589,1.8635,1.8643,1.8781,1.8597,1.824,1.7926,1.7591,1.7207,1.68,1.6689,1.6689,1.6689,1.6689,1.6689,1.6689,1.6689,1.6689,1.6689,1.6689,1.6689,1.6689,1.6689,1.6689,1.6689,1.6689,1.6689,1.6689,1.6689,1.6689,1.6689,1.6689,1.6689,1.6689,1.6689,1.6689,1.6689,1.6689,1.6689,1.6689,1.6689,1.6689,1.6689,1.6689,1.6689,1.6689,1.6689,1.6689,1.6689,1.6689,1.6689,1.6689,1.6689,1.6897,1.7199,1.7254,1.7472,0.7973,0.8287,0.8417,0.8339,0.8854,0.9287,0.9023,0.8932,0.8932,0.8932,0.8932,0.9083,0.9462,0.9648,1.0094,1.1158,1.168,1.1985,1.2204,1.2362,1.2545,1.2714,0.0,1.3308,1.3226,1.3183,1.3013,1.2768,1.2281,1.1932,1.1639,1.198,1.2078,1.1829,1.2905,1.3443,1.3298,1.3962,1.4298,1.4298,1.4298,1.4298,1.4298,1.4298,1.4298,1.4346,0.0,1.5629,1.615,1.7225,1.7924,1.835,1.8689,1.8781,1.8781,1.8781,1.8781,1.8781,1.8781,1.8724,1.8494,1.799,1.7711,1.7445,1.6897,1.6689,1.6689,1.6689,1.6689,1.6689,1.6689,1.6689,1.6689,1.6689,1.6689,1.6689,1.6689,1.6689,1.6689,1.6689,1.6689,1.6689,1.6689,1.6689,1.6689,1.6689,1.6689,1.6689,1.6689,1.6689,1.6689,1.6689,1.6689,1.6689,1.6689,1.6689,1.6689,1.6689,1.6689,1.6689,1.6689,1.6689,1.6689,1.6689,1.6689,1.6833,1.7032,1.7032,1.7207,1.7591,1.7739,1.7906,0.7739,0.7882,0.8099,0.8596,0.9167,0.9636,0.969,0.96,0.957,0.9751,0.9787,0.9829,0.9967,1.0316,1.0882,1.182,1.2385,1.2709,1.2888,1.303,1.3121,1.3082,1.3443,1.363,1.3389,1.3491,1.3491,1.3195,1.2759,1.237,1.2029,1.237,1.2419,1.2127,1.3147,1.3684,1.3593,1.4058,1.4298,1.4298,1.4238,1.4238,1.4292,1.4232,1.4238,1.4346,1.5296,1.6008,1.6676,1.7606,1.8303,1.8781,1.8781,1.8781,1.8781,1.8781,1.8781,1.8781,1.8781,1.8781,1.8678,1.8097,1.7878,1.7703,1.7048,1.6761,1.6689,1.6689,1.6689,1.6689,1.6689,1.6689,1.6689,1.6689,1.6689,1.6689,1.6689,1.6689,1.6689,1.6689,1.6689,1.6689,1.6689,1.6689,1.6689,1.6689,1.6689,1.6689,1.6689,1.6689,1.6689,1.6689,1.6689,1.6689,1.6689,1.6689,1.6689,1.6689,1.6689,1.6689,1.6689,1.6689,1.6689,1.6689,1.6776,1.7,1.7278,1.74,1.7607,1.7898,1.8168,1.8343,0.8193,0.8249,0.8327,0.8638,0.8752,0.9047,1.0021,0.9865,0.9721,1.0448,1.0599,1.0533,1.031,1.0894,1.1591,1.2192,1.2903,1.3413,1.3455,1.3862,1.4088,1.3835,1.4064,1.425,1.4202,1.4022,1.3738,1.3491,1.3055,1.2565,1.2029,1.2662,1.2856,1.237,1.3576,1.4112,1.3883,1.416,1.4298,1.4292,1.4051,1.4063,1.4286,1.4045,1.4063,1.4394,1.5866,1.6541,1.6723,1.8125,1.8735,1.8781,1.8781,1.8781,1.8781,1.8781,1.8781,1.8781,1.8781,1.8781,1.8718,1.8383,1.8041,1.7743,1.7392,1.7,1.6689,1.6689,1.6689,1.6689,1.6689,1.6689,1.6689,1.6689,1.6689,1.6689,1.6689,1.6689,1.6689,1.6689,1.6689,1.6689,1.6689,1.6689,1.6689,1.6689,1.6689,1.6689,1.6689,1.6689,1.6689,1.6689,1.6689,1.6689,1.6689,1.6689,1.6689,1.6689,1.6689,1.6689,1.6689,1.6689,1.6689,1.6689,1.7064,1.7254,1.7278,1.7631,1.7958,1.8263,1.8287,1.8478,0.7581,0.782,0.8189,0.8806,0.9077,0.9402,1.013,1.0527,1.0875,1.1333,1.1467,1.1351,1.1086,1.1423,1.185,1.2252,1.2988,1.3558,1.3724,1.4082,1.425,1.416,1.425,1.4298,1.4298,1.4208,1.4112,1.4016,1.3684,1.323,1.2729,1.3104,1.3125,1.2598,1.3391,1.3769,1.363,1.3769,1.3809,1.3809,1.3876,1.3876,1.3809,1.3707,1.3943,1.449,1.5545,1.6235,1.6755,1.8,1.8494,1.8518,1.874,1.8781,1.8781,1.8781,1.8781,1.8781,1.8781,1.8781,1.8726,1.8414,1.8057,1.7751,1.7416,1.7024,1.6689,1.6689,1.6689,1.6689,1.6689,1.6689,1.6689,1.6689,1.6689,1.6689,1.6689,1.6689,1.6689,1.6689,1.6689,1.6689,1.6689,1.6689,1.6689,1.6689,1.6929,1.7072,1.7072,1.7254,1.7382,1.7382,1.7382,1.7382,1.7382,1.7382,1.7382,1.7382,1.6927,1.6792,1.7064,1.7072,1.7167,1.7374,1.7517,1.7691,1.7914,1.8041,1.8279,1.8629,1.8629,1.87,0.737,0.7671,0.8171,0.8818,0.9372,0.9901,1.0418,1.0972,1.1537,1.2139,1.2193,1.2089,1.179,1.1886,1.2131,1.2397,1.297,1.3483,1.3749,1.3936,1.4051,1.4051,1.4051,1.4051,1.4051,1.4051,1.4051,1.4051,1.382,1.3461,1.299,1.3217,1.3182,1.2689,1.3235,1.3513,1.3513,1.3513,1.3471,1.3393,1.3574,1.361,1.3513,1.3429,1.3789,1.4533,1.5294,1.6013,1.6794,1.7723,1.82,1.8319,1.8565,1.8732,1.8781,1.8781,1.8781,1.8781,1.8781,1.8781,1.8742,1.8541,1.8152,1.7775,1.7544,1.7104,1.6689,1.6689,1.6689,1.6689,1.6689,1.6689,1.6689,1.6689,1.6689,1.6689,1.6689,1.6784,1.6905,1.6905,1.6992,1.7064,1.7064,1.7064,1.7064,1.7064,1.727,1.748,1.748,1.7679,1.7814,1.7814,1.7814,1.7814,1.7814,1.7814,1.7814,1.7814,1.7326,1.7175,1.7464,1.748,1.7583,1.7806,1.7882,1.8057,1.8295,1.8406,1.8589,1.8781,1.8781,1.8781,0.7709,0.7937,0.8357,0.865,0.9516,1.0442,1.1003,1.1098,1.1489,1.2806,1.2892,1.262,1.2361,1.2312,1.2397,1.2656,1.294,1.3173,1.3477,1.3513,1.3513,1.3513,1.3513,1.3513,1.3513,1.3513,1.3513,1.3513,1.3235,1.3002,1.2723,1.2956,1.3002,1.2717,1.3229,1.3507,1.3507,1.3507,1.3381,1.3121,1.3121,1.3254,1.3501,1.3236,1.3609,1.4527,1.5287,1.5999,1.6764,1.7501,1.7969,1.8295,1.8295,1.851,1.8781,1.8781,1.8781,1.8781,1.8781,1.8781,1.8781,1.8781,1.8343,1.7814,1.7806,1.7286,1.6689,1.6689,1.6697,1.6697,1.6697,1.6705,1.6705,1.6697,1.6697,1.6697,1.6705,1.7032,1.7286,1.7286,1.7591,1.7814,1.7814,1.7814,1.7814,1.7814,1.7814,1.7822,1.7822,1.7822,1.7822,1.7822,1.7822,1.7822,1.7822,1.7822,1.7822,1.7822,1.7822,1.7822,1.7814,1.7814,1.7822,1.7822,1.8128,1.8303,1.8303,1.8653,1.8781,1.8781,1.8781,1.8781,0.7413,0.7798,0.8447,0.9113,1.0063,1.1069,1.1793,1.1922,1.2131,1.2711,1.2614,1.2403,1.2324,1.2312,1.2337,1.2415,1.2819,1.3151,1.323,1.3399,1.3513,1.3513,1.3513,1.3513,1.3513,1.3513,1.3513,1.3513,1.3423,1.3248,1.3019,1.3058,1.2969,1.2729,1.2853,1.2946,1.2946,1.2946,1.2904,1.2831,1.2831,1.2868,1.294,1.2862,1.3471,1.4665,1.4879,1.5644,1.6729,1.7233,1.7663,1.793,1.793,1.8144,1.8454,1.8454,1.8613,1.8781,1.8781,1.8781,1.8742,1.8533,1.8144,1.7767,1.7536,1.7104,1.6689,1.6689,1.6921,1.7111,1.7111,1.7286,1.7405,1.7175,1.7111,1.7183,1.7413,1.7548,1.7663,1.7663,1.7743,1.7814,1.7814,1.7814,1.7814,1.7814,1.7985,1.8232,1.8486,1.8518,1.8518,1.8518,1.8518,1.8518,1.8518,1.8518,1.8518,1.8518,1.8518,1.8398,1.8152,1.8144,1.8255,1.851,1.8613,1.8669,1.8669,1.8726,1.8781,1.8781,1.8781,1.8781,0.7794,0.8343,0.9113,0.9811,1.0617,1.1486,1.2288,1.2554,1.2644,1.2693,1.2668,1.2602,1.2487,1.2469,1.2469,1.2469,1.2741,1.2958,1.2958,1.3091,1.3194,1.3194,1.3194,1.3194,1.3194,1.3194,1.3194,1.3194,1.3194,1.3127,1.2964,1.2958,1.288,1.2711,1.2705,1.2705,1.2705,1.2705,1.2705,1.2705,1.2705,1.2833,1.3088,1.3088,1.3682,1.4734,1.5276,1.594,1.6713,1.6969,1.7262,1.7615,1.7615,1.783,1.8089,1.8089,1.8224,1.8406,1.8406,1.8406,1.8375,1.816,1.7858,1.7583,1.7376,1.7024,1.6689,1.6689,1.7,1.7278,1.7278,1.7568,1.7767,1.7568,1.752,1.7568,1.7767,1.7882,1.7985,1.7985,1.8097,1.8192,1.8192,1.8192,1.8192,1.8192,1.8375,1.8589,1.8758,1.8781,1.8781,1.8781,1.8781,1.8781,1.8781,1.8781,1.8781,1.8781,1.8781,1.8732,1.8518,1.851,1.8605,1.8781,1.8781,1.8781,1.8781,1.8781,1.8781,1.8781,1.8781,1.8781,0.8499,0.9221,0.9973,1.0569,1.1164,1.1784,1.2542,1.2904,1.2969,1.2753,1.291,1.3006,1.2753,1.2705,1.2705,1.2705,1.2705,1.2705,1.2705,1.2705,1.2705,1.2705,1.2705,1.2705,1.2705,1.2705,1.2705,1.2705,1.2705,1.2705,1.2705,1.2705,1.2705,1.2705,1.2705,1.2705,1.2705,1.2705,1.2705,1.2705,1.2705,1.3045,1.3695,1.3695,1.411,1.4859,1.6147,1.6689,1.6689,1.6689,1.6929,1.7231,1.7231,1.7437,1.7767,1.7767,1.779,1.7814,1.7814,1.7814,1.7806,1.7775,1.7568,1.727,1.7239,1.7,1.6689,1.6689,1.7016,1.7368,1.7368,1.7639,1.791,1.791,1.7886,1.787,1.7902,1.812,1.8351,1.8351,1.8605,1.8781,1.8781,1.8781,1.8781,1.8781,1.8781,1.8781,1.8781,1.8781,1.8781,1.8781,1.8781,1.8781,1.8781,1.8781,1.8781,1.8781,1.8781,1.8781,1.8781,1.8781,1.8781,1.8781,1.8781,1.8781,1.8781,1.8781,1.8781,1.8781,1.8781,1.8797,0.8006,0.8674,0.9546,1.0737,1.1745,1.2493,1.2662,1.2753,1.2777,1.2717,1.2753,1.2777,1.2711,1.2705,1.2705,1.2705,1.2705,1.2705,1.2705,1.2705,1.2705,1.2705,1.2705,1.2705,1.2705,1.2705,1.2705,1.2705,1.2705,1.2705,1.2705,1.2705,1.2705,1.2705,1.2705,1.2705,1.2705,1.2705,1.2705,0.0,1.2705,1.3045,1.3695,1.3695,1.4363,1.5526,1.636,1.6689,1.6689,1.6689,1.6737,1.6808,1.6808,1.7072,1.7432,1.7432,1.7591,1.7814,1.7814,1.7814,1.7767,1.7512,1.7376,1.7223,1.6937,1.6753,1.6689,1.6689,1.7183,1.7703,1.7703,1.8128,1.8597,1.8597,1.839,1.8255,1.8541,1.8661,1.8716,1.8716,1.8726,1.8781,1.8781,1.8781,1.8781,1.8781,1.8781,1.8781,1.8781,1.8781,1.8781,1.8781,1.8781,1.8781,1.8781,1.8781,1.8781,1.8781,1.8781,1.8781,1.8781,1.8781,1.8781,1.8781,1.8781,1.8781,1.8781,1.8781,1.8781,1.8781,1.8781,1.8978,0.797,0.8782,0.9775,1.0978,1.192,1.2518,1.2518,1.2614,1.2705,1.2705,1.2705,1.2705,1.2705,1.2705,1.2705,1.2705,1.2705,1.2705,1.2705,1.2705,1.2705,1.2705,1.2705,1.2705,1.2705,1.2705,1.2705,1.2705,1.2705,1.2705,1.2705,1.2705,1.2705,1.2705,1.2705,1.2705,1.2705,1.2705,1.2705,1.2705,1.2705,1.3215,1.4195,1.4531,1.5193,1.6196,1.6566,1.6689,1.6689,1.6689,1.6689,1.6689,1.6689,1.6808,1.7016,1.7016,1.7127,1.727,1.727,1.727,1.7247,1.7072,1.7016,1.6984,1.6753,1.6689,1.6729,1.6945,1.7374,1.7854,1.7977,1.8422,1.8781,1.8781,1.8684,1.8605,1.8742,1.8781,1.8781,1.8781,1.8781,1.8781,1.8781,1.8781,1.8781,1.8781,1.8781,1.8781,1.8781,1.8781,1.8781,1.8781,1.8781,1.8781,1.8781,1.8781,1.8781,1.8781,1.8781,1.8781,1.8781,1.8781,1.8781,1.8781,1.8781,1.8781,1.8781,1.8781,1.8781,1.8781,1.901,1.9193,0.7976,0.9059,1.0208,1.1176,1.1814,1.2246,1.2246,1.2451,1.2638,1.2638,1.2674,1.2705,1.2705,1.2705,1.2705,1.2705,1.2705,1.2705,1.2705,1.2705,1.2705,1.2705,1.2705,1.2705,1.2705,1.2705,1.2705,1.2705,1.2705,1.2705,1.2705,1.2705,1.2705,1.2705,1.2705,1.2705,1.2705,1.2705,1.2705,1.2705,1.2918,1.3639,1.4734,1.5526,1.6196,1.6689,1.6689,1.6689,1.6689,1.6689,1.6689,1.6689,1.6689,1.6689,1.6689,1.6689,1.6689,1.6689,1.6689,1.6689,1.6689,1.6689,1.6689,1.6689,1.6689,1.6737,1.6848,1.7191,1.7556,1.793,1.8224,1.8565,1.8781,1.8781,1.8781,1.8781,1.8781,1.8781,1.8781,1.8781,1.8781,1.8781,1.8781,1.8781,1.8781,1.8781,1.8781,1.8781,1.8781,1.8781,1.8781,1.8781,1.8781,1.8781,1.8781,1.8781,1.8781,1.8781,1.8781,1.8781,1.8781,1.8781,1.8781,1.8781,1.8781,1.8781,1.8781,1.8781,1.8859,1.8931,1.9233,1.9479,0.7552,0.8939,1.0382,1.0984,1.1576,1.1934,1.1934,1.2174,1.2367,1.2367,1.2542,1.2705,1.2705,1.2705,1.2705,1.2705,1.2705,1.2705,1.2705,1.2705,1.2705,1.2705,1.2705,1.2705,1.2705,1.2705,1.2705,1.2705,1.2705,1.2705,1.2705,1.2705,1.2705,1.2705,1.2705,1.2705,1.2705,1.2705,1.2705,1.2705,1.3893,1.4524,1.4734,1.5982,1.6607,1.6689,1.6689,1.6689,1.6689,1.6689,1.6689,1.6689,1.6689,1.6689,1.6689,1.6689,1.6689,1.6689,1.6689,1.6689,1.6689,1.6689,1.6689,1.6689,1.6689,1.6953,1.7215,1.7262,1.7739,1.824,1.8287,1.8565,1.8781,1.8781,1.8781,1.8781,1.8781,1.8781,1.8781,1.8781,1.8781,1.8781,1.8781,1.8781,1.8781,1.8781,1.8781,1.8781,1.8781,1.8781,1.8781,1.8781,1.8781,1.8781,1.8781,1.8781,1.8781,1.8781,1.8781,1.8781,1.8781,1.8781,1.8781,1.8781,1.8781,1.8781,1.8781,1.8781,1.8994,1.9304,1.9352,1.9693,0.7949,0.892,0.9823,1.0683,1.1184,1.1471,1.1627,1.1868,1.2095,1.2095,1.2186,1.2312,1.2457,1.2487,1.2439,1.2288,1.227,1.227,1.227,1.227,1.227,1.227,1.227,1.227,1.227,1.227,1.227,1.227,1.227,1.227,1.227,1.227,1.233,1.2481,1.2487,1.2554,1.2705,1.2705,1.2875,1.3264,1.423,1.4901,1.5276,1.6278,1.6689,1.6689,1.6689,1.6689,1.6689,1.6689,1.6689,1.6689,1.6689,1.6689,1.6689,1.6689,1.6689,1.6689,1.6689,1.6689,1.6689,1.6689,1.6873,1.704,1.704,1.7278,1.7639,1.7795,1.8065,1.8343,1.8541,1.8708,1.8781,1.8781,1.8781,1.8781,1.8781,1.8781,1.8781,1.8781,1.8781,1.8781,1.8781,1.8781,1.8781,1.8781,1.8781,1.8781,1.8781,1.8781,1.8781,1.8781,1.8781,1.8781,1.8781,1.9018,1.9129,1.9129,1.9304,1.9407,1.9407,1.9407,1.9407,1.9407,1.9225,1.9129,1.9129,1.932,1.9495,1.9702,1.9852,2.0106,0.8027,0.8548,0.9041,1.0033,1.0616,1.0985,1.1224,1.1597,1.1862,1.1796,1.1926,1.2041,1.206,1.2168,1.2149,1.1916,1.188,1.188,1.188,1.188,1.188,1.188,1.188,1.188,1.188,1.188,1.188,1.188,1.188,1.188,1.188,1.1946,1.2073,1.2306,1.2379,1.2506,1.2699,1.2705,1.3045,1.3695,1.4363,1.5068,1.5733,1.6402,1.6689,1.6689,1.6689,1.6689,1.6689,1.6689,1.6689,1.6689,1.6689,1.6689,1.6689,1.6689,1.6689,1.6689,1.6689,1.6689,1.6705,1.68,1.7056,1.7337,1.7416,1.7636,1.7962,1.8224,1.8367,1.8494,1.8756,1.8781,1.8781,1.8781,1.8781,1.8781,1.8781,1.8781,1.8781,1.8781,1.8781,1.8781,1.8781,1.8781,1.8781,1.8781,1.8781,1.8781,1.8781,1.8781,1.8821,1.8955,1.8962,1.9002,1.9082,1.9336,1.9542,1.9542,1.9781,1.9917,1.9917,1.9917,1.9917,1.9917,1.9757,1.963,1.9542,1.9789,1.9957,2.0052,2.0265,2.044,0.7127,0.7617,0.8153,0.8981,0.9763,1.0406,1.0665,1.1327,1.1814,1.1561,1.195,1.2143,1.1621,1.1736,1.1938,1.1886,1.188,1.188,1.188,1.188,1.188,1.188,1.188,1.188,1.188,1.188,1.188,1.188,1.188,1.188,1.188,1.2155,1.23,1.2312,1.2554,1.2693,1.2705,1.2705,1.3045,1.3695,1.4363,1.5068,1.5733,1.6402,1.6689,1.6689,1.6689,1.6689,1.6689,1.6689,1.6689,1.6689,1.6689,1.6689,1.6689,1.6689,1.6689,1.6689,1.6689,1.6689,1.6753,1.7135,1.7262,1.7376,1.7695,1.7993,1.8279,1.8295,1.8541,1.8758,1.8781,1.8781,1.8781,1.8781,1.8781,1.8781,1.8781,1.8781,1.8781,1.8781,1.8781,1.8781,1.8781,1.8781,1.8781,1.8781,1.8781,1.8781,1.8781,1.8781,1.8962,1.9312,1.9391,1.9519,1.9829,1.9877,1.9885,1.9885,1.9901,1.9917,1.9917,1.9917,1.9917,1.9917,2.0178,2.017,1.9885,1.9901,2.0035,2.0369,2.0384,2.0575,0.7054,0.7321,0.7635,0.8397,0.9065,0.96,0.9871,1.0545,1.1134,1.1244,1.1513,1.1766,1.1748,1.1682,1.1573,1.1393,1.1401,1.1401,1.1401,1.1401,1.1516,1.1936,1.163,1.1554,1.1936,1.1974,1.205,1.2266,1.2622,1.2778,1.2539,1.2641,1.2578,1.2306,1.2403,1.2536,1.2699,1.313,1.3682,1.4363,1.5026,1.5692,1.636,1.6607,1.6689,1.6697,1.6237,1.6319,1.6689,1.6689,1.6689,1.6689,1.6689,1.6689,1.6689,1.6689,1.6689,1.6689,1.6689,1.6889,1.7104,1.7239,1.7572,1.7954,1.8073,1.8359,1.8637,1.8637,1.8732,1.8781,1.8781,1.8781,1.8781,1.8781,1.8781,1.8781,1.8781,1.8781,1.8781,1.8781,1.8781,1.8781,1.8781,1.8781,1.8781,1.8781,1.9026,1.9177,1.9177,1.936,1.9542,1.9726,1.9742,1.9781,1.9901,2.0124,2.0202,2.0202,2.0416,2.0543,2.0543,2.0543,2.0543,2.0543,2.0662,2.0559,2.0202,2.0432,2.0607,2.0734,2.0734,2.0798,0.6842,0.7,0.7237,0.7988,0.8445,0.8866,0.9504,1.0118,1.0629,1.0924,1.1236,1.1513,1.1636,1.1543,1.1459,1.1363,1.1383,1.1383,1.1383,1.1383,1.1612,1.2214,1.1948,1.1948,1.2585,1.263,1.2748,1.295,1.3334,0.0,1.3239,1.3306,1.3178,1.2773,1.2529,1.2614,1.3045,1.3476,1.4153,1.5026,1.5484,1.6064,1.6689,1.6689,1.6689,1.6697,1.6237,1.6154,1.636,1.636,1.636,1.6402,1.6607,1.6689,1.6689,1.6689,1.6689,1.6689,1.6689,1.6976,1.7337,1.7448,1.7834,1.8319,1.8438,1.8645,1.8781,1.8781,1.8781,1.8781,1.8781,1.8781,1.8781,1.8781,1.8781,1.8781,1.8781,1.8781,1.8781,1.8781,1.8781,1.8781,1.8781,1.8931,1.901,1.901,1.9312,1.9582,1.9582,1.9781,1.9957,2.0076,2.0092,2.0091,2.021,2.0329,2.0448,2.0567,2.0678,2.0798,2.0917,2.0925,2.0925,2.0925,2.0925,2.0805,2.0567,2.0805,2.0925,2.0925,2.0925,2.0861,0.0,0.0,0.0,0.7687,0.7865,0.8213,0.9528,1.0039,1.0316,1.0593,1.108,1.1381,1.1172,1.1315,1.1585,1.1838,1.188,1.188,1.188,1.188,1.216,1.2857,1.2903,1.3173,1.3874,1.3913,1.392,1.3927,1.3967,1.3974,1.3942,1.4184,1.4125,1.3724,1.3088,1.3045,1.3695,1.373,1.4405,1.5692,1.5733,1.6064,1.6681,1.6689,1.6689,1.6681,1.6689,1.6319,1.5692,1.5733,1.5733,1.5775,1.6443,1.6689,1.6689,1.6689,1.6689,1.6689,1.6689,1.6976,1.7392,1.7711,1.8017,1.8383,1.8724,1.8781,1.8781,1.8781,1.8781,1.8781,1.8781,1.8781,1.8781,1.8781,1.8781,1.8781,1.8781,1.8789,1.8797,1.8781,1.8789,1.8797,1.8797,1.9145,1.9431,1.9431,1.9718,1.9925,1.9917,1.9925,2.006,2.0361,2.0392,2.0535,2.0877,2.0591,2.0535,2.0885,2.0583,2.0551,2.0893,2.0909,2.0901,2.0893,2.0901,2.0909,2.0909,2.0917,2.0925,2.0925,2.0909,2.0718,0.6489,0.0,0.0,0.0,0.0,0.0,0.7866,0.8426,0.9053,0.9703,1.0256,1.0779,1.1285,1.1591,1.1796,1.1908,1.188,1.188,1.188,1.188,1.232,1.3416,1.318,1.3331,1.4435,1.4552,1.4648,0.0,1.5304,1.5443,1.5198,1.4799,1.4309,1.373,1.3977,1.4019,1.3695,1.465,1.5318,1.5692,1.6188,1.6392,1.6357,1.6578,1.6554,1.6325,1.608,1.5858,1.5733,1.6237,1.6147,1.5775,1.6443,1.6689,1.6689,1.6689,1.6689,1.6689,1.6689,1.7127,1.7695,1.7783,1.8184,1.87,1.875,1.8781,1.8781,1.8781,1.8781,1.8781,1.8781,1.8781,1.8781,1.8781,1.8781,1.8781,1.8781,1.9034,1.9145,1.8875,1.9042,1.9225,1.9225,1.955,1.9781,1.9781,2.0068,2.0154,1.9941,2.0091,2.0281,2.0384,2.0392,2.0432,2.0527,2.0448,2.0432,2.0535,2.0448,2.044,2.0535,2.0535,2.0416,2.0162,2.0408,2.0535,2.0535,2.0798,2.0925,2.0865,2.0655,2.0353,0.6733,0.673,0.6802,0.6878,0.0,0.0,0.7576,0.7898,0.8351,0.0,0.9763,1.0274,1.0743,1.1134,1.1455,1.1564,1.1645,1.176,1.1868,1.188,1.2437,1.3826,1.3713,1.4041,1.5469,1.5604,1.5688,1.5888,1.6227,1.6305,1.6139,1.5235,1.465,1.4524,1.4356,1.4356,1.4524,1.5318,1.5858,1.6105,1.6525,1.6586,1.6436,1.6602,1.6578,1.6396,1.6185,1.5948,1.5733,1.6402,1.6319,1.5775,1.6443,1.6689,1.6689,1.6689,1.6689,1.6689,1.6689,1.7191,1.7814,1.7814,1.8247,1.8781,1.8781,1.8781,1.8781,1.8781,1.8781,1.8781,1.8781,1.8781,1.8781,1.8781,1.8781,1.8867,1.9026,1.9225,1.9312,1.9098,1.9336,1.963,1.963,1.9909,2.0132,2.0132,2.0384,2.0535,2.0329,2.0488,2.0615,2.0615,2.0615,2.0615,2.0615,2.0345,2.0297,2.0599,2.0202,2.0162,2.0599,2.0329,2.0146,2.0132,2.0138,2.017,2.017,2.0678,2.0845,2.0686,2.0194,1.986,0.7135,0.7173,0.7358,0.751,0.7243,0.0,0.791,0.7937,0.8036,0.0,0.9287,0.966,0.9715,1.0154,1.0587,1.0852,1.1134,1.1483,1.1832,1.196,1.2521,1.3965,1.4242,1.4922,1.6343,1.6537,1.6578,1.6578,1.6578,1.6578,1.6578,1.5493,1.5101,1.564,1.4594,1.4566,1.5692,1.5775,1.6113,1.6689,1.6689,1.6673,1.6634,1.6673,1.6673,1.6634,1.6673,1.636,1.5858,1.6443,1.6319,1.5775,1.6443,1.6689,1.6689,1.6689,1.6689,1.6697,1.6737,1.7223,1.7822,1.7854,1.8279,1.8781,1.8781,1.8781,1.8781,1.8781,1.8781,1.8781,1.8781,1.8781,1.8781,1.8781,1.8781,1.8931,1.9296,1.9447,1.9487,1.9479,1.9765,1.9972,1.9972,2.0218,2.0448,2.0448,2.0718,2.0909,2.0869,2.0861,2.0861,2.0861,2.0829,2.0805,2.0805,2.0194,2.0091,2.0766,1.994,1.9844,2.0766,2.0202,1.9979,2.0218,1.9948,1.9877,1.9917,2.0496,2.0623,2.0265,1.9654,1.9399,0.7854,0.7942,0.8037,0.7419,0.7478,0.0,0.6905,0.7067,0.7376,0.0,0.7818,0.8169,0.8548,0.9053,0.9426,0.9474,1.0069,1.0845,1.1754,1.232,1.2777,1.3134,1.4044,1.4788,1.5138,1.5607,1.5888,1.5888,1.5888,1.5888,1.5888,1.5913,1.57,1.5297,1.5837,1.5982,1.5692,1.6237,1.6566,1.6689,1.6689,1.6547,1.6317,1.6562,1.6539,1.6325,1.657,1.6607,1.6525,1.6648,1.6319,1.5775,1.6443,1.6689,1.6689,1.6689,1.6689,1.6737,1.7072,1.7437,1.7862,1.8105,1.8486,1.8781,1.8781,1.8781,1.8781,1.8781,1.8781,1.8781,1.8781,1.8781,1.8781,1.8781,1.8781,1.8931,1.9296,1.963,1.9901,2.0138,2.0249,2.0289,2.0289,2.0583,2.0821,2.0821,2.0877,2.0821,2.0535,2.0496,2.0496,2.0496,2.0241,2.0124,2.0124,1.975,1.9686,2.0092,1.9933,1.9909,2.0116,1.9988,1.963,1.9137,1.9352,1.9646,1.9917,2.0052,1.99,1.9566,1.9479,1.9217,0.8311,0.8282,0.8379,0.7868,0.7826,0.0,0.0,0.7182,0.7315,0.7665,0.7667,0.7733,0.8217,0.853,0.8752,0.8884,0.9468,1.0045,1.0436,1.1206,1.1942,1.242,1.3303,1.4049,1.4531,1.5272,1.5712,1.5712,1.5712,1.5712,1.5712,1.5529,1.5466,1.5466,1.5797,1.5934,1.5934,1.6439,1.6689,1.6689,1.6689,1.6602,1.6476,1.661,1.6594,1.6476,1.6618,1.6689,1.6689,1.6689,1.6484,1.6237,1.6566,1.6689,1.6689,1.6689,1.6689,1.6745,1.7151,1.7536,1.787,1.8184,1.8541,1.8781,1.8781,1.8781,1.8781,1.8781,1.8781,1.8781,1.8781,1.8781,1.8781,1.8781,1.8781,1.897,1.955,1.9797,2.0068,2.0551,2.0655,2.0655,2.0655,2.0805,2.0925,2.0925,2.0925,2.0853,2.0678,2.0655,2.0655,2.0655,2.0496,2.0321,2.0138,1.9979,1.9948,2.0122,1.9861,1.9821,2.0114,1.9622,1.9185,1.8789,1.901,1.9177,1.9344,1.9344,1.936,1.9415,1.9185,1.9002,0.8874,0.8821,0.8941,0.8502,0.8285,0.8123,0.0,0.0,0.0,0.0,0.0,0.0,0.0,0.0,0.0,0.8367,0.0,0.0,0.0,0.9697,0.0,1.1566,1.2371,1.3186,1.3901,1.4657,1.5226,1.5459,1.5292,1.5268,1.5467,1.5042,1.5034,1.5586,1.5404,1.5571,1.6206,1.6484,1.6626,1.6689,1.6689,1.6689,1.6689,1.6689,1.6689,1.6689,1.6689,1.6689,1.6689,1.6689,1.6689,1.6689,1.6689,1.6689,1.6689,1.6689,1.6689,1.6745,1.7151,1.7536,1.787,1.8184,1.8541,1.8781,1.8781,1.8781,1.8781,1.8781,1.8781,1.8781,1.8781,1.8781,1.8781,1.8781,1.8781,1.9018,1.9765,1.9917,2.0075,2.0782,2.0925,2.0925,2.0925,2.0925,2.0925,2.0925,2.0925,2.0893,2.0829,2.0821,2.0821,2.0821,2.0758,2.0599,2.0313,2.0234,2.0202,2.0202,1.9677,1.9622,2.0178,1.9312,1.8781,1.8781,1.8781,1.8781,1.8781,1.8781,1.8978,1.9256,1.8962,1.8781,1.0047,1.0211,1.0304,0.8986,0.8999,0.8963,0.7594,0.0,0.773,0.7394,0.0,0.0,0.0,0.0,0.0,0.0,0.0,0.0,0.8069,0.8566,0.9211,0.9986,1.1493,1.246,1.2439,1.2739,1.3458,1.4629,1.3902,1.3791,1.4676,1.4988,1.517,1.5245,1.5524,1.581,1.6198,1.6246,1.642,1.6689,1.6689,1.6689,1.6689,1.6689,1.6689,1.6689,1.6689,1.6689,1.6689,1.6689,1.6689,1.6689,1.6689,1.6689,1.6689,1.6689,1.6689,1.6745,1.7151,1.7536,1.787,1.8184,1.8541,1.8781,1.8781,1.8781,1.8781,1.8781,1.8781,1.8781,1.8781,1.8781,1.8781,1.8781,1.8781,1.9018,1.9765,1.9917,2.0075,2.0782,2.0925,2.0925,2.0925,2.0925,2.0925,2.0925,2.0925,2.0805,2.0496,2.0456,2.0456,2.0456,2.017,2.002,1.9972,1.9654,1.9487,1.9487,1.9415,1.9407,1.9535,1.9066,1.8781,1.8781,1.8781,1.8781,1.8781,1.8781,1.8805,1.8891,1.8797,1.8781,1.0108,1.0226,1.0309,0.9358,0.9291,0.9169,0.8097,0.0,0.7737,0.0,0.0,0.0,0.0,0.0,0.0,0.0,0.7588,0.0,0.0,0.0,0.8285,0.0,0.0,0.0,1.2053,1.2422,1.3004,1.395,1.3259,1.3243,1.424,1.4474,1.4657,1.4863,1.5213,1.5459,1.561,1.5801,1.6079,1.6428,1.6428,1.6491,1.6689,1.6689,1.6689,1.6689,1.6689,1.6689,1.6689,1.6689,1.6689,1.6689,1.6689,1.6689,1.6689,1.6689,1.6689,1.6745,1.7151,1.7536,1.791,1.8422,1.8708,1.8781,1.8781,1.8781,1.8781,1.8781,1.8781,1.8781,1.8781,1.8781,1.8781,1.8781,1.8994,1.928,1.9805,2.0027,2.0321,2.0821,2.0925,2.0925,2.0925,2.0925,2.0925,2.0925,2.0925,2.0798,2.044,2.0392,2.0392,2.0392,2.0075,1.9917,1.9917,1.9789,1.963,1.9431,1.9423,1.9423,1.9423,1.9026,1.9018,1.9423,1.9241,1.9241,1.9431,1.9431,1.9431,1.9423,1.9233,1.9145,1.0454,0.0,0.0,0.0,0.0,0.0,0.0,0.0,0.0,0.0,0.0,0.0,0.0,0.0,0.7309,0.7332,0.0,0.7443,0.0,0.7232,0.0,0.0,0.0,0.0,0.0,1.1752,1.2107,1.3084,0.0,1.2558,1.3767,1.3918,1.4132,1.4447,1.4847,1.5086,1.5189,1.5515,1.5856,1.6206,1.6301,1.6444,1.6689,1.6689,1.6689,1.6689,1.6689,1.6689,1.6689,1.6689,1.6689,1.6689,1.6689,1.6689,1.6689,1.6689,1.6689,1.6729,1.704,1.7413,1.789,1.8597,1.8781,1.8781,1.8781,1.8781,1.8781,1.8781,1.8781,1.8781,1.8781,1.8781,1.8805,1.8955,1.9185,1.9535,1.9965,2.021,2.0496,2.0853,2.0925,2.0893,2.0798,2.0774,2.0774,2.0774,2.0694,2.0504,2.0154,2.0114,2.0114,2.0114,1.9933,1.9781,1.9781,1.9781,1.9678,1.9431,1.9503,1.9558,1.9558,1.9256,1.9352,1.9901,1.9678,1.967,1.9917,1.9917,1.9917,1.9909,1.967,1.9558,0.0,0.0,0.0,1.0089,0.0,0.0,0.0,0.0,0.853,0.0,0.0,0.0,0.0,0.7725,0.7623,0.7669,0.7702,0.0,0.0,0.0,0.0,0.0,0.0,0.0,0.0,1.0104,1.0215,0.0,1.1141,0.0,1.3036,1.3425,1.3767,1.4117,1.4439,1.4824,1.5181,1.5515,1.5856,1.6206,1.6515,1.6681,1.6689,1.6689,1.6689,1.6689,1.6689,1.6689,1.6689,1.6689,1.6689,1.6689,1.6689,1.6689,1.6689,1.6689,1.6689,1.6689,1.6705,1.7199,1.789,1.8597,1.8781,1.8781,1.8781,1.8781,1.8781,1.8781,1.8781,1.8781,1.8781,1.8781,1.8915,1.9272,1.9415,1.9558,2.0226,2.0384,2.0496,2.0853,2.0925,2.0813,2.0464,2.0408,2.0408,2.0408,2.0122,1.9829,1.9495,1.9455,1.9455,1.9455,1.9439,1.9439,1.9439,1.9439,1.9431,1.9423,1.9718,1.9893,1.9893,1.9885,1.9893,1.9917,1.9901,1.9901,1.9917,1.9917,1.9917,1.9917,1.9901,1.9893,0.0,0.0,1.3573,1.139,0.0,0.0,0.0,0.0,0.0,0.0,0.0,0.0,0.0,0.7731,0.7691,0.7994,0.7687,0.7396,0.0,0.0,0.0,0.0,0.0,0.924,0.0,0.0,0.0,0.0,1.1018,0.0,0.0,1.3307,1.3743,1.4101,1.4423,1.466,1.4787,1.4935,1.5284,1.5856,1.5975,1.6277,1.6689,1.6689,1.6689,1.6689,1.6689,1.6689,1.6689,1.6689,1.6689,1.6689,1.6689,1.6689,1.6689,1.6689,1.6689,1.6761,1.7262,1.7723,1.82,1.8676,1.8781,1.8781,1.8781,1.8781,1.8781,1.8781,1.8781,1.8781,1.8781,1.8781,1.8915,1.9288,1.9582,1.9828,2.0289,2.0575,2.0774,2.0901,2.0734,2.0535,2.0416,2.0019,1.9789,2.006,1.9988,1.9789,1.9463,1.9423,1.9423,1.9423,1.9423,1.9511,1.9726,1.975,1.975,1.975,1.9853,2.002,2.0202,2.0036,2.0132,2.0551,2.0337,2.0329,2.0567,2.0567,2.0567,2.0567,2.0567,2.044,1.3985,1.4421,0.0,1.2792,1.2398,0.0,1.0321,0.0,0.9917,0.0,0.0,0.0,0.0,0.8744,0.8242,0.8726,0.8129,0.7578,0.0,0.7204,0.0,0.0,0.7866,0.8521,0.8404,0.8852,0.9557,1.0542,1.0391,1.082,0.0,0.0,1.3433,1.391,1.4351,1.4605,1.4605,1.4732,1.5062,1.5545,1.5745,1.6103,1.6547,1.6634,1.6689,1.6689,1.6689,1.6689,1.6689,1.6689,1.6689,1.6689,1.6689,1.6689,1.6689,1.6689,1.6776,1.7008,1.7572,1.8001,1.8359,1.8716,1.8781,1.8781,1.8781,1.8781,1.8781,1.8781,1.8781,1.8781,1.8781,1.8923,1.9105,1.9511,1.9853,2.0154,2.0504,2.0758,2.0885,2.0758,2.0551,2.0313,2.0075,1.9669,1.9495,1.971,1.9582,1.9415,1.9201,1.9288,1.9423,1.9423,1.9527,1.9678,1.9893,2.0028,2.01,2.01,2.017,2.0345,2.0575,2.0361,2.0456,2.0909,2.0694,2.0694,2.0925,2.0925,2.0925,2.0925,2.1121,2.1052]}]]